Time,TemperatureF,DewpointF,PressureIn,WindDirection,WindDirectionDegrees,WindSpeedMPH,WindSpeedGustMPH,Humidity,HourlyPrecipIn,Conditions,Clouds,dailyrainin,SoftwareType,DateUTC
2013-05-23 00:00:00,66.0,65.4,29.91,WNW,292,4.0,5.0,98,0.18,,---,0.00,VWS V14.00,2013-05-23 05:00:00,
2013-05-23 00:01:00,66.0,65.4,29.91,WNW,292,5.0,6.0,98,0.18,,---,0.00,VWS V14.00,2013-05-23 05:01:00,
2013-05-23 00:02:00,66.0,65.4,29.91,WNW,292,5.0,6.0,98,0.18,,---,0.00,VWS V14.00,2013-05-23 05:02:00,
2013-05-23 00:03:00,66.0,65.4,29.92,WNW,292,4.0,4.0,98,0.18,,---,0.00,VWS V14.00,2013-05-23 05:03:00,
2013-05-23 00:04:00,66.0,65.4,29.91,NW,315,3.0,5.0,98,0.18,,---,0.00,VWS V14.00,2013-05-23 05:04:00,
2013-05-23 00:05:00,66.0,65.4,29.91,NW,315,3.0,4.0,98,0.18,,---,0.00,VWS V14.00,2013-05-23 05:05:00,
2013-05-23 00:06:00,66.0,65.4,29.91,NNW,338,3.0,6.0,98,0.17,,---,0.00,VWS V14.00,2013-05-23 05:06:00,
2013-05-23 00:07:00,66.0,65.4,29.92,East,90,1.0,3.0,98,0.17,,---,0.00,VWS V14.00,2013-05-23 05:07:00,
2013-05-23 00:08:00,66.0,65.4,29.92,NNE,22,5.0,5.0,98,0.16,,---,0.00,VWS V14.00,2013-05-23 05:08:00,
2013-05-23 00:09:00,66.0,65.4,29.92,North,0,4.0,5.0,98,0.14,,---,0.00,VWS V14.00,2013-05-23 05:09:00,
2013-05-23 00:10:00,66.0,65.4,29.92,North,0,3.0,5.0,98,0.14,,---,0.00,VWS V14.00,2013-05-23 05:10:00,
2013-05-23 00:11:00,66.0,65.4,29.92,North,0,3.0,5.0,98,0.13,,---,0.00,VWS V14.00,2013-05-23 05:11:00,
2013-05-23 00:12:00,66.0,65.4,29.92,NNW,338,4.0,5.0,98,0.12,,---,0.00,VWS V14.00,2013-05-23 05:12:00,
2013-05-23 00:13:00,66.0,65.4,29.92,NNW,338,5.0,6.0,98,0.12,,---,0.00,VWS V14.00,2013-05-23 05:13:00,
2013-05-23 00:14:00,66.0,65.4,29.92,NNW,338,5.0,6.0,98,0.12,,---,0.00,VWS V14.00,2013-05-23 05:14:00,
2013-05-23 00:15:00,66.0,65.4,29.92,NNW,338,5.0,6.0,98,0.12,,---,0.00,VWS V14.00,2013-05-23 05:15:00,
2013-05-23 00:16:00,66.0,65.4,29.92,NNW,338,6.0,6.0,98,0.12,,---,0.00,VWS V14.00,2013-05-23 05:16:00,
2013-05-23 00:17:00,66.0,65.4,29.92,North,0,6.0,8.0,98,0.10,,---,0.00,VWS V14.00,2013-05-23 05:17:00,
2013-05-23 00:18:00,66.0,65.4,29.92,North,0,2.0,2.0,98,0.09,,---,0.00,VWS V14.00,2013-05-23 05:18:00,
2013-05-23 00:19:00,66.0,65.4,29.92,WNW,292,6.0,9.0,98,0.09,,---,0.00,VWS V14.00,2013-05-23 05:19:00,
2013-05-23 00:20:00,65.0,64.4,29.91,NW,315,6.0,10.0,98,0.08,,---,0.00,VWS V14.00,2013-05-23 05:20:00,
2013-05-23 00:21:00,66.0,65.4,29.92,NNW,338,7.0,9.0,98,0.06,,---,0.00,VWS V14.00,2013-05-23 05:21:00,
2013-05-23 00:22:00,66.0,65.4,29.92,NNW,338,8.0,9.0,98,0.05,,---,0.00,VWS V14.00,2013-05-23 05:22:00,
2013-05-23 00:23:00,65.0,64.4,29.92,NNW,338,8.0,14.0,98,0.04,,---,0.00,VWS V14.00,2013-05-23 05:23:00,
2013-05-23 00:24:00,65.0,64.4,29.92,NNW,338,13.0,13.0,98,0.02,,---,0.00,VWS V14.00,2013-05-23 05:24:00,
2013-05-23 00:25:00,66.0,65.1,29.92,NNW,338,6.0,13.0,97,0.02,,---,0.00,VWS V14.00,2013-05-23 05:25:00,
2013-05-23 00:26:00,66.0,65.1,29.92,NW,315,5.0,11.0,97,0.01,,---,0.00,VWS V14.00,2013-05-23 05:26:00,
2013-05-23 00:27:00,66.0,64.8,29.92,North,0,9.0,9.0,96,0.00,,---,0.00,VWS V14.00,2013-05-23 05:27:00,
2013-05-23 00:28:00,66.0,64.5,29.92,NNW,338,14.0,14.0,95,0.00,,---,0.00,VWS V14.00,2013-05-23 05:28:00,
2013-05-23 00:29:00,66.0,64.2,29.92,NW,315,9.0,14.0,94,0.00,,---,0.00,VWS V14.00,2013-05-23 05:29:00,
2013-05-23 00:30:00,66.0,63.9,29.92,NW,315,7.0,14.0,93,0.00,,---,0.00,VWS V14.00,2013-05-23 05:30:00,
2013-05-23 00:31:00,66.0,63.6,29.92,NNW,338,11.0,11.0,92,0.00,,---,0.00,VWS V14.00,2013-05-23 05:31:00,
2013-05-23 00:32:00,66.0,63.6,29.92,NW,315,6.0,10.0,92,0.00,,---,0.00,VWS V14.00,2013-05-23 05:32:00,
2013-05-23 00:33:00,66.0,63.6,29.92,WNW,292,8.0,9.0,92,0.00,,---,0.00,VWS V14.00,2013-05-23 05:33:00,
2013-05-23 00:34:00,66.0,63.3,29.92,NW,315,6.0,10.0,91,0.00,,---,0.00,VWS V14.00,2013-05-23 05:34:00,
2013-05-23 00:35:00,66.0,63.3,29.92,NW,315,6.0,8.0,91,0.00,,---,0.00,VWS V14.00,2013-05-23 05:35:00,
2013-05-23 00:36:00,66.0,63.3,29.92,NW,315,5.0,7.0,91,0.00,,---,0.00,VWS V14.00,2013-05-23 05:36:00,
2013-05-23 00:37:00,66.0,63.3,29.92,NW,315,5.0,9.0,91,0.00,,---,0.00,VWS V14.00,2013-05-23 05:37:00,
2013-05-23 00:38:00,65.0,62.3,29.92,NW,315,5.0,8.0,91,0.00,,---,0.00,VWS V14.00,2013-05-23 05:38:00,
2013-05-23 00:39:00,65.0,62.0,29.92,NNW,338,6.0,7.0,90,0.00,,---,0.00,VWS V14.00,2013-05-23 05:39:00,
2013-05-23 00:40:00,65.0,62.0,29.92,WNW,292,5.0,9.0,90,0.00,,---,0.00,VWS V14.00,2013-05-23 05:40:00,
2013-05-23 00:41:00,65.0,62.0,29.92,NNW,338,6.0,9.0,90,0.00,,---,0.00,VWS V14.00,2013-05-23 05:41:00,
2013-05-23 00:42:00,65.0,62.0,29.92,NNW,338,9.0,10.0,90,0.00,,---,0.00,VWS V14.00,2013-05-23 05:42:00,
2013-05-23 00:43:00,65.0,62.0,29.92,NW,315,7.0,9.0,90,0.00,,---,0.00,VWS V14.00,2013-05-23 05:43:00,
2013-05-23 00:44:00,65.0,61.7,29.92,NNW,338,5.0,10.0,89,0.00,,---,0.00,VWS V14.00,2013-05-23 05:44:00,
2013-05-23 00:45:00,65.0,61.7,29.92,NNW,338,6.0,7.0,89,0.00,,---,0.00,VWS V14.00,2013-05-23 05:45:00,
2013-05-23 00:46:00,65.0,61.7,29.92,NW,315,7.0,10.0,89,0.00,,---,0.00,VWS V14.00,2013-05-23 05:46:00,
2013-05-23 00:47:00,65.0,61.7,29.92,NNW,338,9.0,11.0,89,0.00,,---,0.00,VWS V14.00,2013-05-23 05:47:00,
2013-05-23 00:48:00,65.0,61.4,29.92,NW,315,11.0,11.0,88,0.00,,---,0.00,VWS V14.00,2013-05-23 05:48:00,
2013-05-23 00:49:00,65.0,61.4,29.92,WNW,292,6.0,11.0,88,0.00,,---,0.00,VWS V14.00,2013-05-23 05:49:00,
2013-05-23 00:50:00,65.0,61.4,29.92,WNW,292,8.0,14.0,88,0.00,,---,0.00,VWS V14.00,2013-05-23 05:50:00,
2013-05-23 00:51:00,65.0,61.0,29.92,WNW,292,7.0,10.0,87,0.00,,---,0.00,VWS V14.00,2013-05-23 05:51:00,
2013-05-23 00:52:00,65.0,61.0,29.92,WNW,292,11.0,12.0,87,0.00,,---,0.00,VWS V14.00,2013-05-23 05:52:00,
2013-05-23 00:53:00,66.0,61.7,29.92,NW,315,7.0,12.0,86,0.00,,---,0.00,VWS V14.00,2013-05-23 05:53:00,
2013-05-23 00:54:00,65.0,60.4,29.92,WNW,292,14.0,14.0,85,0.00,,---,0.00,VWS V14.00,2013-05-23 05:54:00,
2013-05-23 00:55:00,66.0,61.0,29.92,NNW,338,8.0,16.0,84,0.00,,---,0.00,VWS V14.00,2013-05-23 05:55:00,
2013-05-23 00:56:00,66.0,61.0,29.92,WNW,292,13.0,13.0,84,0.00,,---,0.00,VWS V14.00,2013-05-23 05:56:00,
2013-05-23 00:57:00,66.0,60.7,29.92,NNW,338,7.0,18.0,83,0.00,,---,0.00,VWS V14.00,2013-05-23 05:57:00,
2013-05-23 00:58:00,66.0,60.3,29.92,NW,315,5.0,6.0,82,0.00,,---,0.00,VWS V14.00,2013-05-23 05:58:00,
2013-05-23 00:59:00,66.0,60.3,29.92,NNW,338,5.0,13.0,82,0.00,,---,0.00,VWS V14.00,2013-05-23 05:59:00,
2013-05-23 01:00:00,66.0,60.0,29.92,NW,315,9.0,10.0,81,0.00,,---,0.00,VWS V14.00,2013-05-23 06:00:00,
2013-05-23 01:01:00,66.0,60.0,29.92,North,0,8.0,14.0,81,0.00,,---,0.00,VWS V14.00,2013-05-23 06:01:00,
2013-05-23 01:02:00,66.0,59.7,29.92,NW,315,5.0,13.0,80,0.00,,---,0.00,VWS V14.00,2013-05-23 06:02:00,
2013-05-23 01:03:00,65.0,58.7,29.92,WNW,292,12.0,13.0,80,0.00,,---,0.00,VWS V14.00,2013-05-23 06:03:00,
2013-05-23 01:04:00,65.0,59.0,29.92,NW,315,9.0,12.0,81,0.00,,---,0.00,VWS V14.00,2013-05-23 06:04:00,
2013-05-23 01:05:00,65.0,59.0,29.92,WNW,292,7.0,9.0,81,0.00,,---,0.00,VWS V14.00,2013-05-23 06:05:00,
2013-05-23 01:06:00,65.0,58.7,29.92,WNW,292,7.0,11.0,80,0.00,,---,0.00,VWS V14.00,2013-05-23 06:06:00,
2013-05-23 01:07:00,65.0,58.7,29.92,WNW,292,7.0,10.0,80,0.00,,---,0.00,VWS V14.00,2013-05-23 06:07:00,
2013-05-23 01:08:00,65.0,58.7,29.92,WNW,292,9.0,12.0,80,0.00,,---,0.00,VWS V14.00,2013-05-23 06:08:00,
2013-05-23 01:09:00,65.0,58.7,29.92,WNW,292,10.0,11.0,80,0.00,,---,0.00,VWS V14.00,2013-05-23 06:09:00,
2013-05-23 01:10:00,65.0,58.7,29.92,WNW,292,6.0,11.0,80,0.00,,---,0.00,VWS V14.00,2013-05-23 06:10:00,
2013-05-23 01:11:00,65.0,58.7,29.92,NW,315,7.0,10.0,80,0.00,,---,0.00,VWS V14.00,2013-05-23 06:11:00,
2013-05-23 01:12:00,65.0,58.7,29.92,WNW,292,8.0,8.0,80,0.00,,---,0.00,VWS V14.00,2013-05-23 06:12:00,
2013-05-23 01:13:00,65.0,58.3,29.92,WNW,292,9.0,10.0,79,0.00,,---,0.00,VWS V14.00,2013-05-23 06:13:00,
2013-05-23 01:14:00,65.0,58.3,29.92,WNW,292,9.0,12.0,79,0.00,,---,0.00,VWS V14.00,2013-05-23 06:14:00,
2013-05-23 01:15:00,65.0,58.3,29.92,WNW,292,6.0,10.0,79,0.00,,---,0.00,VWS V14.00,2013-05-23 06:15:00,
2013-05-23 01:16:00,65.0,58.3,29.92,WNW,292,7.0,9.0,79,0.00,,---,0.00,VWS V14.00,2013-05-23 06:16:00,
2013-05-23 01:17:00,65.0,58.3,29.92,NW,315,6.0,9.0,79,0.00,,---,0.00,VWS V14.00,2013-05-23 06:17:00,
2013-05-23 01:18:00,65.0,58.3,29.92,WNW,292,10.0,10.0,79,0.00,,---,0.00,VWS V14.00,2013-05-23 06:18:00,
2013-05-23 01:19:00,65.0,58.0,29.92,NW,315,7.0,11.0,78,0.00,,---,0.00,VWS V14.00,2013-05-23 06:19:00,
2013-05-23 01:20:00,65.0,58.0,29.92,NW,315,10.0,11.0,78,0.00,,---,0.00,VWS V14.00,2013-05-23 06:20:00,
2013-05-23 01:21:00,65.0,58.0,29.92,WNW,292,8.0,10.0,78,0.00,,---,0.00,VWS V14.00,2013-05-23 06:21:00,
2013-05-23 01:22:00,65.0,58.0,29.92,NNW,338,8.0,10.0,78,0.00,,---,0.00,VWS V14.00,2013-05-23 06:22:00,
2013-05-23 01:23:00,65.0,58.0,29.92,NW,315,7.0,9.0,78,0.00,,---,0.00,VWS V14.00,2013-05-23 06:23:00,
2013-05-23 01:24:00,65.0,58.0,29.92,NW,315,8.0,9.0,78,0.00,,---,0.00,VWS V14.00,2013-05-23 06:24:00,
2013-05-23 01:25:00,65.0,58.0,29.92,WNW,292,7.0,9.0,78,0.00,,---,0.00,VWS V14.00,2013-05-23 06:25:00,
2013-05-23 01:26:00,65.0,58.3,29.92,WNW,292,6.0,8.0,79,0.00,,---,0.00,VWS V14.00,2013-05-23 06:26:00,
2013-05-23 01:27:00,65.0,58.3,29.92,WNW,292,6.0,8.0,79,0.00,,---,0.00,VWS V14.00,2013-05-23 06:27:00,
2013-05-23 01:28:00,65.0,58.3,29.92,WNW,292,5.0,8.0,79,0.00,,---,0.00,VWS V14.00,2013-05-23 06:28:00,
2013-05-23 01:29:00,65.0,58.3,29.92,WNW,292,6.0,8.0,79,0.00,,---,0.00,VWS V14.00,2013-05-23 06:29:00,
2013-05-23 01:30:00,64.0,57.4,29.92,WNW,292,7.0,7.0,79,0.00,,---,0.00,VWS V14.00,2013-05-23 06:30:00,
2013-05-23 01:31:00,64.0,57.4,29.92,NW,315,6.0,8.0,79,0.00,,---,0.00,VWS V14.00,2013-05-23 06:31:00,
2013-05-23 01:32:00,64.0,57.4,29.92,WNW,292,6.0,7.0,79,0.00,,---,0.00,VWS V14.00,2013-05-23 06:32:00,
2013-05-23 01:33:00,64.0,57.4,29.92,WNW,292,6.0,7.0,79,0.00,,---,0.00,VWS V14.00,2013-05-23 06:33:00,
2013-05-23 01:34:00,64.0,57.4,29.92,WNW,292,6.0,6.0,79,0.00,,---,0.00,VWS V14.00,2013-05-23 06:34:00,
2013-05-23 01:35:00,64.0,57.7,29.92,WNW,292,5.0,7.0,80,0.00,,---,0.00,VWS V14.00,2013-05-23 06:35:00,
2013-05-23 01:36:00,64.0,57.7,29.92,NW,315,6.0,7.0,80,0.00,,---,0.00,VWS V14.00,2013-05-23 06:36:00,
2013-05-23 01:37:00,64.0,57.7,29.92,WNW,292,5.0,7.0,80,0.00,,---,0.00,VWS V14.00,2013-05-23 06:37:00,
2013-05-23 01:38:00,64.0,57.4,29.92,WNW,292,6.0,7.0,79,0.00,,---,0.00,VWS V14.00,2013-05-23 06:38:00,
2013-05-23 01:39:00,64.0,57.4,29.92,WNW,292,5.0,6.0,79,0.00,,---,0.00,VWS V14.00,2013-05-23 06:39:00,
2013-05-23 01:40:00,64.0,57.4,29.92,WNW,292,5.0,6.0,79,0.00,,---,0.00,VWS V14.00,2013-05-23 06:40:00,
2013-05-23 01:41:00,64.0,57.7,29.93,WNW,292,4.0,5.0,80,0.00,,---,0.00,VWS V14.00,2013-05-23 06:41:00,
2013-05-23 01:42:00,64.0,57.7,29.93,WNW,292,4.0,4.0,80,0.00,,---,0.00,VWS V14.00,2013-05-23 06:42:00,
2013-05-23 01:43:00,64.0,58.1,29.92,WNW,292,4.0,5.0,81,0.00,,---,0.00,VWS V14.00,2013-05-23 06:43:00,
2013-05-23 01:44:00,64.0,58.1,29.92,West,270,3.0,4.0,81,0.00,,---,0.00,VWS V14.00,2013-05-23 06:44:00,
2013-05-23 01:45:00,64.0,58.1,29.93,West,270,3.0,5.0,81,0.00,,---,0.00,VWS V14.00,2013-05-23 06:45:00,
2013-05-23 01:46:00,64.0,58.1,29.93,West,270,3.0,4.0,81,0.00,,---,0.00,VWS V14.00,2013-05-23 06:46:00,
2013-05-23 01:47:00,64.0,58.4,29.92,West,270,3.0,3.0,82,0.00,,---,0.00,VWS V14.00,2013-05-23 06:47:00,
2013-05-23 01:48:00,64.0,58.4,29.93,WSW,248,3.0,3.0,82,0.00,,---,0.00,VWS V14.00,2013-05-23 06:48:00,
2013-05-23 01:49:00,64.0,58.7,29.92,West,270,3.0,3.0,83,0.00,,---,0.00,VWS V14.00,2013-05-23 06:49:00,
2013-05-23 01:50:00,64.0,58.7,29.93,WSW,248,3.0,3.0,83,0.00,,---,0.00,VWS V14.00,2013-05-23 06:50:00,
2013-05-23 01:51:00,64.0,59.1,29.93,West,270,3.0,3.0,84,0.00,,---,0.00,VWS V14.00,2013-05-23 06:51:00,
2013-05-23 01:52:00,63.0,58.1,29.93,West,270,3.0,3.0,84,0.00,,---,0.00,VWS V14.00,2013-05-23 06:52:00,
2013-05-23 01:53:00,63.0,58.1,29.93,West,270,3.0,3.0,84,0.00,,---,0.00,VWS V14.00,2013-05-23 06:53:00,
2013-05-23 01:54:00,63.0,58.1,29.93,West,270,3.0,3.0,84,0.00,,---,0.00,VWS V14.00,2013-05-23 06:54:00,
2013-05-23 01:55:00,64.0,59.1,29.93,West,270,3.0,3.0,84,0.00,,---,0.00,VWS V14.00,2013-05-23 06:55:00,
2013-05-23 01:56:00,64.0,59.1,29.92,West,270,3.0,3.0,84,0.00,,---,0.00,VWS V14.00,2013-05-23 06:56:00,
2013-05-23 01:57:00,64.0,59.4,29.93,West,270,3.0,3.0,85,0.00,,---,0.00,VWS V14.00,2013-05-23 06:57:00,
2013-05-23 02:04:00,64.0,59.1,29.93,WSW,248,3.0,5.0,84,0.00,,---,0.00,VWS V14.00,2013-05-23 07:04:00,
2013-05-23 02:05:00,64.0,59.1,29.93,West,270,5.0,5.0,84,0.00,,---,0.00,VWS V14.00,2013-05-23 07:05:00,
2013-05-23 02:06:00,64.0,59.1,29.93,West,270,4.0,5.0,84,0.00,,---,0.00,VWS V14.00,2013-05-23 07:06:00,
2013-05-23 02:07:00,64.0,59.1,29.93,WSW,248,4.0,5.0,84,0.00,,---,0.00,VWS V14.00,2013-05-23 07:07:00,
2013-05-23 02:08:00,64.0,59.1,29.93,WSW,248,3.0,5.0,84,0.00,,---,0.00,VWS V14.00,2013-05-23 07:08:00,
2013-05-23 02:09:00,64.0,59.1,29.93,West,270,4.0,5.0,84,0.00,,---,0.00,VWS V14.00,2013-05-23 07:09:00,
2013-05-23 02:10:00,63.0,58.1,29.93,West,270,3.0,4.0,84,0.00,,---,0.00,VWS V14.00,2013-05-23 07:10:00,
2013-05-23 02:11:00,63.0,58.1,29.93,West,270,3.0,4.0,84,0.00,,---,0.00,VWS V14.00,2013-05-23 07:11:00,
2013-05-23 02:12:00,63.0,58.1,29.93,West,270,3.0,4.0,84,0.00,,---,0.00,VWS V14.00,2013-05-23 07:12:00,
2013-05-23 02:13:00,63.0,58.1,29.93,WSW,248,3.0,3.0,84,0.00,,---,0.00,VWS V14.00,2013-05-23 07:13:00,
2013-05-23 02:14:00,63.0,58.1,29.93,WSW,248,3.0,3.0,84,0.00,,---,0.00,VWS V14.00,2013-05-23 07:14:00,
2013-05-23 02:15:00,63.0,58.1,29.93,West,270,3.0,3.0,84,0.00,,---,0.00,VWS V14.00,2013-05-23 07:15:00,
2013-05-23 02:16:00,63.0,58.1,29.93,West,270,2.0,3.0,84,0.00,,---,0.00,VWS V14.00,2013-05-23 07:16:00,
2013-05-23 02:17:00,63.0,58.1,29.93,WSW,248,3.0,3.0,84,0.00,,---,0.00,VWS V14.00,2013-05-23 07:17:00,
2013-05-23 02:18:00,63.0,58.1,29.93,West,270,1.0,3.0,84,0.00,,---,0.00,VWS V14.00,2013-05-23 07:18:00,
2013-05-23 02:19:00,63.0,58.1,29.93,West,270,2.0,3.0,84,0.00,,---,0.00,VWS V14.00,2013-05-23 07:19:00,
2013-05-23 02:20:00,63.0,58.1,29.93,West,270,3.0,3.0,84,0.00,,---,0.00,VWS V14.00,2013-05-23 07:20:00,
2013-05-23 02:21:00,63.0,57.8,29.93,West,270,2.0,3.0,83,0.00,,---,0.00,VWS V14.00,2013-05-23 07:21:00,
2013-05-23 02:22:00,63.0,58.1,29.93,West,270,2.0,2.0,84,0.00,,---,0.00,VWS V14.00,2013-05-23 07:22:00,
2013-05-23 02:23:00,63.0,58.1,29.93,West,270,1.0,3.0,84,0.00,,---,0.00,VWS V14.00,2013-05-23 07:23:00,
2013-05-23 02:24:00,63.0,58.1,29.93,West,270,1.0,2.0,84,0.00,,---,0.00,VWS V14.00,2013-05-23 07:24:00,
2013-05-23 02:25:00,63.0,58.1,29.93,West,270,1.0,2.0,84,0.00,,---,0.00,VWS V14.00,2013-05-23 07:25:00,
2013-05-23 02:26:00,63.0,58.1,29.93,West,270,1.0,2.0,84,0.00,,---,0.00,VWS V14.00,2013-05-23 07:26:00,
2013-05-23 02:27:00,63.0,58.1,29.93,West,270,1.0,2.0,84,0.00,,---,0.00,VWS V14.00,2013-05-23 07:27:00,
2013-05-23 02:28:00,63.0,58.1,29.93,West,270,2.0,2.0,84,0.00,,---,0.00,VWS V14.00,2013-05-23 07:28:00,
2013-05-23 02:29:00,63.0,58.1,29.93,West,270,0.0,2.0,84,0.00,,---,0.00,VWS V14.00,2013-05-23 07:29:00,
2013-05-23 02:30:00,63.0,58.4,29.93,West,270,0.0,0.0,85,0.00,,---,0.00,VWS V14.00,2013-05-23 07:30:00,
2013-05-23 02:31:00,63.0,58.4,29.93,West,270,0.0,0.0,85,0.00,,---,0.00,VWS V14.00,2013-05-23 07:31:00,
2013-05-23 02:32:00,63.0,58.4,29.93,West,270,0.0,0.0,85,0.00,,---,0.00,VWS V14.00,2013-05-23 07:32:00,
2013-05-23 02:33:00,63.0,58.4,29.93,West,270,1.0,2.0,85,0.00,,---,0.00,VWS V14.00,2013-05-23 07:33:00,
2013-05-23 02:34:00,63.0,58.4,29.93,West,270,1.0,2.0,85,0.00,,---,0.00,VWS V14.00,2013-05-23 07:34:00,
2013-05-23 02:35:00,62.0,57.5,29.93,West,270,0.0,1.0,85,0.00,,---,0.00,VWS V14.00,2013-05-23 07:35:00,
2013-05-23 02:36:00,62.0,57.5,29.93,West,270,0.0,0.0,85,0.00,,---,0.00,VWS V14.00,2013-05-23 07:36:00,
2013-05-23 02:37:00,62.0,57.5,29.93,West,270,0.0,0.0,85,0.00,,---,0.00,VWS V14.00,2013-05-23 07:37:00,
2013-05-23 02:38:00,62.0,57.5,29.93,West,270,0.0,0.0,85,0.00,,---,0.00,VWS V14.00,2013-05-23 07:38:00,
2013-05-23 02:39:00,62.0,57.5,29.93,West,270,0.0,0.0,85,0.00,,---,0.00,VWS V14.00,2013-05-23 07:39:00,
2013-05-23 02:40:00,62.0,57.5,29.94,West,270,0.0,0.0,85,0.00,,---,0.00,VWS V14.00,2013-05-23 07:40:00,
2013-05-23 02:41:00,62.0,57.5,29.94,West,270,0.0,0.0,85,0.00,,---,0.00,VWS V14.00,2013-05-23 07:41:00,
2013-05-23 02:42:00,62.0,57.5,29.94,West,270,0.0,0.0,85,0.00,,---,0.00,VWS V14.00,2013-05-23 07:42:00,
2013-05-23 02:43:00,62.0,57.5,29.94,West,270,0.0,0.0,85,0.00,,---,0.00,VWS V14.00,2013-05-23 07:43:00,
2013-05-23 02:44:00,62.0,57.5,29.94,West,270,0.0,0.0,85,0.00,,---,0.00,VWS V14.00,2013-05-23 07:44:00,
2013-05-23 02:45:00,62.0,57.8,29.94,West,270,0.0,0.0,86,0.00,,---,0.00,VWS V14.00,2013-05-23 07:45:00,
2013-05-23 02:46:00,62.0,57.8,29.94,West,270,0.0,0.0,86,0.00,,---,0.00,VWS V14.00,2013-05-23 07:46:00,
2013-05-23 02:47:00,62.0,57.8,29.94,West,270,2.0,2.0,86,0.00,,---,0.00,VWS V14.00,2013-05-23 07:47:00,
2013-05-23 02:48:00,62.0,57.8,29.94,West,270,1.0,3.0,86,0.00,,---,0.00,VWS V14.00,2013-05-23 07:48:00,
2013-05-23 02:49:00,62.0,57.8,29.94,West,270,2.0,2.0,86,0.00,,---,0.00,VWS V14.00,2013-05-23 07:49:00,
2013-05-23 02:50:00,62.0,57.8,29.94,West,270,2.0,2.0,86,0.00,,---,0.00,VWS V14.00,2013-05-23 07:50:00,
2013-05-23 02:51:00,62.0,57.8,29.94,West,270,1.0,3.0,86,0.00,,---,0.00,VWS V14.00,2013-05-23 07:51:00,
2013-05-23 02:52:00,62.0,58.1,29.94,West,270,1.0,2.0,87,0.00,,---,0.00,VWS V14.00,2013-05-23 07:52:00,
2013-05-23 02:53:00,62.0,58.1,29.94,West,270,1.0,2.0,87,0.00,,---,0.00,VWS V14.00,2013-05-23 07:53:00,
2013-05-23 02:54:00,62.0,58.1,29.94,West,270,1.0,2.0,87,0.00,,---,0.00,VWS V14.00,2013-05-23 07:54:00,
2013-05-23 02:55:00,62.0,58.1,29.94,West,270,3.0,3.0,87,0.00,,---,0.00,VWS V14.00,2013-05-23 07:55:00,
2013-05-23 02:56:00,62.0,58.1,29.94,WSW,248,2.0,3.0,87,0.00,,---,0.00,VWS V14.00,2013-05-23 07:56:00,
2013-05-23 02:57:00,62.0,58.1,29.94,West,270,1.0,3.0,87,0.00,,---,0.00,VWS V14.00,2013-05-23 07:57:00,
2013-05-23 02:58:00,62.0,58.1,29.94,West,270,3.0,3.0,87,0.00,,---,0.00,VWS V14.00,2013-05-23 07:58:00,
2013-05-23 02:59:00,62.0,58.1,29.94,WNW,292,2.0,3.0,87,0.00,,---,0.00,VWS V14.00,2013-05-23 07:59:00,
2013-05-23 03:00:00,62.0,58.1,29.94,WNW,292,2.0,3.0,87,0.00,,---,0.00,VWS V14.00,2013-05-23 08:00:00,
2013-05-23 03:01:00,62.0,58.1,29.94,WNW,292,3.0,3.0,87,0.00,,---,0.00,VWS V14.00,2013-05-23 08:01:00,
2013-05-23 03:02:00,62.0,57.8,29.94,WNW,292,2.0,3.0,86,0.00,,---,0.00,VWS V14.00,2013-05-23 08:02:00,
2013-05-23 03:03:00,62.0,57.8,29.94,WNW,292,2.0,3.0,86,0.00,,---,0.00,VWS V14.00,2013-05-23 08:03:00,
2013-05-23 03:04:00,62.0,57.8,29.94,WNW,292,2.0,3.0,86,0.00,,---,0.00,VWS V14.00,2013-05-23 08:04:00,
2013-05-23 03:05:00,62.0,57.8,29.94,WNW,292,1.0,3.0,86,0.00,,---,0.00,VWS V14.00,2013-05-23 08:05:00,
2013-05-23 03:06:00,62.0,57.8,29.94,WNW,292,0.0,1.0,86,0.00,,---,0.00,VWS V14.00,2013-05-23 08:06:00,
2013-05-23 03:07:00,62.0,57.8,29.94,WNW,292,0.0,0.0,86,0.00,,---,0.00,VWS V14.00,2013-05-23 08:07:00,
2013-05-23 03:08:00,61.0,56.8,29.94,WNW,292,0.0,0.0,86,0.00,,---,0.00,VWS V14.00,2013-05-23 08:08:00,
2013-05-23 03:09:00,61.0,56.8,29.95,WNW,292,0.0,0.0,86,0.00,,---,0.00,VWS V14.00,2013-05-23 08:09:00,
2013-05-23 03:10:00,61.0,57.1,29.95,WNW,292,0.0,0.0,87,0.00,,---,0.00,VWS V14.00,2013-05-23 08:10:00,
2013-05-23 03:11:00,61.0,57.4,29.95,West,270,2.0,3.0,88,0.00,,---,0.00,VWS V14.00,2013-05-23 08:11:00,
2013-05-23 03:12:00,61.0,57.4,29.94,West,270,2.0,2.0,88,0.00,,---,0.00,VWS V14.00,2013-05-23 08:12:00,
2013-05-23 03:13:00,61.0,57.7,29.95,West,270,2.0,2.0,89,0.00,,---,0.00,VWS V14.00,2013-05-23 08:13:00,
2013-05-23 03:14:00,61.0,57.7,29.94,West,270,3.0,3.0,89,0.00,,---,0.00,VWS V14.00,2013-05-23 08:14:00,
2013-05-23 03:15:00,61.0,57.7,29.95,West,270,3.0,3.0,89,0.00,,---,0.00,VWS V14.00,2013-05-23 08:15:00,
2013-05-23 03:16:00,61.0,58.0,29.95,West,270,3.0,3.0,90,0.00,,---,0.00,VWS V14.00,2013-05-23 08:16:00,
2013-05-23 03:17:00,61.0,58.0,29.95,West,270,3.0,4.0,90,0.00,,---,0.00,VWS V14.00,2013-05-23 08:17:00,
2013-05-23 03:18:00,61.0,58.0,29.95,West,270,1.0,3.0,90,0.00,,---,0.00,VWS V14.00,2013-05-23 08:18:00,
2013-05-23 03:19:00,61.0,58.0,29.95,West,270,3.0,3.0,90,0.00,,---,0.00,VWS V14.00,2013-05-23 08:19:00,
2013-05-23 03:20:00,61.0,58.0,29.95,West,270,2.0,3.0,90,0.00,,---,0.00,VWS V14.00,2013-05-23 08:20:00,
2013-05-23 03:21:00,61.0,58.4,29.95,West,270,3.0,3.0,91,0.00,,---,0.00,VWS V14.00,2013-05-23 08:21:00,
2013-05-23 03:22:00,60.0,57.4,29.95,West,270,3.0,4.0,91,0.00,,---,0.00,VWS V14.00,2013-05-23 08:22:00,
2013-05-23 03:23:00,60.0,57.4,29.95,West,270,3.0,4.0,91,0.00,,---,0.00,VWS V14.00,2013-05-23 08:23:00,
2013-05-23 03:24:00,60.0,57.4,29.95,West,270,5.0,5.0,91,0.00,,---,0.00,VWS V14.00,2013-05-23 08:24:00,
2013-05-23 03:25:00,60.0,57.7,29.95,WSW,248,3.0,5.0,92,0.00,,---,0.00,VWS V14.00,2013-05-23 08:25:00,
2013-05-23 03:26:00,60.0,57.7,29.95,WSW,248,2.0,5.0,92,0.00,,---,0.00,VWS V14.00,2013-05-23 08:26:00,
2013-05-23 03:27:00,60.0,57.7,29.95,WSW,248,4.0,5.0,92,0.00,,---,0.00,VWS V14.00,2013-05-23 08:27:00,
2013-05-23 03:28:00,60.0,57.7,29.95,West,270,3.0,5.0,92,0.00,,---,0.00,VWS V14.00,2013-05-23 08:28:00,
2013-05-23 03:29:00,60.0,57.7,29.95,West,270,3.0,5.0,92,0.00,,---,0.00,VWS V14.00,2013-05-23 08:29:00,
2013-05-23 03:30:00,60.0,57.7,29.95,West,270,4.0,4.0,92,0.00,,---,0.00,VWS V14.00,2013-05-23 08:30:00,
2013-05-23 03:31:00,60.0,57.7,29.95,West,270,2.0,4.0,92,0.00,,---,0.00,VWS V14.00,2013-05-23 08:31:00,
2013-05-23 03:32:00,60.0,57.7,29.95,West,270,3.0,3.0,92,0.00,,---,0.00,VWS V14.00,2013-05-23 08:32:00,
2013-05-23 03:33:00,60.0,57.7,29.95,WSW,248,3.0,3.0,92,0.00,,---,0.00,VWS V14.00,2013-05-23 08:33:00,
2013-05-23 03:34:00,60.0,57.7,29.95,WSW,248,3.0,4.0,92,0.00,,---,0.00,VWS V14.00,2013-05-23 08:34:00,
2013-05-23 03:35:00,60.0,57.7,29.95,WSW,248,3.0,4.0,92,0.00,,---,0.00,VWS V14.00,2013-05-23 08:35:00,
2013-05-23 03:36:00,60.0,57.7,29.95,WSW,248,3.0,4.0,92,0.00,,---,0.00,VWS V14.00,2013-05-23 08:36:00,
2013-05-23 03:37:00,60.0,57.7,29.95,WSW,248,2.0,3.0,92,0.00,,---,0.00,VWS V14.00,2013-05-23 08:37:00,
2013-05-23 03:38:00,60.0,57.7,29.95,WSW,248,3.0,4.0,92,0.00,,---,0.00,VWS V14.00,2013-05-23 08:38:00,
2013-05-23 03:39:00,60.0,57.7,29.95,WSW,248,3.0,3.0,92,0.00,,---,0.00,VWS V14.00,2013-05-23 08:39:00,
2013-05-23 03:40:00,60.0,57.7,29.95,WSW,248,3.0,3.0,92,0.00,,---,0.00,VWS V14.00,2013-05-23 08:40:00,
2013-05-23 03:41:00,60.0,57.7,29.95,WSW,248,3.0,3.0,92,0.00,,---,0.00,VWS V14.00,2013-05-23 08:41:00,
2013-05-23 03:42:00,60.0,57.7,29.95,WSW,248,2.0,3.0,92,0.00,,---,0.00,VWS V14.00,2013-05-23 08:42:00,
2013-05-23 03:43:00,60.0,57.7,29.95,WSW,248,2.0,3.0,92,0.00,,---,0.00,VWS V14.00,2013-05-23 08:43:00,
2013-05-23 03:44:00,60.0,57.7,29.95,WSW,248,3.0,3.0,92,0.00,,---,0.00,VWS V14.00,2013-05-23 08:44:00,
2013-05-23 03:45:00,60.0,57.7,29.95,WSW,248,3.0,4.0,92,0.00,,---,0.00,VWS V14.00,2013-05-23 08:45:00,
2013-05-23 03:46:00,60.0,57.7,29.95,WSW,248,1.0,3.0,92,0.00,,---,0.00,VWS V14.00,2013-05-23 08:46:00,
2013-05-23 03:47:00,60.0,57.7,29.95,WSW,248,1.0,3.0,92,0.00,,---,0.00,VWS V14.00,2013-05-23 08:47:00,
2013-05-23 03:48:00,60.0,57.7,29.95,SW,225,1.0,3.0,92,0.00,,---,0.00,VWS V14.00,2013-05-23 08:48:00,
2013-05-23 03:49:00,60.0,57.7,29.95,SW,225,2.0,3.0,92,0.00,,---,0.00,VWS V14.00,2013-05-23 08:49:00,
2013-05-23 03:50:00,60.0,57.7,29.95,SW,225,1.0,3.0,92,0.00,,---,0.00,VWS V14.00,2013-05-23 08:50:00,
2013-05-23 03:51:00,60.0,57.7,29.95,SSW,202,1.0,3.0,92,0.00,,---,0.00,VWS V14.00,2013-05-23 08:51:00,
2013-05-23 03:52:00,60.0,57.7,29.95,SSW,202,0.0,2.0,92,0.00,,---,0.00,VWS V14.00,2013-05-23 08:52:00,
2013-05-23 03:53:00,60.0,57.7,29.95,SSW,202,0.0,0.0,92,0.00,,---,0.00,VWS V14.00,2013-05-23 08:53:00,
2013-05-23 03:54:00,60.0,57.7,29.95,SSW,202,0.0,0.0,92,0.00,,---,0.00,VWS V14.00,2013-05-23 08:54:00,
2013-05-23 03:55:00,60.0,57.7,29.95,SSW,202,0.0,0.0,92,0.00,,---,0.00,VWS V14.00,2013-05-23 08:55:00,
2013-05-23 03:56:00,60.0,57.7,29.95,SSW,202,0.0,0.0,92,0.00,,---,0.00,VWS V14.00,2013-05-23 08:56:00,
2013-05-23 03:57:00,60.0,57.7,29.95,SSW,202,0.0,0.0,92,0.00,,---,0.00,VWS V14.00,2013-05-23 08:57:00,
2013-05-23 03:58:00,60.0,57.7,29.95,SSW,202,0.0,0.0,92,0.00,,---,0.00,VWS V14.00,2013-05-23 08:58:00,
2013-05-23 03:59:00,60.0,57.7,29.95,SSW,202,0.0,0.0,92,0.00,,---,0.00,VWS V14.00,2013-05-23 08:59:00,
2013-05-23 04:00:00,60.0,57.7,29.95,SSW,202,0.0,0.0,92,0.00,,---,0.00,VWS V14.00,2013-05-23 09:00:00,
2013-05-23 04:01:00,60.0,57.7,29.95,SSW,202,0.0,0.0,92,0.00,,---,0.00,VWS V14.00,2013-05-23 09:01:00,
2013-05-23 04:02:00,60.0,57.7,29.95,SSW,202,0.0,0.0,92,0.00,,---,0.00,VWS V14.00,2013-05-23 09:02:00,
2013-05-23 04:03:00,60.0,57.7,29.95,South,180,0.0,0.0,92,0.00,,---,0.00,VWS V14.00,2013-05-23 09:03:00,
2013-05-23 04:04:00,60.0,57.7,29.95,SSE,158,0.0,0.0,92,0.00,,---,0.00,VWS V14.00,2013-05-23 09:04:00,
2013-05-23 04:05:00,60.0,57.7,29.96,SSE,158,0.0,0.0,92,0.00,,---,0.00,VWS V14.00,2013-05-23 09:05:00,
2013-05-23 04:06:00,60.0,57.7,29.95,SSE,158,0.0,0.0,92,0.00,,---,0.00,VWS V14.00,2013-05-23 09:06:00,
2013-05-23 04:07:00,60.0,57.7,29.95,SSE,158,0.0,0.0,92,0.00,,---,0.00,VWS V14.00,2013-05-23 09:07:00,
2013-05-23 04:08:00,60.0,57.7,29.96,SSE,158,0.0,0.0,92,0.00,,---,0.00,VWS V14.00,2013-05-23 09:08:00,
2013-05-23 04:09:00,60.0,57.7,29.96,SSE,158,0.0,0.0,92,0.00,,---,0.00,VWS V14.00,2013-05-23 09:09:00,
2013-05-23 04:10:00,60.0,57.7,29.96,SSE,158,0.0,0.0,92,0.00,,---,0.00,VWS V14.00,2013-05-23 09:10:00,
2013-05-23 04:11:00,60.0,57.7,29.96,SSE,158,0.0,0.0,92,0.00,,---,0.00,VWS V14.00,2013-05-23 09:11:00,
2013-05-23 04:12:00,60.0,57.7,29.96,SSW,202,1.0,2.0,92,0.00,,---,0.00,VWS V14.00,2013-05-23 09:12:00,
2013-05-23 04:13:00,60.0,57.7,29.96,SSW,202,1.0,3.0,92,0.00,,---,0.00,VWS V14.00,2013-05-23 09:13:00,
2013-05-23 04:14:00,59.0,56.7,29.96,SSW,202,2.0,2.0,92,0.00,,---,0.00,VWS V14.00,2013-05-23 09:14:00,
2013-05-23 04:15:00,59.0,56.7,29.96,SSW,202,2.0,3.0,92,0.00,,---,0.00,VWS V14.00,2013-05-23 09:15:00,
2013-05-23 04:16:00,59.0,57.0,29.96,SSW,202,3.0,3.0,93,0.00,,---,0.00,VWS V14.00,2013-05-23 09:16:00,
2013-05-23 04:17:00,59.0,57.0,29.96,SSW,202,2.0,3.0,93,0.00,,---,0.00,VWS V14.00,2013-05-23 09:17:00,
2013-05-23 04:18:00,59.0,57.0,29.96,SSW,202,1.0,3.0,93,0.00,,---,0.00,VWS V14.00,2013-05-23 09:18:00,
2013-05-23 04:19:00,59.0,57.0,29.96,SSW,202,3.0,3.0,93,0.00,,---,0.00,VWS V14.00,2013-05-23 09:19:00,
2013-05-23 04:20:00,59.0,57.0,29.96,SSW,202,3.0,3.0,93,0.00,,---,0.00,VWS V14.00,2013-05-23 09:20:00,
2013-05-23 04:21:00,59.0,57.0,29.96,SSW,202,2.0,3.0,93,0.00,,---,0.00,VWS V14.00,2013-05-23 09:21:00,
2013-05-23 04:22:00,59.0,57.3,29.96,South,180,2.0,3.0,94,0.00,,---,0.00,VWS V14.00,2013-05-23 09:22:00,
2013-05-23 04:23:00,59.0,57.3,29.96,South,180,3.0,3.0,94,0.00,,---,0.00,VWS V14.00,2013-05-23 09:23:00,
2013-05-23 04:24:00,59.0,57.3,29.96,South,180,3.0,3.0,94,0.00,,---,0.00,VWS V14.00,2013-05-23 09:24:00,
2013-05-23 04:25:00,59.0,57.3,29.96,South,180,3.0,4.0,94,0.00,,---,0.00,VWS V14.00,2013-05-23 09:25:00,
2013-05-23 04:26:00,59.0,57.3,29.96,South,180,3.0,4.0,94,0.00,,---,0.00,VWS V14.00,2013-05-23 09:26:00,
2013-05-23 04:27:00,59.0,57.3,29.96,South,180,3.0,3.0,94,0.00,,---,0.00,VWS V14.00,2013-05-23 09:27:00,
2013-05-23 04:28:00,59.0,57.3,29.96,South,180,3.0,3.0,94,0.00,,---,0.00,VWS V14.00,2013-05-23 09:28:00,
2013-05-23 04:29:00,59.0,57.3,29.96,South,180,3.0,3.0,94,0.00,,---,0.00,VWS V14.00,2013-05-23 09:29:00,
2013-05-23 04:30:00,59.0,57.3,29.96,SSW,202,3.0,3.0,94,0.00,,---,0.00,VWS V14.00,2013-05-23 09:30:00,
2013-05-23 04:31:00,59.0,57.6,29.96,South,180,2.0,3.0,95,0.00,,---,0.00,VWS V14.00,2013-05-23 09:31:00,
2013-05-23 04:32:00,59.0,57.6,29.96,SSW,202,1.0,3.0,95,0.00,,---,0.00,VWS V14.00,2013-05-23 09:32:00,
2013-05-23 04:33:00,59.0,57.6,29.96,SSW,202,3.0,3.0,95,0.00,,---,0.00,VWS V14.00,2013-05-23 09:33:00,
2013-05-23 04:34:00,59.0,57.6,29.96,SSW,202,2.0,2.0,95,0.00,,---,0.00,VWS V14.00,2013-05-23 09:34:00,
2013-05-23 04:35:00,59.0,57.6,29.96,SSW,202,2.0,3.0,95,0.00,,---,0.00,VWS V14.00,2013-05-23 09:35:00,
2013-05-23 04:36:00,59.0,57.6,29.96,SSW,202,2.0,2.0,95,0.00,,---,0.00,VWS V14.00,2013-05-23 09:36:00,
2013-05-23 04:37:00,59.0,57.6,29.96,SSW,202,3.0,3.0,95,0.00,,---,0.00,VWS V14.00,2013-05-23 09:37:00,
2013-05-23 04:38:00,59.0,57.6,29.96,SSW,202,3.0,3.0,95,0.00,,---,0.00,VWS V14.00,2013-05-23 09:38:00,
2013-05-23 04:39:00,59.0,57.6,29.96,South,180,2.0,3.0,95,0.00,,---,0.00,VWS V14.00,2013-05-23 09:39:00,
2013-05-23 04:40:00,59.0,57.6,29.96,South,180,2.0,3.0,95,0.00,,---,0.00,VWS V14.00,2013-05-23 09:40:00,
2013-05-23 04:41:00,59.0,57.6,29.96,South,180,2.0,3.0,95,0.00,,---,0.00,VWS V14.00,2013-05-23 09:41:00,
2013-05-23 04:42:00,59.0,57.6,29.96,SSW,202,3.0,3.0,95,0.00,,---,0.00,VWS V14.00,2013-05-23 09:42:00,
2013-05-23 04:43:00,59.0,57.6,29.96,SSW,202,3.0,3.0,95,0.00,,---,0.00,VWS V14.00,2013-05-23 09:43:00,
2013-05-23 04:44:00,59.0,57.6,29.96,South,180,3.0,4.0,95,0.00,,---,0.00,VWS V14.00,2013-05-23 09:44:00,
2013-05-23 04:45:00,59.0,57.6,29.96,South,180,3.0,4.0,95,0.00,,---,0.00,VWS V14.00,2013-05-23 09:45:00,
2013-05-23 04:46:00,59.0,57.6,29.96,SE,135,3.0,3.0,95,0.00,,---,0.00,VWS V14.00,2013-05-23 09:46:00,
2013-05-23 04:47:00,59.0,57.6,29.96,SSE,158,3.0,4.0,95,0.00,,---,0.00,VWS V14.00,2013-05-23 09:47:00,
2013-05-23 04:48:00,59.0,57.6,29.96,South,180,3.0,4.0,95,0.00,,---,0.00,VWS V14.00,2013-05-23 09:48:00,
2013-05-23 04:49:00,59.0,57.6,29.96,South,180,3.0,4.0,95,0.00,,---,0.00,VWS V14.00,2013-05-23 09:49:00,
2013-05-23 04:50:00,59.0,57.6,29.96,South,180,3.0,3.0,95,0.00,,---,0.00,VWS V14.00,2013-05-23 09:50:00,
2013-05-23 04:51:00,59.0,57.6,29.97,South,180,3.0,3.0,95,0.00,,---,0.00,VWS V14.00,2013-05-23 09:51:00,
2013-05-23 04:52:00,59.0,57.6,29.96,South,180,2.0,3.0,95,0.00,,---,0.00,VWS V14.00,2013-05-23 09:52:00,
2013-05-23 04:53:00,58.0,56.6,29.96,South,180,3.0,3.0,95,0.00,,---,0.00,VWS V14.00,2013-05-23 09:53:00,
2013-05-23 04:54:00,58.0,56.6,29.96,South,180,3.0,3.0,95,0.00,,---,0.00,VWS V14.00,2013-05-23 09:54:00,
2013-05-23 04:55:00,58.0,56.6,29.96,South,180,3.0,4.0,95,0.00,,---,0.00,VWS V14.00,2013-05-23 09:55:00,
2013-05-23 04:56:00,58.0,56.6,29.96,SSW,202,3.0,4.0,95,0.00,,---,0.00,VWS V14.00,2013-05-23 09:56:00,
2013-05-23 04:57:00,58.0,56.6,29.97,SSW,202,2.0,3.0,95,0.00,,---,0.00,VWS V14.00,2013-05-23 09:57:00,
2013-05-23 04:58:00,58.0,56.6,29.97,SSW,202,2.0,3.0,95,0.00,,---,0.00,VWS V14.00,2013-05-23 09:58:00,
2013-05-23 04:59:00,58.0,56.6,29.97,SSW,202,3.0,3.0,95,0.00,,---,0.00,VWS V14.00,2013-05-23 09:59:00,
2013-05-23 05:00:00,58.0,56.6,29.97,SSW,202,2.0,3.0,95,0.00,,---,0.00,VWS V14.00,2013-05-23 10:00:00,
2013-05-23 05:01:00,58.0,56.6,29.97,SSW,202,3.0,3.0,95,0.00,,---,0.00,VWS V14.00,2013-05-23 10:01:00,
2013-05-23 05:02:00,58.0,56.6,29.97,SSW,202,2.0,3.0,95,0.00,,---,0.00,VWS V14.00,2013-05-23 10:02:00,
2013-05-23 05:03:00,58.0,56.6,29.97,South,180,3.0,3.0,95,0.00,,---,0.00,VWS V14.00,2013-05-23 10:03:00,
2013-05-23 05:04:00,58.0,56.6,29.97,SSW,202,3.0,3.0,95,0.00,,---,0.00,VWS V14.00,2013-05-23 10:04:00,
2013-05-23 05:05:00,58.0,56.6,29.97,SSW,202,2.0,3.0,95,0.00,,---,0.00,VWS V14.00,2013-05-23 10:05:00,
2013-05-23 05:06:00,58.0,56.6,29.97,SSW,202,3.0,4.0,95,0.00,,---,0.00,VWS V14.00,2013-05-23 10:06:00,
2013-05-23 05:07:00,58.0,56.6,29.97,SSW,202,3.0,3.0,95,0.00,,---,0.00,VWS V14.00,2013-05-23 10:07:00,
2013-05-23 05:08:00,59.0,57.6,29.97,South,180,3.0,3.0,95,0.00,,---,0.00,VWS V14.00,2013-05-23 10:08:00,
2013-05-23 05:09:00,59.0,57.6,29.97,South,180,2.0,3.0,95,0.00,,---,0.00,VWS V14.00,2013-05-23 10:09:00,
2013-05-23 05:10:00,59.0,57.6,29.97,South,180,2.0,3.0,95,0.00,,---,0.00,VWS V14.00,2013-05-23 10:10:00,
2013-05-23 05:11:00,59.0,57.3,29.97,South,180,3.0,3.0,94,0.00,,---,0.00,VWS V14.00,2013-05-23 10:11:00,
2013-05-23 05:12:00,59.0,57.3,29.97,SSW,202,1.0,3.0,94,0.00,,---,0.00,VWS V14.00,2013-05-23 10:12:00,
2013-05-23 05:13:00,59.0,57.3,29.97,SSW,202,3.0,4.0,94,0.00,,---,0.00,VWS V14.00,2013-05-23 10:13:00,
2013-05-23 05:14:00,59.0,57.3,29.97,SSW,202,4.0,4.0,94,0.00,,---,0.00,VWS V14.00,2013-05-23 10:14:00,
2013-05-23 05:15:00,59.0,57.3,29.97,SSW,202,2.0,4.0,94,0.00,,---,0.00,VWS V14.00,2013-05-23 10:15:00,
2013-05-23 05:16:00,59.0,57.3,29.97,South,180,2.0,3.0,94,0.00,,---,0.00,VWS V14.00,2013-05-23 10:16:00,
2013-05-23 05:17:00,59.0,57.3,29.97,SSE,158,3.0,3.0,94,0.00,,---,0.00,VWS V14.00,2013-05-23 10:17:00,
2013-05-23 05:18:00,59.0,57.3,29.97,SSE,158,1.0,3.0,94,0.00,,---,0.00,VWS V14.00,2013-05-23 10:18:00,
2013-05-23 05:19:00,59.0,57.3,29.97,SSW,202,1.0,3.0,94,0.00,,---,0.00,VWS V14.00,2013-05-23 10:19:00,
2013-05-23 05:20:00,59.0,57.3,29.98,SSW,202,0.0,1.0,94,0.00,,---,0.00,VWS V14.00,2013-05-23 10:20:00,
2013-05-23 05:21:00,59.0,57.3,29.98,South,180,0.0,0.0,94,0.00,,---,0.00,VWS V14.00,2013-05-23 10:21:00,
2013-05-23 05:22:00,59.0,57.3,29.98,SW,225,1.0,1.0,94,0.00,,---,0.00,VWS V14.00,2013-05-23 10:22:00,
2013-05-23 05:23:00,59.0,57.0,29.98,SSW,202,0.0,2.0,93,0.00,,---,0.00,VWS V14.00,2013-05-23 10:23:00,
2013-05-23 05:24:00,59.0,57.0,29.98,SSW,202,0.0,0.0,93,0.00,,---,0.00,VWS V14.00,2013-05-23 10:24:00,
2013-05-23 05:25:00,59.0,57.0,29.98,SSW,202,0.0,0.0,93,0.00,,---,0.00,VWS V14.00,2013-05-23 10:25:00,
2013-05-23 05:26:00,59.0,57.0,29.98,SSW,202,0.0,0.0,93,0.00,,---,0.00,VWS V14.00,2013-05-23 10:26:00,
2013-05-23 05:27:00,59.0,57.0,29.98,SW,225,0.0,0.0,93,0.00,,---,0.00,VWS V14.00,2013-05-23 10:27:00,
2013-05-23 05:28:00,60.0,58.0,29.98,SW,225,0.0,0.0,93,0.00,,---,0.00,VWS V14.00,2013-05-23 10:28:00,
2013-05-23 05:29:00,60.0,58.0,29.98,SW,225,0.0,0.0,93,0.00,,---,0.00,VWS V14.00,2013-05-23 10:29:00,
2013-05-23 05:30:00,60.0,58.0,29.98,SSW,202,0.0,0.0,93,0.00,,---,0.00,VWS V14.00,2013-05-23 10:30:00,
2013-05-23 05:31:00,60.0,58.0,29.98,South,180,0.0,0.0,93,0.00,,---,0.00,VWS V14.00,2013-05-23 10:31:00,
2013-05-23 05:32:00,60.0,58.0,29.99,South,180,0.0,0.0,93,0.00,,---,0.00,VWS V14.00,2013-05-23 10:32:00,
2013-05-23 05:33:00,60.0,58.0,29.99,SSW,202,0.0,0.0,93,0.00,,---,0.00,VWS V14.00,2013-05-23 10:33:00,
2013-05-23 05:34:00,60.0,58.0,29.98,SSW,202,0.0,0.0,93,0.00,,---,0.00,VWS V14.00,2013-05-23 10:34:00,
2013-05-23 05:35:00,60.0,58.0,29.99,SSW,202,0.0,0.0,93,0.00,,---,0.00,VWS V14.00,2013-05-23 10:35:00,
2013-05-23 05:36:00,60.0,58.0,29.99,South,180,0.0,0.0,93,0.00,,---,0.00,VWS V14.00,2013-05-23 10:36:00,
2013-05-23 05:37:00,60.0,58.0,29.99,SSW,202,0.0,0.0,93,0.00,,---,0.00,VWS V14.00,2013-05-23 10:37:00,
2013-05-23 05:38:00,60.0,58.0,29.99,SSW,202,0.0,0.0,93,0.00,,---,0.00,VWS V14.00,2013-05-23 10:38:00,
2013-05-23 05:39:00,59.0,57.0,29.99,SSW,202,0.0,0.0,93,0.00,,---,0.00,VWS V14.00,2013-05-23 10:39:00,
2013-05-23 05:40:00,60.0,58.0,29.99,SSW,202,0.0,0.0,93,0.00,,---,0.00,VWS V14.00,2013-05-23 10:40:00,
2013-05-23 05:41:00,60.0,58.0,29.99,SSW,202,0.0,0.0,93,0.00,,---,0.00,VWS V14.00,2013-05-23 10:41:00,
2013-05-23 05:42:00,59.0,57.0,29.99,SSW,202,0.0,0.0,93,0.00,,---,0.00,VWS V14.00,2013-05-23 10:42:00,
2013-05-23 05:43:00,59.0,57.0,29.99,SSW,202,3.0,4.0,93,0.00,,---,0.00,VWS V14.00,2013-05-23 10:43:00,
2013-05-23 05:44:00,60.0,58.0,29.99,SSW,202,2.0,3.0,93,0.00,,---,0.00,VWS V14.00,2013-05-23 10:44:00,
2013-05-23 05:45:00,60.0,58.0,29.99,SSW,202,1.0,3.0,93,0.00,,---,0.00,VWS V14.00,2013-05-23 10:45:00,
2013-05-23 05:46:00,60.0,58.0,29.99,South,180,2.0,2.0,93,0.00,,---,0.00,VWS V14.00,2013-05-23 10:46:00,
2013-05-23 05:47:00,60.0,58.0,29.99,South,180,2.0,3.0,93,0.00,,---,0.00,VWS V14.00,2013-05-23 10:47:00,
2013-05-23 05:48:00,60.0,58.0,29.99,SSE,158,2.0,3.0,93,0.00,,---,0.00,VWS V14.00,2013-05-23 10:48:00,
2013-05-23 05:49:00,60.0,58.0,29.99,South,180,2.0,3.0,93,0.00,,---,0.00,VWS V14.00,2013-05-23 10:49:00,
2013-05-23 05:50:00,60.0,58.0,29.99,South,180,3.0,3.0,93,0.00,,---,0.00,VWS V14.00,2013-05-23 10:50:00,
2013-05-23 05:51:00,60.0,58.0,29.99,South,180,3.0,3.0,93,0.00,,---,0.00,VWS V14.00,2013-05-23 10:51:00,
2013-05-23 05:52:00,60.0,58.0,29.99,South,180,2.0,2.0,93,0.00,,---,0.00,VWS V14.00,2013-05-23 10:52:00,
2013-05-23 05:53:00,60.0,58.0,29.99,SSE,158,3.0,3.0,93,0.00,,---,0.00,VWS V14.00,2013-05-23 10:53:00,
2013-05-23 05:54:00,60.0,58.0,29.99,South,180,2.0,2.0,93,0.00,,---,0.00,VWS V14.00,2013-05-23 10:54:00,
2013-05-23 05:55:00,60.0,58.0,29.99,SSW,202,3.0,3.0,93,0.00,,---,0.00,VWS V14.00,2013-05-23 10:55:00,
2013-05-23 05:56:00,60.0,58.0,29.99,SSW,202,2.0,3.0,93,0.00,,---,0.00,VWS V14.00,2013-05-23 10:56:00,
2013-05-23 05:57:00,60.0,58.0,29.99,SSW,202,2.0,3.0,93,0.00,,---,0.00,VWS V14.00,2013-05-23 10:57:00,
2013-05-23 05:58:00,60.0,58.0,29.99,SSW,202,3.0,3.0,93,0.00,,---,0.00,VWS V14.00,2013-05-23 10:58:00,
2013-05-23 05:59:00,60.0,58.0,29.99,SSW,202,2.0,3.0,93,0.00,,---,0.00,VWS V14.00,2013-05-23 10:59:00,
2013-05-23 06:00:00,61.0,59.0,29.99,SSW,202,2.0,3.0,93,0.00,,---,0.00,VWS V14.00,2013-05-23 11:00:00,
2013-05-23 06:01:00,61.0,59.0,30.00,SSW,202,3.0,3.0,93,0.00,,---,0.00,VWS V14.00,2013-05-23 11:01:00,
2013-05-23 06:02:00,61.0,59.0,29.99,SSW,202,3.0,4.0,93,0.00,,---,0.00,VWS V14.00,2013-05-23 11:02:00,
2013-05-23 06:03:00,61.0,59.0,29.99,SSW,202,3.0,3.0,93,0.00,,---,0.00,VWS V14.00,2013-05-23 11:03:00,
2013-05-23 06:04:00,61.0,59.0,29.99,SSW,202,2.0,3.0,93,0.00,,---,0.00,VWS V14.00,2013-05-23 11:04:00,
2013-05-23 06:05:00,61.0,59.3,30.00,SSW,202,3.0,3.0,94,0.00,,---,0.00,VWS V14.00,2013-05-23 11:05:00,
2013-05-23 06:06:00,61.0,59.3,30.00,SSW,202,3.0,3.0,94,0.00,,---,0.00,VWS V14.00,2013-05-23 11:06:00,
2013-05-23 06:07:00,61.0,59.3,30.00,SSW,202,3.0,3.0,94,0.00,,---,0.00,VWS V14.00,2013-05-23 11:07:00,
2013-05-23 06:08:00,61.0,59.3,30.00,SSW,202,3.0,3.0,94,0.00,,---,0.00,VWS V14.00,2013-05-23 11:08:00,
2013-05-23 06:09:00,61.0,59.3,30.00,South,180,0.0,3.0,94,0.00,,---,0.00,VWS V14.00,2013-05-23 11:09:00,
2013-05-23 06:10:00,61.0,59.3,30.00,South,180,0.0,1.0,94,0.00,,---,0.00,VWS V14.00,2013-05-23 11:10:00,
2013-05-23 06:11:00,61.0,59.3,30.00,SSW,202,0.0,1.0,94,0.00,,---,0.00,VWS V14.00,2013-05-23 11:11:00,
2013-05-23 06:12:00,61.0,59.3,30.00,South,180,0.0,1.0,94,0.00,,---,0.00,VWS V14.00,2013-05-23 11:12:00,
2013-05-23 06:13:00,61.0,59.0,30.00,SSW,202,0.0,2.0,93,0.00,,---,0.00,VWS V14.00,2013-05-23 11:13:00,
2013-05-23 06:14:00,62.0,60.0,30.00,SSW,202,3.0,3.0,93,0.00,,---,0.00,VWS V14.00,2013-05-23 11:14:00,
2013-05-23 06:15:00,62.0,60.0,30.00,South,180,2.0,4.0,93,0.00,,---,0.00,VWS V14.00,2013-05-23 11:15:00,
2013-05-23 06:16:00,62.0,60.0,30.00,SSW,202,3.0,5.0,93,0.00,,---,0.00,VWS V14.00,2013-05-23 11:16:00,
2013-05-23 06:17:00,62.0,60.0,30.00,SSW,202,3.0,5.0,93,0.00,,---,0.00,VWS V14.00,2013-05-23 11:17:00,
2013-05-23 06:18:00,62.0,60.0,30.00,SW,225,4.0,5.0,93,0.00,,---,0.00,VWS V14.00,2013-05-23 11:18:00,
2013-05-23 06:19:00,62.0,59.7,30.00,SW,225,3.0,5.0,92,0.00,,---,0.00,VWS V14.00,2013-05-23 11:19:00,
2013-05-23 06:20:00,62.0,59.7,30.00,SW,225,3.0,3.0,92,0.00,,---,0.00,VWS V14.00,2013-05-23 11:20:00,
2013-05-23 06:21:00,62.0,59.7,30.00,SW,225,4.0,5.0,92,0.00,,---,0.00,VWS V14.00,2013-05-23 11:21:00,
2013-05-23 06:22:00,62.0,59.7,30.00,SW,225,3.0,5.0,92,0.00,,---,0.00,VWS V14.00,2013-05-23 11:22:00,
2013-05-23 06:23:00,62.0,59.3,30.00,SSW,202,4.0,5.0,91,0.00,,---,0.00,VWS V14.00,2013-05-23 11:23:00,
2013-05-23 06:24:00,63.0,60.3,30.00,SSW,202,4.0,4.0,91,0.00,,---,0.00,VWS V14.00,2013-05-23 11:24:00,
2013-05-23 06:25:00,63.0,60.3,30.00,SW,225,3.0,5.0,91,0.00,,---,0.00,VWS V14.00,2013-05-23 11:25:00,
2013-05-23 06:26:00,63.0,60.3,30.00,SSW,202,4.0,5.0,91,0.00,,---,0.00,VWS V14.00,2013-05-23 11:26:00,
2013-05-23 06:27:00,63.0,60.3,30.00,SSW,202,1.0,5.0,91,0.00,,---,0.00,VWS V14.00,2013-05-23 11:27:00,
2013-05-23 06:28:00,63.0,60.3,30.00,SW,225,0.0,1.0,91,0.00,,---,0.00,VWS V14.00,2013-05-23 11:28:00,
2013-05-23 06:29:00,63.0,60.3,30.00,SW,225,3.0,4.0,91,0.00,,---,0.00,VWS V14.00,2013-05-23 11:29:00,
2013-05-23 06:30:00,63.0,60.0,30.00,SW,225,2.0,3.0,90,0.00,,---,0.00,VWS V14.00,2013-05-23 11:30:00,
2013-05-23 06:31:00,63.0,60.0,30.00,SW,225,3.0,3.0,90,0.00,,---,0.00,VWS V14.00,2013-05-23 11:31:00,
2013-05-23 06:32:00,63.0,60.0,30.00,SW,225,3.0,3.0,90,0.00,,---,0.00,VWS V14.00,2013-05-23 11:32:00,
2013-05-23 06:33:00,63.0,60.0,30.00,SSW,202,2.0,3.0,90,0.00,,---,0.00,VWS V14.00,2013-05-23 11:33:00,
2013-05-23 06:34:00,64.0,61.0,30.00,SW,225,3.0,3.0,90,0.00,,---,0.00,VWS V14.00,2013-05-23 11:34:00,
2013-05-23 06:35:00,64.0,61.0,30.00,SW,225,3.0,4.0,90,0.00,,---,0.00,VWS V14.00,2013-05-23 11:35:00,
2013-05-23 06:36:00,64.0,61.0,30.00,WSW,248,3.0,3.0,90,0.00,,---,0.00,VWS V14.00,2013-05-23 11:36:00,
2013-05-23 06:37:00,64.0,60.7,30.00,West,270,5.0,5.0,89,0.00,,---,0.00,VWS V14.00,2013-05-23 11:37:00,
2013-05-23 06:38:00,64.0,60.7,30.00,SW,225,3.0,5.0,89,0.00,,---,0.00,VWS V14.00,2013-05-23 11:38:00,
2013-05-23 06:39:00,64.0,61.0,30.00,WSW,248,3.0,4.0,90,0.00,,---,0.00,VWS V14.00,2013-05-23 11:39:00,
2013-05-23 06:40:00,64.0,61.0,30.00,WSW,248,3.0,4.0,90,0.00,,---,0.00,VWS V14.00,2013-05-23 11:40:00,
2013-05-23 06:41:00,64.0,60.7,30.00,WSW,248,3.0,3.0,89,0.00,,---,0.00,VWS V14.00,2013-05-23 11:41:00,
2013-05-23 06:42:00,64.0,60.7,30.00,SW,225,5.0,6.0,89,0.00,,---,0.00,VWS V14.00,2013-05-23 11:42:00,
2013-05-23 06:43:00,64.0,60.7,30.00,SW,225,4.0,5.0,89,0.00,,---,0.00,VWS V14.00,2013-05-23 11:43:00,
2013-05-23 06:44:00,64.0,60.4,30.00,WSW,248,3.0,5.0,88,0.00,,---,0.00,VWS V14.00,2013-05-23 11:44:00,
2013-05-23 06:45:00,64.0,60.4,30.01,SW,225,5.0,5.0,88,0.00,,---,0.00,VWS V14.00,2013-05-23 11:45:00,
2013-05-23 06:46:00,64.0,60.1,30.00,SSW,202,5.0,6.0,87,0.00,,---,0.00,VWS V14.00,2013-05-23 11:46:00,
2013-05-23 06:47:00,64.0,60.1,30.00,SW,225,5.0,6.0,87,0.00,,---,0.00,VWS V14.00,2013-05-23 11:47:00,
2013-05-23 06:48:00,64.0,60.1,30.01,SW,225,5.0,6.0,87,0.00,,---,0.00,VWS V14.00,2013-05-23 11:48:00,
2013-05-23 06:49:00,64.0,59.7,30.01,WSW,248,5.0,5.0,86,0.00,,---,0.00,VWS V14.00,2013-05-23 11:49:00,
2013-05-23 06:50:00,64.0,59.7,30.01,West,270,5.0,6.0,86,0.00,,---,0.00,VWS V14.00,2013-05-23 11:50:00,
2013-05-23 06:51:00,64.0,59.7,30.00,WSW,248,2.0,5.0,86,0.00,,---,0.00,VWS V14.00,2013-05-23 11:51:00,
2013-05-23 06:52:00,65.0,60.7,30.00,West,270,3.0,4.0,86,0.00,,---,0.00,VWS V14.00,2013-05-23 11:52:00,
2013-05-23 06:53:00,65.0,61.0,30.00,WSW,248,4.0,5.0,87,0.00,,---,0.00,VWS V14.00,2013-05-23 11:53:00,
2013-05-23 06:54:00,65.0,60.7,30.00,SW,225,5.0,7.0,86,0.00,,---,0.00,VWS V14.00,2013-05-23 11:54:00,
2013-05-23 06:55:00,65.0,60.4,30.01,WSW,248,1.0,5.0,85,0.00,,---,0.00,VWS V14.00,2013-05-23 11:55:00,
2013-05-23 06:56:00,65.0,60.4,30.01,WSW,248,6.0,7.0,85,0.00,,---,0.00,VWS V14.00,2013-05-23 11:56:00,
2013-05-23 06:57:00,65.0,60.0,30.00,SW,225,6.0,6.0,84,0.00,,---,0.00,VWS V14.00,2013-05-23 11:57:00,
2013-05-23 06:58:00,65.0,60.0,30.01,WSW,248,3.0,6.0,84,0.00,,---,0.00,VWS V14.00,2013-05-23 11:58:00,
2013-05-23 06:59:00,65.0,60.0,30.01,West,270,6.0,6.0,84,0.00,,---,0.00,VWS V14.00,2013-05-23 11:59:00,
2013-05-23 07:00:00,65.0,60.0,30.00,SW,225,6.0,7.0,84,0.00,,---,0.00,VWS V14.00,2013-05-23 12:00:00,
2013-05-23 07:01:00,65.0,60.0,30.01,West,270,0.0,6.0,84,0.00,,---,0.00,VWS V14.00,2013-05-23 12:01:00,
2013-05-23 07:02:00,65.0,60.0,30.01,WSW,248,6.0,7.0,84,0.00,,---,0.00,VWS V14.00,2013-05-23 12:02:00,
2013-05-23 07:03:00,65.0,59.7,30.01,WSW,248,6.0,8.0,83,0.00,,---,0.00,VWS V14.00,2013-05-23 12:03:00,
2013-05-23 07:04:00,65.0,59.7,30.01,WSW,248,4.0,6.0,83,0.00,,---,0.00,VWS V14.00,2013-05-23 12:04:00,
2013-05-23 07:05:00,65.0,60.0,30.01,WSW,248,7.0,8.0,84,0.00,,---,0.00,VWS V14.00,2013-05-23 12:05:00,
2013-05-23 07:06:00,65.0,59.4,30.01,West,270,8.0,9.0,82,0.00,,---,0.00,VWS V14.00,2013-05-23 12:06:00,
2013-05-23 07:07:00,65.0,59.4,30.01,West,270,8.0,10.0,82,0.00,,---,0.00,VWS V14.00,2013-05-23 12:07:00,
2013-05-23 07:08:00,65.0,59.4,30.01,WNW,292,6.0,8.0,82,0.00,,---,0.00,VWS V14.00,2013-05-23 12:08:00,
2013-05-23 07:09:00,65.0,59.4,30.01,SW,225,5.0,7.0,82,0.00,,---,0.00,VWS V14.00,2013-05-23 12:09:00,
2013-05-23 07:10:00,65.0,59.0,30.01,WSW,248,8.0,9.0,81,0.00,,---,0.00,VWS V14.00,2013-05-23 12:10:00,
2013-05-23 07:11:00,65.0,58.7,30.01,WSW,248,6.0,10.0,80,0.00,,---,0.00,VWS V14.00,2013-05-23 12:11:00,
2013-05-23 07:12:00,65.0,58.7,30.01,West,270,6.0,7.0,80,0.00,,---,0.00,VWS V14.00,2013-05-23 12:12:00,
2013-05-23 07:13:00,65.0,59.0,30.01,WSW,248,3.0,3.0,81,0.00,,---,0.00,VWS V14.00,2013-05-23 12:13:00,
2013-05-23 07:14:00,65.0,59.0,30.01,WSW,248,7.0,8.0,81,0.00,,---,0.00,VWS V14.00,2013-05-23 12:14:00,
2013-05-23 07:15:00,65.0,59.0,30.01,WSW,248,5.0,5.0,81,0.00,,---,0.00,VWS V14.00,2013-05-23 12:15:00,
2013-05-23 07:16:00,65.0,59.4,30.01,West,270,8.0,9.0,82,0.00,,---,0.00,VWS V14.00,2013-05-23 12:16:00,
2013-05-23 07:17:00,65.0,59.0,30.01,West,270,6.0,9.0,81,0.00,,---,0.00,VWS V14.00,2013-05-23 12:17:00,
2013-05-23 07:18:00,65.0,59.0,30.01,WSW,248,4.0,4.0,81,0.00,,---,0.00,VWS V14.00,2013-05-23 12:18:00,
2013-05-23 07:19:00,65.0,59.4,30.01,WSW,248,6.0,7.0,82,0.00,,---,0.00,VWS V14.00,2013-05-23 12:19:00,
2013-05-23 07:20:00,65.0,59.4,30.01,West,270,7.0,7.0,82,0.00,,---,0.00,VWS V14.00,2013-05-23 12:20:00,
2013-05-23 07:21:00,66.0,60.7,30.01,West,270,6.0,8.0,83,0.00,,---,0.00,VWS V14.00,2013-05-23 12:21:00,
2013-05-23 07:22:00,65.0,59.4,30.01,WSW,248,6.0,10.0,82,0.00,,---,0.00,VWS V14.00,2013-05-23 12:22:00,
2013-05-23 07:23:00,66.0,60.3,30.01,West,270,8.0,9.0,82,0.00,,---,0.00,VWS V14.00,2013-05-23 12:23:00,
2013-05-23 07:24:00,65.0,58.7,30.01,West,270,8.0,10.0,80,0.00,,---,0.00,VWS V14.00,2013-05-23 12:24:00,
2013-05-23 07:25:00,65.0,59.0,30.01,WSW,248,6.0,8.0,81,0.00,,---,0.00,VWS V14.00,2013-05-23 12:25:00,
2013-05-23 07:26:00,65.0,59.0,30.01,West,270,8.0,10.0,81,0.00,,---,0.00,VWS V14.00,2013-05-23 12:26:00,
2013-05-23 07:27:00,65.0,58.7,30.02,WSW,248,10.0,12.0,80,0.00,,---,0.00,VWS V14.00,2013-05-23 12:27:00,
2013-05-23 07:28:00,65.0,58.3,30.01,WSW,248,8.0,11.0,79,0.00,,---,0.00,VWS V14.00,2013-05-23 12:28:00,
2013-05-23 07:29:00,65.0,58.3,30.02,West,270,7.0,10.0,79,0.00,,---,0.00,VWS V14.00,2013-05-23 12:29:00,
2013-05-23 07:30:00,65.0,58.7,30.02,West,270,8.0,9.0,80,0.00,,---,0.00,VWS V14.00,2013-05-23 12:30:00,
2013-05-23 07:31:00,65.0,58.7,30.02,West,270,9.0,10.0,80,0.00,,---,0.00,VWS V14.00,2013-05-23 12:31:00,
2013-05-23 07:32:00,65.0,58.7,30.02,WSW,248,11.0,12.0,80,0.00,,---,0.00,VWS V14.00,2013-05-23 12:32:00,
2013-05-23 07:33:00,65.0,58.3,30.02,West,270,9.0,12.0,79,0.00,,---,0.00,VWS V14.00,2013-05-23 12:33:00,
2013-05-23 07:34:00,66.0,59.7,30.02,WSW,248,8.0,10.0,80,0.00,,---,0.00,VWS V14.00,2013-05-23 12:34:00,
2013-05-23 07:35:00,66.0,59.7,30.02,WSW,248,8.0,10.0,80,0.00,,---,0.00,VWS V14.00,2013-05-23 12:35:00,
2013-05-23 07:36:00,66.0,59.7,30.02,WSW,248,7.0,10.0,80,0.00,,---,0.00,VWS V14.00,2013-05-23 12:36:00,
2013-05-23 07:37:00,65.0,58.7,30.02,West,270,5.0,5.0,80,0.00,,---,0.00,VWS V14.00,2013-05-23 12:37:00,
2013-05-23 07:38:00,66.0,59.7,30.02,WNW,292,6.0,8.0,80,0.00,,---,0.00,VWS V14.00,2013-05-23 12:38:00,
2013-05-23 07:39:00,65.0,58.3,30.02,West,270,9.0,11.0,79,0.00,,---,0.00,VWS V14.00,2013-05-23 12:39:00,
2013-05-23 07:40:00,65.0,58.0,30.02,WNW,292,6.0,10.0,78,0.00,,---,0.00,VWS V14.00,2013-05-23 12:40:00,
2013-05-23 07:41:00,66.0,59.0,30.02,WSW,248,8.0,10.0,78,0.00,,---,0.00,VWS V14.00,2013-05-23 12:41:00,
2013-05-23 07:42:00,66.0,59.0,30.02,WSW,248,11.0,11.0,78,0.00,,---,0.00,VWS V14.00,2013-05-23 12:42:00,
2013-05-23 07:43:00,66.0,58.6,30.02,West,270,11.0,11.0,77,0.00,,---,0.00,VWS V14.00,2013-05-23 12:43:00,
2013-05-23 07:44:00,66.0,58.6,30.02,West,270,8.0,11.0,77,0.00,,---,0.00,VWS V14.00,2013-05-23 12:44:00,
2013-05-23 07:45:00,66.0,59.3,30.02,WNW,292,8.0,12.0,79,0.00,,---,0.00,VWS V14.00,2013-05-23 12:45:00,
2013-05-23 07:46:00,66.0,59.3,30.02,WNW,292,6.0,9.0,79,0.00,,---,0.00,VWS V14.00,2013-05-23 12:46:00,
2013-05-23 07:47:00,66.0,59.3,30.02,West,270,7.0,8.0,79,0.00,,---,0.00,VWS V14.00,2013-05-23 12:47:00,
2013-05-23 07:48:00,67.0,60.6,30.02,WSW,248,7.0,8.0,80,0.00,,---,0.00,VWS V14.00,2013-05-23 12:48:00,
2013-05-23 07:49:00,66.0,59.3,30.02,West,270,10.0,10.0,79,0.00,,---,0.00,VWS V14.00,2013-05-23 12:49:00,
2013-05-23 07:50:00,66.0,58.2,30.02,WNW,292,5.0,10.0,76,0.00,,---,0.00,VWS V14.00,2013-05-23 12:50:00,
2013-05-23 07:51:00,66.0,58.6,30.02,West,270,6.0,9.0,77,0.00,,---,0.00,VWS V14.00,2013-05-23 12:51:00,
2013-05-23 07:52:00,66.0,59.0,30.02,West,270,5.0,9.0,78,0.00,,---,0.00,VWS V14.00,2013-05-23 12:52:00,
2013-05-23 07:53:00,67.0,60.3,30.02,WSW,248,7.0,10.0,79,0.00,,---,0.00,VWS V14.00,2013-05-23 12:53:00,
2013-05-23 07:54:00,67.0,60.3,30.02,West,270,7.0,9.0,79,0.00,,---,0.00,VWS V14.00,2013-05-23 12:54:00,
2013-05-23 07:55:00,66.0,59.3,30.02,West,270,7.0,9.0,79,0.00,,---,0.00,VWS V14.00,2013-05-23 12:55:00,
2013-05-23 07:56:00,66.0,59.0,30.02,West,270,6.0,11.0,78,0.00,,---,0.00,VWS V14.00,2013-05-23 12:56:00,
2013-05-23 07:57:00,66.0,58.6,30.02,West,270,9.0,11.0,77,0.00,,---,0.00,VWS V14.00,2013-05-23 12:57:00,
2013-05-23 07:58:00,66.0,58.6,30.02,WSW,248,8.0,11.0,77,0.00,,---,0.00,VWS V14.00,2013-05-23 12:58:00,
2013-05-23 07:59:00,66.0,58.6,30.02,WSW,248,9.0,11.0,77,0.00,,---,0.00,VWS V14.00,2013-05-23 12:59:00,
2013-05-23 08:00:00,66.0,58.2,30.02,West,270,10.0,10.0,76,0.00,,---,0.00,VWS V14.00,2013-05-23 13:00:00,
2013-05-23 08:01:00,66.0,58.6,30.02,West,270,7.0,10.0,77,0.00,,---,0.00,VWS V14.00,2013-05-23 13:01:00,
2013-05-23 08:02:00,66.0,59.0,30.02,WSW,248,8.0,9.0,78,0.00,,---,0.00,VWS V14.00,2013-05-23 13:02:00,
2013-05-23 08:03:00,66.0,58.6,30.02,West,270,8.0,10.0,77,0.00,,---,0.00,VWS V14.00,2013-05-23 13:03:00,
2013-05-23 08:04:00,66.0,58.2,30.02,WSW,248,10.0,10.0,76,0.00,,---,0.00,VWS V14.00,2013-05-23 13:04:00,
2013-05-23 08:05:00,66.0,57.9,30.02,WSW,248,11.0,11.0,75,0.00,,---,0.00,VWS V14.00,2013-05-23 13:05:00,
2013-05-23 08:06:00,66.0,57.9,30.02,West,270,11.0,11.0,75,0.00,,---,0.00,VWS V14.00,2013-05-23 13:06:00,
2013-05-23 08:07:00,66.0,57.5,30.02,WSW,248,6.0,11.0,74,0.00,,---,0.00,VWS V14.00,2013-05-23 13:07:00,
2013-05-23 08:08:00,67.0,58.8,30.02,West,270,6.0,9.0,75,0.00,,---,0.00,VWS V14.00,2013-05-23 13:08:00,
2013-05-23 08:09:00,66.0,57.5,30.02,West,270,7.0,10.0,74,0.00,,---,0.00,VWS V14.00,2013-05-23 13:09:00,
2013-05-23 08:10:00,67.0,58.5,30.03,West,270,6.0,10.0,74,0.00,,---,0.00,VWS V14.00,2013-05-23 13:10:00,
2013-05-23 08:11:00,67.0,58.8,30.02,West,270,5.0,9.0,75,0.00,,---,0.00,VWS V14.00,2013-05-23 13:11:00,
2013-05-23 08:12:00,66.0,57.9,30.03,West,270,7.0,8.0,75,0.00,,---,0.00,VWS V14.00,2013-05-23 13:12:00,
2013-05-23 08:13:00,67.0,58.8,30.03,WSW,248,6.0,8.0,75,0.00,,---,0.00,VWS V14.00,2013-05-23 13:13:00,
2013-05-23 08:14:00,67.0,58.8,30.03,West,270,6.0,8.0,75,0.00,,---,0.00,VWS V14.00,2013-05-23 13:14:00,
2013-05-23 08:15:00,66.0,57.5,30.02,WSW,248,8.0,10.0,74,0.00,,---,0.00,VWS V14.00,2013-05-23 13:15:00,
2013-05-23 08:16:00,66.0,57.5,30.02,West,270,8.0,11.0,74,0.00,,---,0.00,VWS V14.00,2013-05-23 13:16:00,
2013-05-23 08:17:00,66.0,57.5,30.02,WSW,248,8.0,10.0,74,0.00,,---,0.00,VWS V14.00,2013-05-23 13:17:00,
2013-05-23 08:18:00,66.0,57.5,30.02,WSW,248,7.0,8.0,74,0.00,,---,0.00,VWS V14.00,2013-05-23 13:18:00,
2013-05-23 08:19:00,67.0,58.8,30.02,West,270,8.0,11.0,75,0.00,,---,0.00,VWS V14.00,2013-05-23 13:19:00,
2013-05-23 08:20:00,67.0,58.8,30.02,WSW,248,5.0,8.0,75,0.00,,---,0.00,VWS V14.00,2013-05-23 13:20:00,
2013-05-23 08:21:00,67.0,58.8,30.02,WSW,248,6.0,6.0,75,0.00,,---,0.00,VWS V14.00,2013-05-23 13:21:00,
2013-05-23 08:22:00,67.0,58.8,30.02,WSW,248,6.0,6.0,75,0.00,,---,0.00,VWS V14.00,2013-05-23 13:22:00,
2013-05-23 08:23:00,66.0,57.5,30.02,WSW,248,8.0,9.0,74,0.00,,---,0.00,VWS V14.00,2013-05-23 13:23:00,
2013-05-23 08:24:00,66.0,57.5,30.02,WSW,248,8.0,9.0,74,0.00,,---,0.00,VWS V14.00,2013-05-23 13:24:00,
2013-05-23 08:25:00,66.0,57.9,30.02,WSW,248,7.0,9.0,75,0.00,,---,0.00,VWS V14.00,2013-05-23 13:25:00,
2013-05-23 08:26:00,66.0,57.9,30.02,West,270,8.0,9.0,75,0.00,,---,0.00,VWS V14.00,2013-05-23 13:26:00,
2013-05-23 08:27:00,66.0,57.9,30.03,WSW,248,6.0,9.0,75,0.00,,---,0.00,VWS V14.00,2013-05-23 13:27:00,
2013-05-23 08:28:00,67.0,59.6,30.03,WSW,248,6.0,6.0,77,0.00,,---,0.00,VWS V14.00,2013-05-23 13:28:00,
2013-05-23 08:29:00,67.0,58.8,30.03,SW,225,7.0,8.0,75,0.00,,---,0.00,VWS V14.00,2013-05-23 13:29:00,
2013-05-23 08:30:00,67.0,58.8,30.02,SW,225,6.0,8.0,75,0.00,,---,0.00,VWS V14.00,2013-05-23 13:30:00,
2013-05-23 08:31:00,67.0,59.2,30.02,SW,225,6.0,10.0,76,0.00,,---,0.00,VWS V14.00,2013-05-23 13:31:00,
2013-05-23 08:32:00,67.0,58.8,30.02,WSW,248,10.0,10.0,75,0.00,,---,0.00,VWS V14.00,2013-05-23 13:32:00,
2013-05-23 08:33:00,67.0,58.8,30.03,WSW,248,6.0,10.0,75,0.00,,---,0.00,VWS V14.00,2013-05-23 13:33:00,
2013-05-23 08:34:00,67.0,59.2,30.03,WSW,248,8.0,8.0,76,0.00,,---,0.00,VWS V14.00,2013-05-23 13:34:00,
2013-05-23 08:35:00,67.0,59.2,30.02,WSW,248,7.0,10.0,76,0.00,,---,0.00,VWS V14.00,2013-05-23 13:35:00,
2013-05-23 08:36:00,67.0,58.8,30.02,West,270,8.0,10.0,75,0.00,,---,0.00,VWS V14.00,2013-05-23 13:36:00,
2013-05-23 08:37:00,67.0,58.5,30.02,WSW,248,9.0,9.0,74,0.00,,---,0.00,VWS V14.00,2013-05-23 13:37:00,
2013-05-23 08:38:00,67.0,58.8,30.03,WSW,248,8.0,9.0,75,0.00,,---,0.00,VWS V14.00,2013-05-23 13:38:00,
2013-05-23 08:39:00,67.0,59.2,30.03,WSW,248,8.0,8.0,76,0.00,,---,0.00,VWS V14.00,2013-05-23 13:39:00,
2013-05-23 08:40:00,67.0,58.8,30.03,WSW,248,8.0,8.0,75,0.00,,---,0.00,VWS V14.00,2013-05-23 13:40:00,
2013-05-23 08:41:00,67.0,58.5,30.02,WSW,248,6.0,9.0,74,0.00,,---,0.00,VWS V14.00,2013-05-23 13:41:00,
2013-05-23 08:42:00,67.0,58.8,30.02,SW,225,6.0,6.0,75,0.00,,---,0.00,VWS V14.00,2013-05-23 13:42:00,
2013-05-23 08:43:00,67.0,58.5,30.02,WSW,248,5.0,11.0,74,0.00,,---,0.00,VWS V14.00,2013-05-23 13:43:00,
2013-05-23 08:44:00,67.0,58.5,30.02,WNW,292,5.0,8.0,74,0.00,,---,0.00,VWS V14.00,2013-05-23 13:44:00,
2013-05-23 08:45:00,67.0,58.5,30.02,West,270,7.0,10.0,74,0.00,,---,0.00,VWS V14.00,2013-05-23 13:45:00,
2013-05-23 08:46:00,67.0,58.5,30.02,West,270,8.0,8.0,74,0.00,,---,0.00,VWS V14.00,2013-05-23 13:46:00,
2013-05-23 08:47:00,67.0,58.1,30.02,WSW,248,8.0,8.0,73,0.00,,---,0.00,VWS V14.00,2013-05-23 13:47:00,
2013-05-23 08:48:00,67.0,58.1,30.02,WSW,248,8.0,9.0,73,0.00,,---,0.00,VWS V14.00,2013-05-23 13:48:00,
2013-05-23 08:49:00,67.0,57.7,30.02,West,270,8.0,10.0,72,0.00,,---,0.00,VWS V14.00,2013-05-23 13:49:00,
2013-05-23 08:50:00,67.0,57.7,30.02,West,270,10.0,10.0,72,0.00,,---,0.00,VWS V14.00,2013-05-23 13:50:00,
2013-05-23 08:51:00,67.0,57.3,30.02,WNW,292,11.0,11.0,71,0.00,,---,0.00,VWS V14.00,2013-05-23 13:51:00,
2013-05-23 08:52:00,66.0,56.3,30.02,WNW,292,8.0,8.0,71,0.00,,---,0.00,VWS V14.00,2013-05-23 13:52:00,
2013-05-23 08:53:00,66.0,56.3,30.02,West,270,10.0,10.0,71,0.00,,---,0.00,VWS V14.00,2013-05-23 13:53:00,
2013-05-23 08:54:00,67.0,56.9,30.02,West,270,8.0,9.0,70,0.00,,---,0.00,VWS V14.00,2013-05-23 13:54:00,
2013-05-23 08:55:00,67.0,57.3,30.02,WNW,292,6.0,10.0,71,0.00,,---,0.00,VWS V14.00,2013-05-23 13:55:00,
2013-05-23 08:56:00,67.0,57.7,30.03,West,270,8.0,9.0,72,0.00,,---,0.00,VWS V14.00,2013-05-23 13:56:00,
2013-05-23 08:57:00,67.0,57.7,30.02,WSW,248,8.0,10.0,72,0.00,,---,0.00,VWS V14.00,2013-05-23 13:57:00,
2013-05-23 08:58:00,67.0,57.7,30.02,WSW,248,8.0,8.0,72,0.00,,---,0.00,VWS V14.00,2013-05-23 13:58:00,
2013-05-23 08:59:00,67.0,58.1,30.02,WSW,248,10.0,11.0,73,0.00,,---,0.00,VWS V14.00,2013-05-23 13:59:00,
2013-05-23 09:00:00,67.0,57.7,30.02,WSW,248,8.0,10.0,72,0.00,,---,0.00,VWS V14.00,2013-05-23 14:00:00,
2013-05-23 09:01:00,67.0,58.5,30.02,WSW,248,8.0,8.0,74,0.00,,---,0.00,VWS V14.00,2013-05-23 14:01:00,
2013-05-23 09:02:00,67.0,58.1,30.02,WSW,248,10.0,11.0,73,0.00,,---,0.00,VWS V14.00,2013-05-23 14:02:00,
2013-05-23 09:03:00,67.0,58.1,30.02,WSW,248,10.0,11.0,73,0.00,,---,0.00,VWS V14.00,2013-05-23 14:03:00,
2013-05-23 09:04:00,67.0,57.7,30.02,West,270,9.0,12.0,72,0.00,,---,0.00,VWS V14.00,2013-05-23 14:04:00,
2013-05-23 09:05:00,67.0,58.1,30.02,West,270,6.0,10.0,73,0.00,,---,0.00,VWS V14.00,2013-05-23 14:05:00,
2013-05-23 09:06:00,67.0,58.5,30.02,WSW,248,5.0,7.0,74,0.00,,---,0.00,VWS V14.00,2013-05-23 14:06:00,
2013-05-23 09:07:00,67.0,58.5,30.02,WSW,248,7.0,7.0,74,0.00,,---,0.00,VWS V14.00,2013-05-23 14:07:00,
2013-05-23 09:08:00,67.0,58.1,30.03,WSW,248,7.0,10.0,73,0.00,,---,0.00,VWS V14.00,2013-05-23 14:08:00,
2013-05-23 09:09:00,67.0,58.1,30.02,West,270,6.0,9.0,73,0.00,,---,0.00,VWS V14.00,2013-05-23 14:09:00,
2013-05-23 09:10:00,67.0,58.1,30.02,West,270,8.0,8.0,73,0.00,,---,0.00,VWS V14.00,2013-05-23 14:10:00,
2013-05-23 09:11:00,67.0,58.1,30.02,West,270,12.0,13.0,73,0.00,,---,0.00,VWS V14.00,2013-05-23 14:11:00,
2013-05-23 09:12:00,67.0,58.1,30.02,WNW,292,8.0,8.0,73,0.00,,---,0.00,VWS V14.00,2013-05-23 14:12:00,
2013-05-23 09:13:00,67.0,58.1,30.02,WSW,248,7.0,11.0,73,0.00,,---,0.00,VWS V14.00,2013-05-23 14:13:00,
2013-05-23 09:14:00,67.0,58.1,30.02,West,270,6.0,6.0,73,0.00,,---,0.00,VWS V14.00,2013-05-23 14:14:00,
2013-05-23 09:15:00,67.0,57.7,30.02,WSW,248,12.0,13.0,72,0.00,,---,0.00,VWS V14.00,2013-05-23 14:15:00,
2013-05-23 09:16:00,67.0,57.3,30.02,WSW,248,10.0,13.0,71,0.00,,---,0.00,VWS V14.00,2013-05-23 14:16:00,
2013-05-23 09:17:00,67.0,57.3,30.02,West,270,10.0,11.0,71,0.00,,---,0.00,VWS V14.00,2013-05-23 14:17:00,
2013-05-23 09:18:00,67.0,57.7,30.02,West,270,7.0,8.0,72,0.00,,---,0.00,VWS V14.00,2013-05-23 14:18:00,
2013-05-23 09:19:00,67.0,57.7,30.02,West,270,6.0,8.0,72,0.00,,---,0.00,VWS V14.00,2013-05-23 14:19:00,
2013-05-23 09:20:00,67.0,57.7,30.02,West,270,7.0,10.0,72,0.00,,---,0.00,VWS V14.00,2013-05-23 14:20:00,
2013-05-23 09:21:00,67.0,57.7,30.02,West,270,6.0,7.0,72,0.00,,---,0.00,VWS V14.00,2013-05-23 14:21:00,
2013-05-23 09:22:00,67.0,57.3,30.02,SW,225,8.0,14.0,71,0.00,,---,0.00,VWS V14.00,2013-05-23 14:22:00,
2013-05-23 09:23:00,67.0,57.3,30.02,WSW,248,11.0,11.0,71,0.00,,---,0.00,VWS V14.00,2013-05-23 14:23:00,
2013-05-23 09:24:00,67.0,57.3,30.02,WSW,248,9.0,11.0,71,0.00,,---,0.00,VWS V14.00,2013-05-23 14:24:00,
2013-05-23 09:25:00,67.0,56.9,30.02,West,270,6.0,11.0,70,0.00,,---,0.00,VWS V14.00,2013-05-23 14:25:00,
2013-05-23 09:26:00,67.0,56.9,30.02,West,270,10.0,10.0,70,0.00,,---,0.00,VWS V14.00,2013-05-23 14:26:00,
2013-05-23 09:27:00,67.0,56.9,30.02,WNW,292,8.0,13.0,70,0.00,,---,0.00,VWS V14.00,2013-05-23 14:27:00,
2013-05-23 09:28:00,67.0,57.3,30.02,West,270,9.0,11.0,71,0.00,,---,0.00,VWS V14.00,2013-05-23 14:28:00,
2013-05-23 09:29:00,67.0,57.3,30.02,WSW,248,9.0,11.0,71,0.00,,---,0.00,VWS V14.00,2013-05-23 14:29:00,
2013-05-23 09:30:00,67.0,57.3,30.02,West,270,10.0,12.0,71,0.00,,---,0.00,VWS V14.00,2013-05-23 14:30:00,
2013-05-23 09:31:00,67.0,57.7,30.02,West,270,9.0,11.0,72,0.00,,---,0.00,VWS V14.00,2013-05-23 14:31:00,
2013-05-23 09:32:00,67.0,57.3,30.02,SW,225,10.0,12.0,71,0.00,,---,0.00,VWS V14.00,2013-05-23 14:32:00,
2013-05-23 09:33:00,67.0,56.9,30.02,WSW,248,11.0,11.0,70,0.00,,---,0.00,VWS V14.00,2013-05-23 14:33:00,
2013-05-23 09:34:00,67.0,56.9,30.02,SW,225,10.0,13.0,70,0.00,,---,0.00,VWS V14.00,2013-05-23 14:34:00,
2013-05-23 09:35:00,67.0,57.3,30.02,WNW,292,8.0,12.0,71,0.00,,---,0.00,VWS V14.00,2013-05-23 14:35:00,
2013-05-23 09:36:00,67.0,57.7,30.02,WNW,292,9.0,10.0,72,0.00,,---,0.00,VWS V14.00,2013-05-23 14:36:00,
2013-05-23 09:37:00,67.0,57.3,30.02,WSW,248,10.0,11.0,71,0.00,,---,0.00,VWS V14.00,2013-05-23 14:37:00,
2013-05-23 09:38:00,67.0,56.9,30.02,WSW,248,9.0,12.0,70,0.00,,---,0.00,VWS V14.00,2013-05-23 14:38:00,
2013-05-23 09:39:00,67.0,57.3,30.02,West,270,8.0,10.0,71,0.00,,---,0.00,VWS V14.00,2013-05-23 14:39:00,
2013-05-23 09:40:00,67.0,57.3,30.02,WSW,248,6.0,7.0,71,0.00,,---,0.00,VWS V14.00,2013-05-23 14:40:00,
2013-05-23 09:41:00,68.0,58.3,30.02,WSW,248,10.0,10.0,71,0.00,,---,0.00,VWS V14.00,2013-05-23 14:41:00,
2013-05-23 09:42:00,68.0,58.3,30.02,WSW,248,10.0,10.0,71,0.00,,---,0.00,VWS V14.00,2013-05-23 14:42:00,
2013-05-23 09:43:00,67.0,56.9,30.02,West,270,8.0,9.0,70,0.00,,---,0.00,VWS V14.00,2013-05-23 14:43:00,
2013-05-23 09:44:00,67.0,56.9,30.01,WNW,292,8.0,11.0,70,0.00,,---,0.00,VWS V14.00,2013-05-23 14:44:00,
2013-05-23 09:45:00,68.0,58.3,30.02,WSW,248,10.0,11.0,71,0.00,,---,0.00,VWS V14.00,2013-05-23 14:45:00,
2013-05-23 09:46:00,68.0,58.3,30.02,West,270,9.0,12.0,71,0.00,,---,0.00,VWS V14.00,2013-05-23 14:46:00,
2013-05-23 09:47:00,68.0,58.3,30.02,SW,225,10.0,14.0,71,0.00,,---,0.00,VWS V14.00,2013-05-23 14:47:00,
2013-05-23 09:48:00,68.0,57.9,30.02,WSW,248,15.0,16.0,70,0.00,,---,0.00,VWS V14.00,2013-05-23 14:48:00,
2013-05-23 09:49:00,68.0,57.1,30.02,West,270,10.0,14.0,68,0.00,,---,0.00,VWS V14.00,2013-05-23 14:49:00,
2013-05-23 09:50:00,68.0,57.1,30.02,WSW,248,13.0,14.0,68,0.00,,---,0.00,VWS V14.00,2013-05-23 14:50:00,
2013-05-23 09:51:00,68.0,56.2,30.02,West,270,14.0,18.0,66,0.00,,---,0.00,VWS V14.00,2013-05-23 14:51:00,
2013-05-23 09:52:00,67.0,55.3,30.02,West,270,14.0,16.0,66,0.00,,---,0.00,VWS V14.00,2013-05-23 14:52:00,
2013-05-23 09:53:00,68.0,56.2,30.02,West,270,13.0,15.0,66,0.00,,---,0.00,VWS V14.00,2013-05-23 14:53:00,
2013-05-23 09:54:00,68.0,56.7,30.02,West,270,10.0,13.0,67,0.00,,---,0.00,VWS V14.00,2013-05-23 14:54:00,
2013-05-23 09:55:00,68.0,56.7,30.02,WNW,292,11.0,15.0,67,0.00,,---,0.00,VWS V14.00,2013-05-23 14:55:00,
2013-05-23 09:56:00,68.0,55.8,30.02,NW,315,12.0,18.0,65,0.00,,---,0.00,VWS V14.00,2013-05-23 14:56:00,
2013-05-23 09:57:00,68.0,56.2,30.02,West,270,11.0,11.0,66,0.00,,---,0.00,VWS V14.00,2013-05-23 14:57:00,
2013-05-23 09:58:00,67.0,54.9,30.02,West,270,11.0,16.0,65,0.00,,---,0.00,VWS V14.00,2013-05-23 14:58:00,
2013-05-23 09:59:00,67.0,54.9,30.02,WSW,248,10.0,10.0,65,0.00,,---,0.00,VWS V14.00,2013-05-23 14:59:00,
2013-05-23 10:00:00,68.0,56.7,30.02,WNW,292,12.0,13.0,67,0.00,,---,0.00,VWS V14.00,2013-05-23 15:00:00,
2013-05-23 10:01:00,68.0,56.7,30.02,WSW,248,14.0,14.0,67,0.00,,---,0.00,VWS V14.00,2013-05-23 15:01:00,
2013-05-23 10:02:00,68.0,56.2,30.02,WSW,248,11.0,11.0,66,0.00,,---,0.00,VWS V14.00,2013-05-23 15:02:00,
2013-05-23 10:03:00,68.0,55.8,30.02,West,270,11.0,14.0,65,0.00,,---,0.00,VWS V14.00,2013-05-23 15:03:00,
2013-05-23 10:04:00,68.0,55.8,30.02,West,270,11.0,14.0,65,0.00,,---,0.00,VWS V14.00,2013-05-23 15:04:00,
2013-05-23 10:05:00,68.0,56.2,30.02,WNW,292,10.0,13.0,66,0.00,,---,0.00,VWS V14.00,2013-05-23 15:05:00,
2013-05-23 10:06:00,68.0,55.8,30.02,WNW,292,12.0,16.0,65,0.00,,---,0.00,VWS V14.00,2013-05-23 15:06:00,
2013-05-23 10:07:00,68.0,56.2,30.02,West,270,9.0,13.0,66,0.00,,---,0.00,VWS V14.00,2013-05-23 15:07:00,
2013-05-23 10:08:00,68.0,56.7,30.02,West,270,14.0,14.0,67,0.00,,---,0.00,VWS V14.00,2013-05-23 15:08:00,
2013-05-23 10:09:00,68.0,56.7,30.02,WSW,248,12.0,14.0,67,0.00,,---,0.00,VWS V14.00,2013-05-23 15:09:00,
2013-05-23 10:10:00,68.0,56.2,30.02,West,270,10.0,14.0,66,0.00,,---,0.00,VWS V14.00,2013-05-23 15:10:00,
2013-05-23 10:11:00,68.0,56.7,30.03,West,270,11.0,14.0,67,0.00,,---,0.00,VWS V14.00,2013-05-23 15:11:00,
2013-05-23 10:12:00,68.0,56.2,30.03,West,270,13.0,13.0,66,0.00,,---,0.00,VWS V14.00,2013-05-23 15:12:00,
2013-05-23 10:13:00,68.0,56.7,30.03,WSW,248,13.0,16.0,67,0.00,,---,0.00,VWS V14.00,2013-05-23 15:13:00,
2013-05-23 10:14:00,68.0,56.2,30.03,WSW,248,13.0,18.0,66,0.00,,---,0.00,VWS V14.00,2013-05-23 15:14:00,
2013-05-23 10:15:00,68.0,56.2,30.03,West,270,14.0,16.0,66,0.00,,---,0.00,VWS V14.00,2013-05-23 15:15:00,
2013-05-23 10:16:00,68.0,56.7,30.03,West,270,13.0,18.0,67,0.00,,---,0.00,VWS V14.00,2013-05-23 15:16:00,
2013-05-23 10:17:00,68.0,56.7,30.03,West,270,11.0,14.0,67,0.00,,---,0.00,VWS V14.00,2013-05-23 15:17:00,
2013-05-23 10:18:00,68.0,57.1,30.03,WNW,292,9.0,13.0,68,0.00,,---,0.00,VWS V14.00,2013-05-23 15:18:00,
2013-05-23 10:19:00,68.0,56.7,30.03,West,270,16.0,18.0,67,0.00,,---,0.00,VWS V14.00,2013-05-23 15:19:00,
2013-05-23 10:20:00,68.0,56.7,30.03,WNW,292,20.0,21.0,67,0.00,,---,0.00,VWS V14.00,2013-05-23 15:20:00,
2013-05-23 10:21:00,67.0,55.7,30.03,West,270,19.0,21.0,67,0.00,,---,0.00,VWS V14.00,2013-05-23 15:21:00,
2013-05-23 10:22:00,67.0,55.7,30.03,West,270,14.0,19.0,67,0.00,,---,0.00,VWS V14.00,2013-05-23 15:22:00,
2013-05-23 10:23:00,67.0,55.7,30.03,West,270,15.0,17.0,67,0.00,,---,0.00,VWS V14.00,2013-05-23 15:23:00,
2013-05-23 10:24:00,67.0,55.7,30.03,West,270,16.0,18.0,67,0.00,,---,0.00,VWS V14.00,2013-05-23 15:24:00,
2013-05-23 10:25:00,68.0,57.1,30.03,WNW,292,6.0,17.0,68,0.00,,---,0.00,VWS V14.00,2013-05-23 15:25:00,
2013-05-23 10:26:00,68.0,57.1,30.03,West,270,16.0,16.0,68,0.00,,---,0.00,VWS V14.00,2013-05-23 15:26:00,
2013-05-23 10:27:00,68.0,56.7,30.03,WNW,292,14.0,17.0,67,0.00,,---,0.00,VWS V14.00,2013-05-23 15:27:00,
2013-05-23 10:28:00,68.0,56.2,30.03,West,270,13.0,18.0,66,0.00,,---,0.00,VWS V14.00,2013-05-23 15:28:00,
2013-05-23 10:29:00,68.0,56.2,30.03,West,270,12.0,16.0,66,0.00,,---,0.00,VWS V14.00,2013-05-23 15:29:00,
2013-05-23 10:30:00,68.0,56.2,30.03,West,270,16.0,17.0,66,0.00,,---,0.00,VWS V14.00,2013-05-23 15:30:00,
2013-05-23 10:31:00,67.0,55.3,30.03,WNW,292,13.0,13.0,66,0.00,,---,0.00,VWS V14.00,2013-05-23 15:31:00,
2013-05-23 10:32:00,68.0,56.7,30.03,WNW,292,14.0,16.0,67,0.00,,---,0.00,VWS V14.00,2013-05-23 15:32:00,
2013-05-23 10:33:00,68.0,56.7,30.03,WNW,292,13.0,17.0,67,0.00,,---,0.00,VWS V14.00,2013-05-23 15:33:00,
2013-05-23 10:34:00,68.0,55.8,30.03,WNW,292,14.0,16.0,65,0.00,,---,0.00,VWS V14.00,2013-05-23 15:34:00,
2013-05-23 10:35:00,68.0,56.2,30.03,WNW,292,17.0,17.0,66,0.00,,---,0.00,VWS V14.00,2013-05-23 15:35:00,
2013-05-23 10:36:00,68.0,56.2,30.04,WNW,292,16.0,19.0,66,0.00,,---,0.00,VWS V14.00,2013-05-23 15:36:00,
2013-05-23 10:37:00,68.0,55.8,30.04,West,270,18.0,18.0,65,0.00,,---,0.00,VWS V14.00,2013-05-23 15:37:00,
2013-05-23 10:38:00,68.0,56.7,30.04,WNW,292,11.0,18.0,67,0.00,,---,0.00,VWS V14.00,2013-05-23 15:38:00,
2013-05-23 10:39:00,68.0,57.1,30.04,WNW,292,15.0,18.0,68,0.00,,---,0.00,VWS V14.00,2013-05-23 15:39:00,
2013-05-23 10:40:00,68.0,56.7,30.04,WNW,292,11.0,16.0,67,0.00,,---,0.00,VWS V14.00,2013-05-23 15:40:00,
2013-05-23 10:41:00,68.0,56.7,30.04,WNW,292,13.0,14.0,67,0.00,,---,0.00,VWS V14.00,2013-05-23 15:41:00,
2013-05-23 10:42:00,68.0,56.2,30.04,WNW,292,10.0,15.0,66,0.00,,---,0.00,VWS V14.00,2013-05-23 15:42:00,
2013-05-23 10:43:00,68.0,56.7,30.04,WNW,292,14.0,15.0,67,0.00,,---,0.00,VWS V14.00,2013-05-23 15:43:00,
2013-05-23 10:44:00,68.0,57.1,30.04,West,270,10.0,14.0,68,0.00,,---,0.00,VWS V14.00,2013-05-23 15:44:00,
2013-05-23 10:45:00,69.0,58.4,30.04,West,270,10.0,13.0,69,0.00,,---,0.00,VWS V14.00,2013-05-23 15:45:00,
2013-05-23 10:46:00,69.0,58.4,30.04,WSW,248,14.0,14.0,69,0.00,,---,0.00,VWS V14.00,2013-05-23 15:46:00,
2013-05-23 10:47:00,68.0,55.8,30.04,West,270,16.0,16.0,65,0.00,,---,0.00,VWS V14.00,2013-05-23 15:47:00,
2013-05-23 10:48:00,68.0,56.2,30.04,West,270,16.0,19.0,66,0.00,,---,0.00,VWS V14.00,2013-05-23 15:48:00,
2013-05-23 10:49:00,68.0,56.2,30.04,West,270,14.0,18.0,66,0.00,,---,0.00,VWS V14.00,2013-05-23 15:49:00,
2013-05-23 10:50:00,68.0,56.7,30.04,West,270,12.0,12.0,67,0.00,,---,0.00,VWS V14.00,2013-05-23 15:50:00,
2013-05-23 10:51:00,68.0,56.2,30.04,West,270,13.0,17.0,66,0.00,,---,0.00,VWS V14.00,2013-05-23 15:51:00,
2013-05-23 10:52:00,68.0,56.2,30.04,WSW,248,14.0,19.0,66,0.00,,---,0.00,VWS V14.00,2013-05-23 15:52:00,
2013-05-23 10:53:00,68.0,57.1,30.04,West,270,11.0,16.0,68,0.00,,---,0.00,VWS V14.00,2013-05-23 15:53:00,
2013-05-23 10:54:00,68.0,56.2,30.05,West,270,13.0,19.0,66,0.00,,---,0.00,VWS V14.00,2013-05-23 15:54:00,
2013-05-23 10:55:00,68.0,56.7,30.05,WNW,292,13.0,17.0,67,0.00,,---,0.00,VWS V14.00,2013-05-23 15:55:00,
2013-05-23 10:56:00,68.0,56.2,30.05,West,270,13.0,14.0,66,0.00,,---,0.00,VWS V14.00,2013-05-23 15:56:00,
2013-05-23 10:57:00,69.0,57.6,30.05,WSW,248,12.0,12.0,67,0.00,,---,0.00,VWS V14.00,2013-05-23 15:57:00,
2013-05-23 10:58:00,69.0,57.2,30.05,WNW,292,13.0,20.0,66,0.00,,---,0.00,VWS V14.00,2013-05-23 15:58:00,
2013-05-23 10:59:00,68.0,55.8,30.05,WSW,248,18.0,19.0,65,0.00,,---,0.00,VWS V14.00,2013-05-23 15:59:00,
2013-05-23 11:00:00,68.0,56.2,30.05,WSW,248,11.0,18.0,66,0.00,,---,0.00,VWS V14.00,2013-05-23 16:00:00,
2013-05-23 11:01:00,68.0,56.7,30.05,West,270,21.0,24.0,67,0.00,,---,0.00,VWS V14.00,2013-05-23 16:01:00,
2013-05-23 11:02:00,68.0,56.2,30.05,West,270,18.0,18.0,66,0.00,,---,0.00,VWS V14.00,2013-05-23 16:02:00,
2013-05-23 11:03:00,68.0,56.2,30.05,West,270,14.0,23.0,66,0.00,,---,0.00,VWS V14.00,2013-05-23 16:03:00,
2013-05-23 11:04:00,68.0,56.7,30.05,WNW,292,10.0,19.0,67,0.00,,---,0.00,VWS V14.00,2013-05-23 16:04:00,
2013-05-23 11:05:00,67.0,55.3,30.05,West,270,14.0,18.0,66,0.00,,---,0.00,VWS V14.00,2013-05-23 16:05:00,
2013-05-23 11:06:00,68.0,57.1,30.05,WSW,248,12.0,14.0,68,0.00,,---,0.00,VWS V14.00,2013-05-23 16:06:00,
2013-05-23 11:07:00,68.0,56.7,30.05,WSW,248,12.0,15.0,67,0.00,,---,0.00,VWS V14.00,2013-05-23 16:07:00,
2013-05-23 11:08:00,68.0,57.1,30.05,West,270,11.0,16.0,68,0.00,,---,0.00,VWS V14.00,2013-05-23 16:08:00,
2013-05-23 11:09:00,68.0,57.1,30.06,WSW,248,15.0,21.0,68,0.00,,---,0.00,VWS V14.00,2013-05-23 16:09:00,
2013-05-23 11:10:00,68.0,57.1,30.05,West,270,12.0,19.0,68,0.00,,---,0.00,VWS V14.00,2013-05-23 16:10:00,
2013-05-23 11:11:00,68.0,57.1,30.05,West,270,11.0,15.0,68,0.00,,---,0.00,VWS V14.00,2013-05-23 16:11:00,
2013-05-23 11:12:00,68.0,57.5,30.06,WNW,292,10.0,10.0,69,0.00,,---,0.00,VWS V14.00,2013-05-23 16:12:00,
2013-05-23 11:13:00,68.0,56.7,30.06,West,270,18.0,19.0,67,0.00,,---,0.00,VWS V14.00,2013-05-23 16:13:00,
2013-05-23 11:14:00,67.0,55.7,30.06,West,270,13.0,16.0,67,0.00,,---,0.00,VWS V14.00,2013-05-23 16:14:00,
2013-05-23 11:15:00,68.0,57.1,30.06,WNW,292,10.0,16.0,68,0.00,,---,0.00,VWS V14.00,2013-05-23 16:15:00,
2013-05-23 11:16:00,67.0,56.1,30.06,WNW,292,14.0,16.0,68,0.00,,---,0.00,VWS V14.00,2013-05-23 16:16:00,
2013-05-23 11:17:00,68.0,57.5,30.06,WSW,248,14.0,14.0,69,0.00,,---,0.00,VWS V14.00,2013-05-23 16:17:00,
2013-05-23 11:18:00,68.0,57.5,30.06,West,270,13.0,14.0,69,0.00,,---,0.00,VWS V14.00,2013-05-23 16:18:00,
2013-05-23 11:19:00,68.0,57.5,30.06,WSW,248,14.0,16.0,69,0.00,,---,0.00,VWS V14.00,2013-05-23 16:19:00,
2013-05-23 11:20:00,68.0,57.1,30.06,WNW,292,13.0,16.0,68,0.00,,---,0.00,VWS V14.00,2013-05-23 16:20:00,
2013-05-23 11:21:00,68.0,57.5,30.06,West,270,13.0,14.0,69,0.00,,---,0.00,VWS V14.00,2013-05-23 16:21:00,
2013-05-23 11:22:00,68.0,57.9,30.06,West,270,11.0,17.0,70,0.00,,---,0.00,VWS V14.00,2013-05-23 16:22:00,
2013-05-23 11:23:00,68.0,57.1,30.06,WNW,292,14.0,19.0,68,0.00,,---,0.00,VWS V14.00,2013-05-23 16:23:00,
2013-05-23 11:24:00,68.0,57.1,30.06,West,270,12.0,18.0,68,0.00,,---,0.00,VWS V14.00,2013-05-23 16:24:00,
2013-05-23 11:25:00,68.0,57.5,30.06,WNW,292,13.0,15.0,69,0.00,,---,0.00,VWS V14.00,2013-05-23 16:25:00,
2013-05-23 11:26:00,68.0,57.9,30.06,WNW,292,9.0,13.0,70,0.00,,---,0.00,VWS V14.00,2013-05-23 16:26:00,
2013-05-23 11:27:00,68.0,57.5,30.06,WNW,292,11.0,16.0,69,0.00,,---,0.00,VWS V14.00,2013-05-23 16:27:00,
2013-05-23 11:28:00,68.0,57.1,30.06,West,270,16.0,17.0,68,0.00,,---,0.00,VWS V14.00,2013-05-23 16:28:00,
2013-05-23 11:29:00,68.0,57.1,30.06,West,270,13.0,18.0,68,0.00,,---,0.00,VWS V14.00,2013-05-23 16:29:00,
2013-05-23 11:30:00,68.0,57.1,30.06,WNW,292,12.0,16.0,68,0.00,,---,0.00,VWS V14.00,2013-05-23 16:30:00,
2013-05-23 11:31:00,68.0,57.1,30.06,West,270,13.0,14.0,68,0.00,,---,0.00,VWS V14.00,2013-05-23 16:31:00,
2013-05-23 11:32:00,68.0,57.5,30.06,WNW,292,10.0,14.0,69,0.00,,---,0.00,VWS V14.00,2013-05-23 16:32:00,
2013-05-23 11:33:00,68.0,57.5,30.06,WNW,292,13.0,14.0,69,0.00,,---,0.00,VWS V14.00,2013-05-23 16:33:00,
2013-05-23 11:34:00,69.0,58.8,30.06,West,270,12.0,14.0,70,0.00,,---,0.00,VWS V14.00,2013-05-23 16:34:00,
2013-05-23 11:35:00,68.0,56.7,30.06,WSW,248,13.0,18.0,67,0.00,,---,0.00,VWS V14.00,2013-05-23 16:35:00,
2013-05-23 11:36:00,68.0,56.7,30.06,WNW,292,15.0,19.0,67,0.00,,---,0.00,VWS V14.00,2013-05-23 16:36:00,
2013-05-23 11:37:00,69.0,57.6,30.05,West,270,14.0,19.0,67,0.00,,---,0.00,VWS V14.00,2013-05-23 16:37:00,
2013-05-23 11:38:00,69.0,58.0,30.05,WSW,248,14.0,19.0,68,0.00,,---,0.00,VWS V14.00,2013-05-23 16:38:00,
2013-05-23 11:39:00,68.0,56.7,30.06,WNW,292,16.0,16.0,67,0.00,,---,0.00,VWS V14.00,2013-05-23 16:39:00,
2013-05-23 11:40:00,69.0,58.0,30.05,WNW,292,6.0,16.0,68,0.00,,---,0.00,VWS V14.00,2013-05-23 16:40:00,
2013-05-23 11:41:00,68.0,56.7,30.05,WSW,248,10.0,14.0,67,0.00,,---,0.00,VWS V14.00,2013-05-23 16:41:00,
2013-05-23 11:42:00,69.0,58.0,30.06,WNW,292,11.0,11.0,68,0.00,,---,0.00,VWS V14.00,2013-05-23 16:42:00,
2013-05-23 11:43:00,68.0,56.7,30.06,WNW,292,16.0,19.0,67,0.00,,---,0.00,VWS V14.00,2013-05-23 16:43:00,
2013-05-23 11:44:00,68.0,56.7,30.06,WNW,292,16.0,19.0,67,0.00,,---,0.00,VWS V14.00,2013-05-23 16:44:00,
2013-05-23 11:45:00,68.0,56.7,30.05,WNW,292,12.0,17.0,67,0.00,,---,0.00,VWS V14.00,2013-05-23 16:45:00,
2013-05-23 11:46:00,68.0,56.7,30.06,WNW,292,14.0,21.0,67,0.00,,---,0.00,VWS V14.00,2013-05-23 16:46:00,
2013-05-23 11:47:00,68.0,57.1,30.06,West,270,11.0,16.0,68,0.00,,---,0.00,VWS V14.00,2013-05-23 16:47:00,
2013-05-23 11:48:00,68.0,57.1,30.05,West,270,13.0,14.0,68,0.00,,---,0.00,VWS V14.00,2013-05-23 16:48:00,
2013-05-23 11:49:00,68.0,57.1,30.05,WNW,292,12.0,15.0,68,0.00,,---,0.00,VWS V14.00,2013-05-23 16:49:00,
2013-05-23 11:50:00,68.0,57.1,30.06,WNW,292,13.0,14.0,68,0.00,,---,0.00,VWS V14.00,2013-05-23 16:50:00,
2013-05-23 11:51:00,68.0,57.5,30.06,WNW,292,12.0,14.0,69,0.00,,---,0.00,VWS V14.00,2013-05-23 16:51:00,
2013-05-23 11:52:00,68.0,57.9,30.06,West,270,11.0,11.0,70,0.00,,---,0.00,VWS V14.00,2013-05-23 16:52:00,
2013-05-23 11:53:00,68.0,57.1,30.06,WNW,292,11.0,15.0,68,0.00,,---,0.00,VWS V14.00,2013-05-23 16:53:00,
2013-05-23 11:54:00,68.0,57.9,30.06,West,270,12.0,13.0,70,0.00,,---,0.00,VWS V14.00,2013-05-23 16:54:00,
2013-05-23 11:55:00,68.0,57.5,30.06,West,270,11.0,14.0,69,0.00,,---,0.00,VWS V14.00,2013-05-23 16:55:00,
2013-05-23 11:56:00,68.0,57.9,30.06,WNW,292,8.0,14.0,70,0.00,,---,0.00,VWS V14.00,2013-05-23 16:56:00,
2013-05-23 11:57:00,68.0,57.1,30.05,WNW,292,11.0,17.0,68,0.00,,---,0.00,VWS V14.00,2013-05-23 16:57:00,
2013-05-23 11:58:00,68.0,57.5,30.05,WNW,292,14.0,14.0,69,0.00,,---,0.00,VWS V14.00,2013-05-23 16:58:00,
2013-05-23 11:59:00,68.0,57.5,30.05,WNW,292,12.0,14.0,69,0.00,,---,0.00,VWS V14.00,2013-05-23 16:59:00,
2013-05-23 12:00:00,68.0,57.9,30.05,WNW,292,7.0,12.0,70,0.00,,---,0.00,VWS V14.00,2013-05-23 17:00:00,
2013-05-23 12:01:00,68.0,57.5,30.05,WNW,292,9.0,11.0,69,0.00,,---,0.00,VWS V14.00,2013-05-23 17:01:00,
2013-05-23 12:02:00,69.0,59.2,30.05,NW,315,8.0,9.0,71,0.00,,---,0.00,VWS V14.00,2013-05-23 17:02:00,
2013-05-23 12:03:00,69.0,58.0,30.05,WNW,292,5.0,10.0,68,0.00,,---,0.00,VWS V14.00,2013-05-23 17:03:00,
2013-05-23 12:04:00,69.0,58.4,30.05,NW,315,5.0,6.0,69,0.00,,---,0.00,VWS V14.00,2013-05-23 17:04:00,
2013-05-23 12:05:00,69.0,59.2,30.05,WNW,292,11.0,14.0,71,0.00,,---,0.00,VWS V14.00,2013-05-23 17:05:00,
2013-05-23 12:06:00,70.0,59.4,30.05,WNW,292,10.0,13.0,69,0.00,,---,0.00,VWS V14.00,2013-05-23 17:06:00,
2013-05-23 12:07:00,70.0,59.0,30.05,WNW,292,15.0,17.0,68,0.00,,---,0.00,VWS V14.00,2013-05-23 17:07:00,
2013-05-23 12:08:00,70.0,58.5,30.05,WNW,292,14.0,14.0,67,0.00,,---,0.00,VWS V14.00,2013-05-23 17:08:00,
2013-05-23 12:09:00,70.0,57.7,30.05,WNW,292,17.0,20.0,65,0.00,,---,0.00,VWS V14.00,2013-05-23 17:09:00,
2013-05-23 12:10:00,70.0,57.3,30.05,NW,315,11.0,19.0,64,0.00,,---,0.00,VWS V14.00,2013-05-23 17:10:00,
2013-05-23 12:11:00,70.0,57.7,30.05,NNW,338,19.0,22.0,65,0.00,,---,0.00,VWS V14.00,2013-05-23 17:11:00,
2013-05-23 12:12:00,70.0,57.3,30.05,WNW,292,16.0,20.0,64,0.00,,---,0.00,VWS V14.00,2013-05-23 17:12:00,
2013-05-23 12:13:00,69.0,55.9,30.05,WNW,292,16.0,16.0,63,0.00,,---,0.00,VWS V14.00,2013-05-23 17:13:00,
2013-05-23 12:14:00,71.0,59.1,30.05,West,270,16.0,17.0,66,0.00,,---,0.00,VWS V14.00,2013-05-23 17:14:00,
2013-05-23 12:15:00,70.0,56.8,30.05,WNW,292,16.0,20.0,63,0.00,,---,0.00,VWS V14.00,2013-05-23 17:15:00,
2013-05-23 12:16:00,70.0,57.3,30.04,WNW,292,14.0,18.0,64,0.00,,---,0.00,VWS V14.00,2013-05-23 17:16:00,
2013-05-23 12:17:00,70.0,57.3,30.04,NW,315,15.0,15.0,64,0.00,,---,0.00,VWS V14.00,2013-05-23 17:17:00,
2013-05-23 12:18:00,70.0,57.3,30.05,NW,315,17.0,20.0,64,0.00,,---,0.00,VWS V14.00,2013-05-23 17:18:00,
2013-05-23 12:19:00,70.0,56.8,30.05,WNW,292,19.0,20.0,63,0.00,,---,0.00,VWS V14.00,2013-05-23 17:19:00,
2013-05-23 12:20:00,70.0,56.8,30.05,WNW,292,14.0,19.0,63,0.00,,---,0.00,VWS V14.00,2013-05-23 17:20:00,
2013-05-23 12:21:00,70.0,56.4,30.05,West,270,12.0,19.0,62,0.00,,---,0.00,VWS V14.00,2013-05-23 17:21:00,
2013-05-23 12:22:00,70.0,57.3,30.05,WNW,292,10.0,15.0,64,0.00,,---,0.00,VWS V14.00,2013-05-23 17:22:00,
2013-05-23 12:23:00,69.0,56.3,30.05,WNW,292,10.0,10.0,64,0.00,,---,0.00,VWS V14.00,2013-05-23 17:23:00,
2013-05-23 12:24:00,69.0,55.9,30.05,NW,315,11.0,12.0,63,0.00,,---,0.00,VWS V14.00,2013-05-23 17:24:00,
2013-05-23 12:25:00,69.0,56.3,30.05,WNW,292,14.0,21.0,64,0.00,,---,0.00,VWS V14.00,2013-05-23 17:25:00,
2013-05-23 12:26:00,69.0,55.0,30.05,WNW,292,19.0,19.0,61,0.00,,---,0.00,VWS V14.00,2013-05-23 17:26:00,
2013-05-23 12:27:00,69.0,55.5,30.05,WNW,292,18.0,21.0,62,0.00,,---,0.00,VWS V14.00,2013-05-23 17:27:00,
2013-05-23 12:28:00,69.0,55.9,30.05,WNW,292,16.0,21.0,63,0.00,,---,0.00,VWS V14.00,2013-05-23 17:28:00,
2013-05-23 12:29:00,69.0,56.8,30.05,WNW,292,18.0,18.0,65,0.00,,---,0.00,VWS V14.00,2013-05-23 17:29:00,
2013-05-23 12:30:00,69.0,55.9,30.05,WNW,292,16.0,18.0,63,0.00,,---,0.00,VWS V14.00,2013-05-23 17:30:00,
2013-05-23 12:31:00,69.0,56.3,30.05,NW,315,8.0,18.0,64,0.00,,---,0.00,VWS V14.00,2013-05-23 17:31:00,
2013-05-23 12:32:00,70.0,58.1,30.05,WNW,292,21.0,24.0,66,0.00,,---,0.00,VWS V14.00,2013-05-23 17:32:00,
2013-05-23 12:33:00,70.0,57.7,30.05,WNW,292,14.0,14.0,65,0.00,,---,0.00,VWS V14.00,2013-05-23 17:33:00,
2013-05-23 12:34:00,70.0,55.5,30.05,WNW,292,14.0,21.0,60,0.00,,---,0.00,VWS V14.00,2013-05-23 17:34:00,
2013-05-23 12:35:00,69.0,54.5,30.05,NW,315,7.0,7.0,60,0.00,,---,0.00,VWS V14.00,2013-05-23 17:35:00,
2013-05-23 12:36:00,69.0,55.5,30.05,NW,315,14.0,22.0,62,0.00,,---,0.00,VWS V14.00,2013-05-23 17:36:00,
2013-05-23 12:37:00,70.0,56.8,30.05,WNW,292,15.0,18.0,63,0.00,,---,0.00,VWS V14.00,2013-05-23 17:37:00,
2013-05-23 12:38:00,70.0,56.8,30.05,NW,315,14.0,18.0,63,0.00,,---,0.00,VWS V14.00,2013-05-23 17:38:00,
2013-05-23 12:39:00,70.0,57.3,30.05,NW,315,13.0,15.0,64,0.00,,---,0.00,VWS V14.00,2013-05-23 17:39:00,
2013-05-23 12:40:00,70.0,56.8,30.05,WNW,292,20.0,20.0,63,0.00,,---,0.00,VWS V14.00,2013-05-23 17:40:00,
2013-05-23 12:41:00,70.0,56.0,30.05,WNW,292,19.0,23.0,61,0.00,,---,0.00,VWS V14.00,2013-05-23 17:41:00,
2013-05-23 12:42:00,70.0,56.0,30.05,West,270,18.0,20.0,61,0.00,,---,0.00,VWS V14.00,2013-05-23 17:42:00,
2013-05-23 12:43:00,70.0,55.5,30.05,WNW,292,14.0,14.0,60,0.00,,---,0.00,VWS V14.00,2013-05-23 17:43:00,
2013-05-23 12:44:00,71.0,57.3,30.05,WNW,292,13.0,20.0,62,0.00,,---,0.00,VWS V14.00,2013-05-23 17:44:00,
2013-05-23 12:45:00,71.0,56.9,30.05,WNW,292,14.0,19.0,61,0.00,,---,0.00,VWS V14.00,2013-05-23 17:45:00,
2013-05-23 12:46:00,70.0,56.0,30.05,West,270,21.0,21.0,61,0.00,,---,0.00,VWS V14.00,2013-05-23 17:46:00,
2013-05-23 12:47:00,70.0,55.5,30.05,WNW,292,21.0,24.0,60,0.00,,---,0.00,VWS V14.00,2013-05-23 17:47:00,
2013-05-23 12:48:00,70.0,56.0,30.05,WNW,292,15.0,21.0,61,0.00,,---,0.00,VWS V14.00,2013-05-23 17:48:00,
2013-05-23 12:49:00,70.0,56.4,30.05,WNW,292,19.0,19.0,62,0.00,,---,0.00,VWS V14.00,2013-05-23 17:49:00,
2013-05-23 12:50:00,69.0,55.0,30.05,WNW,292,15.0,19.0,61,0.00,,---,0.00,VWS V14.00,2013-05-23 17:50:00,
2013-05-23 12:51:00,71.0,58.2,30.05,WNW,292,14.0,21.0,64,0.00,,---,0.00,VWS V14.00,2013-05-23 17:51:00,
2013-05-23 12:52:00,70.0,56.4,30.05,West,270,14.0,21.0,62,0.00,,---,0.00,VWS V14.00,2013-05-23 17:52:00,
2013-05-23 12:53:00,70.0,56.0,30.05,WNW,292,14.0,15.0,61,0.00,,---,0.00,VWS V14.00,2013-05-23 17:53:00,
2013-05-23 12:54:00,71.0,57.8,30.05,WNW,292,14.0,18.0,63,0.00,,---,0.00,VWS V14.00,2013-05-23 17:54:00,
2013-05-23 12:55:00,70.0,56.0,30.06,WNW,292,12.0,17.0,61,0.00,,---,0.00,VWS V14.00,2013-05-23 17:55:00,
2013-05-23 12:56:00,70.0,56.4,30.05,WNW,292,14.0,15.0,62,0.00,,---,0.00,VWS V14.00,2013-05-23 17:56:00,
2013-05-23 12:57:00,70.0,57.3,30.05,WNW,292,13.0,13.0,64,0.00,,---,0.00,VWS V14.00,2013-05-23 17:57:00,
2013-05-23 12:58:00,70.0,56.8,30.05,WNW,292,5.0,15.0,63,0.00,,---,0.00,VWS V14.00,2013-05-23 17:58:00,
2013-05-23 12:59:00,70.0,56.8,30.05,NNW,338,8.0,8.0,63,0.00,,---,0.00,VWS V14.00,2013-05-23 17:59:00,
2013-05-23 13:00:00,70.0,56.8,30.05,WNW,292,14.0,16.0,63,0.00,,---,0.00,VWS V14.00,2013-05-23 18:00:00,
2013-05-23 13:01:00,70.0,56.8,30.05,WNW,292,8.0,8.0,63,0.00,,---,0.00,VWS V14.00,2013-05-23 18:01:00,
2013-05-23 13:02:00,70.0,56.8,30.05,NNW,338,16.0,22.0,63,0.00,,---,0.00,VWS V14.00,2013-05-23 18:02:00,
2013-05-23 13:03:00,69.0,55.9,30.06,NNW,338,7.0,19.0,63,0.00,,---,0.00,VWS V14.00,2013-05-23 18:03:00,
2013-05-23 13:04:00,69.0,55.9,30.06,WNW,292,6.0,6.0,63,0.00,,---,0.00,VWS V14.00,2013-05-23 18:04:00,
2013-05-23 13:05:00,69.0,56.3,30.05,NNW,338,15.0,18.0,64,0.00,,---,0.00,VWS V14.00,2013-05-23 18:05:00,
2013-05-23 13:06:00,70.0,56.8,30.05,NW,315,10.0,16.0,63,0.00,,---,0.00,VWS V14.00,2013-05-23 18:06:00,
2013-05-23 13:07:00,70.0,57.3,30.05,WNW,292,16.0,20.0,64,0.00,,---,0.00,VWS V14.00,2013-05-23 18:07:00,
2013-05-23 13:08:00,70.0,57.3,30.05,NNW,338,10.0,19.0,64,0.00,,---,0.00,VWS V14.00,2013-05-23 18:08:00,
2013-05-23 13:09:00,70.0,57.3,30.05,NW,315,8.0,14.0,64,0.00,,---,0.00,VWS V14.00,2013-05-23 18:09:00,
2013-05-23 13:10:00,70.0,56.4,30.05,WNW,292,12.0,13.0,62,0.00,,---,0.00,VWS V14.00,2013-05-23 18:10:00,
2013-05-23 13:11:00,70.0,56.4,30.05,NW,315,11.0,18.0,62,0.00,,---,0.00,VWS V14.00,2013-05-23 18:11:00,
2013-05-23 13:12:00,70.0,56.8,30.05,NW,315,12.0,13.0,63,0.00,,---,0.00,VWS V14.00,2013-05-23 18:12:00,
2013-05-23 13:13:00,70.0,57.3,30.05,NNW,338,11.0,16.0,64,0.00,,---,0.00,VWS V14.00,2013-05-23 18:13:00,
2013-05-23 13:14:00,69.0,55.9,30.05,NW,315,15.0,16.0,63,0.00,,---,0.00,VWS V14.00,2013-05-23 18:14:00,
2013-05-23 13:15:00,70.0,56.8,30.05,WNW,292,9.0,18.0,63,0.00,,---,0.00,VWS V14.00,2013-05-23 18:15:00,
2013-05-23 13:16:00,70.0,57.3,30.05,NW,315,8.0,13.0,64,0.00,,---,0.00,VWS V14.00,2013-05-23 18:16:00,
2013-05-23 13:17:00,71.0,59.1,30.05,WNW,292,8.0,9.0,66,0.00,,---,0.00,VWS V14.00,2013-05-23 18:17:00,
2013-05-23 13:18:00,71.0,57.3,30.05,WNW,292,11.0,11.0,62,0.00,,---,0.00,VWS V14.00,2013-05-23 18:18:00,
2013-05-23 13:19:00,70.0,56.0,30.05,WNW,292,5.0,13.0,61,0.00,,---,0.00,VWS V14.00,2013-05-23 18:19:00,
2013-05-23 13:20:00,70.0,56.4,30.05,WNW,292,16.0,18.0,62,0.00,,---,0.00,VWS V14.00,2013-05-23 18:20:00,
2013-05-23 13:21:00,70.0,56.0,30.05,WNW,292,17.0,23.0,61,0.00,,---,0.00,VWS V14.00,2013-05-23 18:21:00,
2013-05-23 13:22:00,70.0,56.4,30.06,WNW,292,16.0,16.0,62,0.00,,---,0.00,VWS V14.00,2013-05-23 18:22:00,
2013-05-23 13:23:00,70.0,56.0,30.06,WNW,292,16.0,18.0,61,0.00,,---,0.00,VWS V14.00,2013-05-23 18:23:00,
2013-05-23 13:24:00,70.0,56.0,30.06,WNW,292,16.0,16.0,61,0.00,,---,0.00,VWS V14.00,2013-05-23 18:24:00,
2013-05-23 13:25:00,71.0,56.4,30.06,WNW,292,13.0,17.0,60,0.00,,---,0.00,VWS V14.00,2013-05-23 18:25:00,
2013-05-23 13:26:00,71.0,56.4,30.06,WNW,292,14.0,19.0,60,0.00,,---,0.00,VWS V14.00,2013-05-23 18:26:00,
2013-05-23 13:27:00,71.0,57.3,30.06,NW,315,7.0,20.0,62,0.00,,---,0.00,VWS V14.00,2013-05-23 18:27:00,
2013-05-23 13:28:00,71.0,57.3,30.06,NW,315,13.0,14.0,62,0.00,,---,0.00,VWS V14.00,2013-05-23 18:28:00,
2013-05-23 13:29:00,71.0,56.9,30.06,NW,315,6.0,13.0,61,0.00,,---,0.00,VWS V14.00,2013-05-23 18:29:00,
2013-05-23 13:30:00,71.0,56.4,30.06,NNW,338,8.0,12.0,60,0.00,,---,0.00,VWS V14.00,2013-05-23 18:30:00,
2013-05-23 13:31:00,71.0,56.4,30.06,NNW,338,6.0,11.0,60,0.00,,---,0.00,VWS V14.00,2013-05-23 18:31:00,
2013-05-23 13:32:00,71.0,56.0,30.06,West,270,6.0,6.0,59,0.00,,---,0.00,VWS V14.00,2013-05-23 18:32:00,
2013-05-23 13:33:00,71.0,56.4,30.06,NW,315,11.0,11.0,60,0.00,,---,0.00,VWS V14.00,2013-05-23 18:33:00,
2013-05-23 13:34:00,71.0,56.0,30.05,NW,315,8.0,19.0,59,0.00,,---,0.00,VWS V14.00,2013-05-23 18:34:00,
2013-05-23 13:35:00,71.0,56.0,30.05,WNW,292,7.0,13.0,59,0.00,,---,0.00,VWS V14.00,2013-05-23 18:35:00,
2013-05-23 13:36:00,71.0,56.4,30.06,WNW,292,15.0,16.0,60,0.00,,---,0.00,VWS V14.00,2013-05-23 18:36:00,
2013-05-23 13:37:00,72.0,58.3,30.06,WNW,292,18.0,18.0,62,0.00,,---,0.00,VWS V14.00,2013-05-23 18:37:00,
2013-05-23 13:38:00,71.0,56.0,30.06,WNW,292,13.0,18.0,59,0.00,,---,0.00,VWS V14.00,2013-05-23 18:38:00,
2013-05-23 13:39:00,70.0,55.5,30.06,WNW,292,11.0,11.0,60,0.00,,---,0.00,VWS V14.00,2013-05-23 18:39:00,
2013-05-23 13:40:00,71.0,57.3,30.06,WNW,292,13.0,13.0,62,0.00,,---,0.00,VWS V14.00,2013-05-23 18:40:00,
2013-05-23 13:41:00,72.0,58.7,30.05,WNW,292,8.0,8.0,63,0.00,,---,0.00,VWS V14.00,2013-05-23 18:41:00,
2013-05-23 13:42:00,71.0,57.3,30.05,NNW,338,13.0,13.0,62,0.00,,---,0.00,VWS V14.00,2013-05-23 18:42:00,
2013-05-23 13:43:00,71.0,56.9,30.05,NW,315,11.0,13.0,61,0.00,,---,0.00,VWS V14.00,2013-05-23 18:43:00,
2013-05-23 13:44:00,71.0,56.9,30.05,NW,315,13.0,15.0,61,0.00,,---,0.00,VWS V14.00,2013-05-23 18:44:00,
2013-05-23 13:45:00,71.0,57.3,30.06,NW,315,5.0,15.0,62,0.00,,---,0.00,VWS V14.00,2013-05-23 18:45:00,
2013-05-23 13:46:00,70.0,55.5,30.06,WNW,292,11.0,16.0,60,0.00,,---,0.00,VWS V14.00,2013-05-23 18:46:00,
2013-05-23 13:47:00,71.0,57.3,30.06,NNW,338,14.0,14.0,62,0.00,,---,0.00,VWS V14.00,2013-05-23 18:47:00,
2013-05-23 13:48:00,71.0,57.8,30.06,NNW,338,8.0,8.0,63,0.00,,---,0.00,VWS V14.00,2013-05-23 18:48:00,
2013-05-23 13:49:00,71.0,56.9,30.06,WNW,292,14.0,14.0,61,0.00,,---,0.00,VWS V14.00,2013-05-23 18:49:00,
2013-05-23 13:50:00,70.0,56.0,30.06,NNW,338,7.0,16.0,61,0.00,,---,0.00,VWS V14.00,2013-05-23 18:50:00,
2013-05-23 13:51:00,71.0,57.3,30.06,WNW,292,12.0,13.0,62,0.00,,---,0.00,VWS V14.00,2013-05-23 18:51:00,
2013-05-23 13:52:00,71.0,57.8,30.06,WNW,292,14.0,16.0,63,0.00,,---,0.00,VWS V14.00,2013-05-23 18:52:00,
2013-05-23 13:53:00,71.0,56.4,30.06,WNW,292,9.0,10.0,60,0.00,,---,0.00,VWS V14.00,2013-05-23 18:53:00,
2013-05-23 13:54:00,72.0,58.7,30.06,WNW,292,8.0,11.0,63,0.00,,---,0.00,VWS V14.00,2013-05-23 18:54:00,
2013-05-23 13:55:00,72.0,57.8,30.06,NW,315,13.0,17.0,61,0.00,,---,0.00,VWS V14.00,2013-05-23 18:55:00,
2013-05-23 13:56:00,71.0,56.0,30.06,WNW,292,17.0,20.0,59,0.00,,---,0.00,VWS V14.00,2013-05-23 18:56:00,
2013-05-23 13:57:00,71.0,56.0,30.06,WNW,292,14.0,18.0,59,0.00,,---,0.00,VWS V14.00,2013-05-23 18:57:00,
2013-05-23 13:58:00,72.0,57.8,30.06,WNW,292,10.0,16.0,61,0.00,,---,0.00,VWS V14.00,2013-05-23 18:58:00,
2013-05-23 13:59:00,72.0,57.8,30.06,WNW,292,8.0,8.0,61,0.00,,---,0.00,VWS V14.00,2013-05-23 18:59:00,
2013-05-23 14:00:00,71.0,56.0,30.06,WNW,292,14.0,18.0,59,0.00,,---,0.00,VWS V14.00,2013-05-23 19:00:00,
2013-05-23 14:01:00,71.0,56.0,30.07,WNW,292,13.0,17.0,59,0.00,,---,0.00,VWS V14.00,2013-05-23 19:01:00,
2013-05-23 14:02:00,71.0,56.0,30.06,WNW,292,14.0,14.0,59,0.00,,---,0.00,VWS V14.00,2013-05-23 19:02:00,
2013-05-23 14:03:00,70.0,55.5,30.06,WNW,292,9.0,16.0,60,0.00,,---,0.00,VWS V14.00,2013-05-23 19:03:00,
2013-05-23 14:04:00,71.0,56.9,30.06,WNW,292,13.0,14.0,61,0.00,,---,0.00,VWS V14.00,2013-05-23 19:04:00,
2013-05-23 14:05:00,70.0,56.4,30.06,NW,315,7.0,15.0,62,0.00,,---,0.00,VWS V14.00,2013-05-23 19:05:00,
2013-05-23 14:06:00,70.0,56.4,30.06,NW,315,11.0,13.0,62,0.00,,---,0.00,VWS V14.00,2013-05-23 19:06:00,
2013-05-23 14:07:00,71.0,57.3,30.06,NNW,338,13.0,14.0,62,0.00,,---,0.00,VWS V14.00,2013-05-23 19:07:00,
2013-05-23 14:08:00,71.0,57.3,30.06,NNW,338,11.0,14.0,62,0.00,,---,0.00,VWS V14.00,2013-05-23 19:08:00,
2013-05-23 14:09:00,71.0,57.3,30.06,WNW,292,10.0,11.0,62,0.00,,---,0.00,VWS V14.00,2013-05-23 19:09:00,
2013-05-23 14:10:00,70.0,55.0,30.06,NW,315,13.0,15.0,59,0.00,,---,0.00,VWS V14.00,2013-05-23 19:10:00,
2013-05-23 14:11:00,71.0,56.0,30.06,WNW,292,9.0,13.0,59,0.00,,---,0.00,VWS V14.00,2013-05-23 19:11:00,
2013-05-23 14:12:00,71.0,56.4,30.06,WNW,292,11.0,16.0,60,0.00,,---,0.00,VWS V14.00,2013-05-23 19:12:00,
2013-05-23 14:13:00,71.0,56.4,30.06,WNW,292,16.0,17.0,60,0.00,,---,0.00,VWS V14.00,2013-05-23 19:13:00,
2013-05-23 14:14:00,71.0,56.0,30.06,WNW,292,7.0,7.0,59,0.00,,---,0.00,VWS V14.00,2013-05-23 19:14:00,
2013-05-23 14:15:00,71.0,55.5,30.06,NNW,338,10.0,16.0,58,0.00,,---,0.00,VWS V14.00,2013-05-23 19:15:00,
2013-05-23 14:16:00,71.0,57.8,30.06,WNW,292,9.0,14.0,63,0.00,,---,0.00,VWS V14.00,2013-05-23 19:16:00,
2013-05-23 14:17:00,71.0,57.8,30.06,WNW,292,8.0,14.0,63,0.00,,---,0.00,VWS V14.00,2013-05-23 19:17:00,
2013-05-23 14:18:00,71.0,57.3,30.07,WNW,292,11.0,15.0,62,0.00,,---,0.00,VWS V14.00,2013-05-23 19:18:00,
2013-05-23 14:19:00,71.0,56.9,30.07,NW,315,9.0,15.0,61,0.00,,---,0.00,VWS V14.00,2013-05-23 19:19:00,
2013-05-23 14:20:00,71.0,56.4,30.06,NNW,338,11.0,12.0,60,0.00,,---,0.00,VWS V14.00,2013-05-23 19:20:00,
2013-05-23 14:21:00,70.0,55.5,30.07,NW,315,8.0,16.0,60,0.00,,---,0.00,VWS V14.00,2013-05-23 19:21:00,
2013-05-23 14:22:00,71.0,56.9,30.07,WNW,292,12.0,16.0,61,0.00,,---,0.00,VWS V14.00,2013-05-23 19:22:00,
2013-05-23 14:23:00,71.0,56.0,30.07,WNW,292,12.0,16.0,59,0.00,,---,0.00,VWS V14.00,2013-05-23 19:23:00,
2013-05-23 14:24:00,71.0,56.4,30.07,WNW,292,13.0,14.0,60,0.00,,---,0.00,VWS V14.00,2013-05-23 19:24:00,
2013-05-23 14:25:00,71.0,56.9,30.06,NW,315,14.0,14.0,61,0.00,,---,0.00,VWS V14.00,2013-05-23 19:25:00,
2013-05-23 14:26:00,71.0,56.0,30.07,WNW,292,18.0,18.0,59,0.00,,---,0.00,VWS V14.00,2013-05-23 19:26:00,
2013-05-23 14:27:00,71.0,56.0,30.07,WNW,292,13.0,19.0,59,0.00,,---,0.00,VWS V14.00,2013-05-23 19:27:00,
2013-05-23 14:28:00,71.0,56.9,30.06,WNW,292,14.0,14.0,61,0.00,,---,0.00,VWS V14.00,2013-05-23 19:28:00,
2013-05-23 14:29:00,71.0,56.9,30.06,WNW,292,14.0,14.0,61,0.00,,---,0.00,VWS V14.00,2013-05-23 19:29:00,
2013-05-23 14:30:00,71.0,56.4,30.07,WNW,292,13.0,18.0,60,0.00,,---,0.00,VWS V14.00,2013-05-23 19:30:00,
2013-05-23 14:31:00,72.0,57.8,30.07,WNW,292,16.0,18.0,61,0.00,,---,0.00,VWS V14.00,2013-05-23 19:31:00,
2013-05-23 14:32:00,72.0,57.4,30.07,WNW,292,19.0,19.0,60,0.00,,---,0.00,VWS V14.00,2013-05-23 19:32:00,
2013-05-23 14:33:00,71.0,56.0,30.07,NW,315,18.0,18.0,59,0.00,,---,0.00,VWS V14.00,2013-05-23 19:33:00,
2013-05-23 14:34:00,71.0,56.0,30.07,WNW,292,20.0,22.0,59,0.00,,---,0.00,VWS V14.00,2013-05-23 19:34:00,
2013-05-23 14:35:00,71.0,56.4,30.06,WNW,292,9.0,20.0,60,0.00,,---,0.00,VWS V14.00,2013-05-23 19:35:00,
2013-05-23 14:36:00,71.0,56.9,30.07,WNW,292,10.0,13.0,61,0.00,,---,0.00,VWS V14.00,2013-05-23 19:36:00,
2013-05-23 14:37:00,71.0,56.4,30.06,NW,315,10.0,11.0,60,0.00,,---,0.00,VWS V14.00,2013-05-23 19:37:00,
2013-05-23 14:38:00,71.0,56.4,30.07,WNW,292,14.0,19.0,60,0.00,,---,0.00,VWS V14.00,2013-05-23 19:38:00,
2013-05-23 14:39:00,71.0,56.0,30.06,WNW,292,14.0,14.0,59,0.00,,---,0.00,VWS V14.00,2013-05-23 19:39:00,
2013-05-23 14:40:00,72.0,57.8,30.06,West,270,11.0,11.0,61,0.00,,---,0.00,VWS V14.00,2013-05-23 19:40:00,
2013-05-23 14:41:00,72.0,57.8,30.06,NW,315,7.0,15.0,61,0.00,,---,0.00,VWS V14.00,2013-05-23 19:41:00,
2013-05-23 14:42:00,72.0,58.3,30.07,WNW,292,8.0,14.0,62,0.00,,---,0.00,VWS V14.00,2013-05-23 19:42:00,
2013-05-23 14:43:00,72.0,57.8,30.06,NNW,338,14.0,16.0,61,0.00,,---,0.00,VWS V14.00,2013-05-23 19:43:00,
2013-05-23 14:44:00,71.0,56.0,30.06,NNW,338,18.0,18.0,59,0.00,,---,0.00,VWS V14.00,2013-05-23 19:44:00,
2013-05-23 14:45:00,71.0,56.9,30.06,WNW,292,14.0,16.0,61,0.00,,---,0.00,VWS V14.00,2013-05-23 19:45:00,
2013-05-23 14:46:00,71.0,57.3,30.07,WNW,292,16.0,18.0,62,0.00,,---,0.00,VWS V14.00,2013-05-23 19:46:00,
2013-05-23 14:47:00,71.0,57.3,30.07,NW,315,9.0,9.0,62,0.00,,---,0.00,VWS V14.00,2013-05-23 19:47:00,
2013-05-23 14:48:00,70.0,55.5,30.07,NNW,338,8.0,19.0,60,0.00,,---,0.00,VWS V14.00,2013-05-23 19:48:00,
2013-05-23 14:49:00,70.0,56.0,30.06,NW,315,9.0,12.0,61,0.00,,---,0.00,VWS V14.00,2013-05-23 19:49:00,
2013-05-23 14:50:00,70.0,56.0,30.07,NW,315,6.0,13.0,61,0.00,,---,0.00,VWS V14.00,2013-05-23 19:50:00,
2013-05-23 14:51:00,70.0,56.4,30.07,WNW,292,12.0,13.0,62,0.00,,---,0.00,VWS V14.00,2013-05-23 19:51:00,
2013-05-23 14:52:00,70.0,56.4,30.07,WNW,292,15.0,18.0,62,0.00,,---,0.00,VWS V14.00,2013-05-23 19:52:00,
2013-05-23 14:53:00,71.0,58.2,30.07,NW,315,11.0,18.0,64,0.00,,---,0.00,VWS V14.00,2013-05-23 19:53:00,
2013-05-23 14:54:00,71.0,57.8,30.06,NW,315,8.0,8.0,63,0.00,,---,0.00,VWS V14.00,2013-05-23 19:54:00,
2013-05-23 14:55:00,71.0,56.9,30.06,NW,315,10.0,19.0,61,0.00,,---,0.00,VWS V14.00,2013-05-23 19:55:00,
2013-05-23 14:56:00,71.0,56.9,30.07,NW,315,10.0,11.0,61,0.00,,---,0.00,VWS V14.00,2013-05-23 19:56:00,
2013-05-23 14:57:00,71.0,57.3,30.07,WNW,292,10.0,11.0,62,0.00,,---,0.00,VWS V14.00,2013-05-23 19:57:00,
2013-05-23 14:58:00,71.0,57.8,30.07,WNW,292,11.0,16.0,63,0.00,,---,0.00,VWS V14.00,2013-05-23 19:58:00,
2013-05-23 14:59:00,71.0,56.9,30.07,NW,315,12.0,15.0,61,0.00,,---,0.00,VWS V14.00,2013-05-23 19:59:00,
2013-05-23 15:00:00,71.0,56.9,30.07,NW,315,10.0,15.0,61,0.00,,---,0.00,VWS V14.00,2013-05-23 20:00:00,
2013-05-23 15:01:00,72.0,58.3,30.07,WNW,292,14.0,16.0,62,0.00,,---,0.00,VWS V14.00,2013-05-23 20:01:00,
2013-05-23 15:02:00,72.0,59.6,30.07,WNW,292,19.0,19.0,65,0.00,,---,0.00,VWS V14.00,2013-05-23 20:02:00,
2013-05-23 15:03:00,72.0,57.8,30.07,WNW,292,14.0,18.0,61,0.00,,---,0.00,VWS V14.00,2013-05-23 20:03:00,
2013-05-23 15:04:00,72.0,57.8,30.07,WNW,292,15.0,17.0,61,0.00,,---,0.00,VWS V14.00,2013-05-23 20:04:00,
2013-05-23 15:05:00,71.0,56.4,30.07,WNW,292,16.0,19.0,60,0.00,,---,0.00,VWS V14.00,2013-05-23 20:05:00,
2013-05-23 15:06:00,71.0,56.4,30.07,NW,315,9.0,19.0,60,0.00,,---,0.00,VWS V14.00,2013-05-23 20:06:00,
2013-05-23 15:07:00,71.0,56.9,30.07,WNW,292,8.0,15.0,61,0.00,,---,0.00,VWS V14.00,2013-05-23 20:07:00,
2013-05-23 15:08:00,72.0,58.7,30.07,NNW,338,6.0,14.0,63,0.00,,---,0.00,VWS V14.00,2013-05-23 20:08:00,
2013-05-23 15:09:00,72.0,58.3,30.07,NW,315,7.0,12.0,62,0.00,,---,0.00,VWS V14.00,2013-05-23 20:09:00,
2013-05-23 15:10:00,72.0,57.8,30.07,WNW,292,13.0,17.0,61,0.00,,---,0.00,VWS V14.00,2013-05-23 20:10:00,
2013-05-23 15:11:00,72.0,57.8,30.07,NW,315,13.0,13.0,61,0.00,,---,0.00,VWS V14.00,2013-05-23 20:11:00,
2013-05-23 15:12:00,72.0,57.4,30.07,WNW,292,16.0,20.0,60,0.00,,---,0.00,VWS V14.00,2013-05-23 20:12:00,
2013-05-23 15:13:00,71.0,56.4,30.07,WNW,292,14.0,20.0,60,0.00,,---,0.00,VWS V14.00,2013-05-23 20:13:00,
2013-05-23 15:14:00,71.0,56.4,30.07,WNW,292,12.0,12.0,60,0.00,,---,0.00,VWS V14.00,2013-05-23 20:14:00,
2013-05-23 15:15:00,71.0,57.3,30.07,WNW,292,16.0,16.0,62,0.00,,---,0.00,VWS V14.00,2013-05-23 20:15:00,
2013-05-23 15:16:00,71.0,57.3,30.07,NW,315,12.0,14.0,62,0.00,,---,0.00,VWS V14.00,2013-05-23 20:16:00,
2013-05-23 15:17:00,71.0,56.4,30.07,NW,315,18.0,19.0,60,0.00,,---,0.00,VWS V14.00,2013-05-23 20:17:00,
2013-05-23 15:18:00,71.0,56.9,30.07,WNW,292,21.0,23.0,61,0.00,,---,0.00,VWS V14.00,2013-05-23 20:18:00,
2013-05-23 15:19:00,71.0,57.3,30.07,WNW,292,10.0,19.0,62,0.00,,---,0.00,VWS V14.00,2013-05-23 20:19:00,
2013-05-23 15:20:00,71.0,57.3,30.07,NNW,338,16.0,16.0,62,0.00,,---,0.00,VWS V14.00,2013-05-23 20:20:00,
2013-05-23 15:21:00,71.0,56.9,30.07,NW,315,10.0,16.0,61,0.00,,---,0.00,VWS V14.00,2013-05-23 20:21:00,
2013-05-23 15:22:00,71.0,57.3,30.07,NW,315,14.0,16.0,62,0.00,,---,0.00,VWS V14.00,2013-05-23 20:22:00,
2013-05-23 15:23:00,71.0,56.9,30.07,NNW,338,8.0,18.0,61,0.00,,---,0.00,VWS V14.00,2013-05-23 20:23:00,
2013-05-23 15:24:00,71.0,57.3,30.07,WNW,292,12.0,16.0,62,0.00,,---,0.00,VWS V14.00,2013-05-23 20:24:00,
2013-05-23 15:25:00,71.0,57.3,30.07,NW,315,7.0,8.0,62,0.00,,---,0.00,VWS V14.00,2013-05-23 20:25:00,
2013-05-23 15:26:00,71.0,57.8,30.07,WNW,292,9.0,9.0,63,0.00,,---,0.00,VWS V14.00,2013-05-23 20:26:00,
2013-05-23 15:27:00,71.0,57.3,30.07,NW,315,11.0,13.0,62,0.00,,---,0.00,VWS V14.00,2013-05-23 20:27:00,
2013-05-23 15:28:00,71.0,57.3,30.07,WNW,292,17.0,18.0,62,0.00,,---,0.00,VWS V14.00,2013-05-23 20:28:00,
2013-05-23 15:29:00,71.0,57.3,30.07,NW,315,8.0,19.0,62,0.00,,---,0.00,VWS V14.00,2013-05-23 20:29:00,
2013-05-23 15:30:00,71.0,57.3,30.07,NW,315,10.0,14.0,62,0.00,,---,0.00,VWS V14.00,2013-05-23 20:30:00,
2013-05-23 15:31:00,71.0,57.3,30.07,NW,315,12.0,18.0,62,0.00,,---,0.00,VWS V14.00,2013-05-23 20:31:00,
2013-05-23 15:32:00,71.0,57.3,30.07,NNW,338,9.0,16.0,62,0.00,,---,0.00,VWS V14.00,2013-05-23 20:32:00,
2013-05-23 15:33:00,71.0,57.3,30.07,NNW,338,5.0,13.0,62,0.00,,---,0.00,VWS V14.00,2013-05-23 20:33:00,
2013-05-23 15:34:00,71.0,57.3,30.07,NW,315,7.0,7.0,62,0.00,,---,0.00,VWS V14.00,2013-05-23 20:34:00,
2013-05-23 15:35:00,71.0,57.8,30.07,NW,315,10.0,14.0,63,0.00,,---,0.00,VWS V14.00,2013-05-23 20:35:00,
2013-05-23 15:36:00,72.0,59.2,30.07,NNW,338,15.0,18.0,64,0.00,,---,0.00,VWS V14.00,2013-05-23 20:36:00,
2013-05-23 15:37:00,71.0,57.3,30.07,NNW,338,16.0,22.0,62,0.00,,---,0.00,VWS V14.00,2013-05-23 20:37:00,
2013-05-23 15:38:00,71.0,57.8,30.07,NNW,338,18.0,21.0,63,0.00,,---,0.00,VWS V14.00,2013-05-23 20:38:00,
2013-05-23 15:39:00,71.0,57.3,30.07,NW,315,10.0,19.0,62,0.00,,---,0.00,VWS V14.00,2013-05-23 20:39:00,
2013-05-23 15:40:00,72.0,59.2,30.07,NW,315,8.0,8.0,64,0.00,,---,0.00,VWS V14.00,2013-05-23 20:40:00,
2013-05-23 15:41:00,72.0,58.7,30.07,NNW,338,16.0,18.0,63,0.00,,---,0.00,VWS V14.00,2013-05-23 20:41:00,
2013-05-23 15:42:00,71.0,57.3,30.07,NNW,338,23.0,23.0,62,0.00,,---,0.00,VWS V14.00,2013-05-23 20:42:00,
2013-05-23 15:43:00,71.0,57.8,30.07,NW,315,10.0,11.0,63,0.00,,---,0.00,VWS V14.00,2013-05-23 20:43:00,
2013-05-23 15:44:00,71.0,57.8,30.07,NNW,338,14.0,17.0,63,0.00,,---,0.00,VWS V14.00,2013-05-23 20:44:00,
2013-05-23 15:45:00,71.0,57.8,30.07,NW,315,11.0,14.0,63,0.00,,---,0.00,VWS V14.00,2013-05-23 20:45:00,
2013-05-23 15:46:00,71.0,57.3,30.07,NNW,338,18.0,19.0,62,0.00,,---,0.00,VWS V14.00,2013-05-23 20:46:00,
2013-05-23 15:47:00,71.0,57.3,30.07,NW,315,10.0,10.0,62,0.00,,---,0.00,VWS V14.00,2013-05-23 20:47:00,
2013-05-23 15:48:00,71.0,57.8,30.07,NW,315,11.0,11.0,63,0.00,,---,0.00,VWS V14.00,2013-05-23 20:48:00,
2013-05-23 15:49:00,71.0,58.2,30.07,WNW,292,6.0,13.0,64,0.00,,---,0.00,VWS V14.00,2013-05-23 20:49:00,
2013-05-23 15:50:00,71.0,57.8,30.07,WNW,292,12.0,13.0,63,0.00,,---,0.00,VWS V14.00,2013-05-23 20:50:00,
2013-05-23 15:51:00,71.0,57.8,30.07,NW,315,15.0,15.0,63,0.00,,---,0.00,VWS V14.00,2013-05-23 20:51:00,
2013-05-23 15:52:00,71.0,57.8,30.07,NW,315,6.0,17.0,63,0.00,,---,0.00,VWS V14.00,2013-05-23 20:52:00,
2013-05-23 15:53:00,71.0,58.2,30.08,WNW,292,8.0,13.0,64,0.00,,---,0.00,VWS V14.00,2013-05-23 20:53:00,
2013-05-23 15:54:00,70.0,56.8,30.08,NW,315,9.0,9.0,63,0.00,,---,0.00,VWS V14.00,2013-05-23 20:54:00,
2013-05-23 15:55:00,71.0,58.7,30.08,WNW,292,8.0,14.0,65,0.00,,---,0.00,VWS V14.00,2013-05-23 20:55:00,
2013-05-23 15:56:00,71.0,58.2,30.08,WNW,292,14.0,16.0,64,0.00,,---,0.00,VWS V14.00,2013-05-23 20:56:00,
2013-05-23 15:57:00,71.0,58.2,30.08,WNW,292,11.0,14.0,64,0.00,,---,0.00,VWS V14.00,2013-05-23 20:57:00,
2013-05-23 15:58:00,71.0,58.2,30.08,WNW,292,6.0,14.0,64,0.00,,---,0.00,VWS V14.00,2013-05-23 20:58:00,
2013-05-23 15:59:00,71.0,58.7,30.08,NW,315,8.0,14.0,65,0.00,,---,0.00,VWS V14.00,2013-05-23 20:59:00,
2013-05-23 16:00:00,72.0,60.0,30.08,NW,315,15.0,15.0,66,0.00,,---,0.00,VWS V14.00,2013-05-23 21:00:00,
2013-05-23 16:01:00,72.0,59.6,30.08,NNW,338,13.0,15.0,65,0.00,,---,0.00,VWS V14.00,2013-05-23 21:01:00,
2013-05-23 16:02:00,72.0,59.6,30.08,NW,315,8.0,9.0,65,0.00,,---,0.00,VWS V14.00,2013-05-23 21:02:00,
2013-05-23 16:03:00,72.0,59.2,30.08,WNW,292,8.0,8.0,64,0.00,,---,0.00,VWS V14.00,2013-05-23 21:03:00,
2013-05-23 16:04:00,71.0,58.2,30.08,WNW,292,10.0,14.0,64,0.00,,---,0.00,VWS V14.00,2013-05-23 21:04:00,
2013-05-23 16:05:00,71.0,57.8,30.08,NW,315,7.0,7.0,63,0.00,,---,0.00,VWS V14.00,2013-05-23 21:05:00,
2013-05-23 16:06:00,71.0,57.8,30.08,NW,315,6.0,11.0,63,0.00,,---,0.00,VWS V14.00,2013-05-23 21:06:00,
2013-05-23 16:07:00,71.0,58.2,30.08,NW,315,11.0,11.0,64,0.00,,---,0.00,VWS V14.00,2013-05-23 21:07:00,
2013-05-23 16:08:00,70.0,57.7,30.08,NW,315,13.0,18.0,65,0.00,,---,0.00,VWS V14.00,2013-05-23 21:08:00,
2013-05-23 16:09:00,70.0,57.3,30.08,NW,315,14.0,21.0,64,0.00,,---,0.00,VWS V14.00,2013-05-23 21:09:00,
2013-05-23 16:10:00,70.0,57.7,30.08,NNW,338,13.0,19.0,65,0.00,,---,0.00,VWS V14.00,2013-05-23 21:10:00,
2013-05-23 16:11:00,70.0,57.7,30.08,NNW,338,17.0,19.0,65,0.00,,---,0.00,VWS V14.00,2013-05-23 21:11:00,
2013-05-23 16:12:00,70.0,58.1,30.08,NNW,338,10.0,18.0,66,0.00,,---,0.00,VWS V14.00,2013-05-23 21:12:00,
2013-05-23 16:13:00,69.0,57.6,30.08,WNW,292,8.0,13.0,67,0.00,,---,0.00,VWS V14.00,2013-05-23 21:13:00,
2013-05-23 16:14:00,70.0,59.0,30.08,WNW,292,8.0,14.0,68,0.00,,---,0.00,VWS V14.00,2013-05-23 21:14:00,
2013-05-23 16:15:00,69.0,57.6,30.08,NNW,338,12.0,16.0,67,0.00,,---,0.00,VWS V14.00,2013-05-23 21:15:00,
2013-05-23 16:16:00,70.0,58.5,30.08,NW,315,14.0,14.0,67,0.00,,---,0.00,VWS V14.00,2013-05-23 21:16:00,
2013-05-23 16:17:00,69.0,57.2,30.08,NNW,338,18.0,18.0,66,0.00,,---,0.00,VWS V14.00,2013-05-23 21:17:00,
2013-05-23 16:18:00,69.0,57.6,30.08,NW,315,8.0,18.0,67,0.00,,---,0.00,VWS V14.00,2013-05-23 21:18:00,
2013-05-23 16:19:00,70.0,59.0,30.08,NW,315,10.0,10.0,68,0.00,,---,0.00,VWS V14.00,2013-05-23 21:19:00,
2013-05-23 16:20:00,69.0,57.6,30.08,NW,315,14.0,21.0,67,0.00,,---,0.00,VWS V14.00,2013-05-23 21:20:00,
2013-05-23 16:21:00,69.0,57.6,30.08,NNW,338,14.0,19.0,67,0.00,,---,0.00,VWS V14.00,2013-05-23 21:21:00,
2013-05-23 16:22:00,70.0,58.5,30.08,NNW,338,8.0,12.0,67,0.00,,---,0.00,VWS V14.00,2013-05-23 21:22:00,
2013-05-23 16:23:00,70.0,59.0,30.08,WNW,292,5.0,13.0,68,0.00,,---,0.00,VWS V14.00,2013-05-23 21:23:00,
2013-05-23 16:24:00,70.0,59.0,30.08,WNW,292,6.0,14.0,68,0.00,,---,0.00,VWS V14.00,2013-05-23 21:24:00,
2013-05-23 16:25:00,70.0,58.5,30.08,NW,315,9.0,10.0,67,0.00,,---,0.00,VWS V14.00,2013-05-23 21:25:00,
2013-05-23 16:26:00,70.0,58.5,30.08,NW,315,7.0,16.0,67,0.00,,---,0.00,VWS V14.00,2013-05-23 21:26:00,
2013-05-23 16:27:00,70.0,58.5,30.09,WNW,292,6.0,7.0,67,0.00,,---,0.00,VWS V14.00,2013-05-23 21:27:00,
2013-05-23 16:28:00,70.0,59.0,30.09,NW,315,11.0,13.0,68,0.00,,---,0.00,VWS V14.00,2013-05-23 21:28:00,
2013-05-23 16:29:00,69.0,57.6,30.09,NW,315,8.0,13.0,67,0.00,,---,0.00,VWS V14.00,2013-05-23 21:29:00,
2013-05-23 16:30:00,70.0,58.5,30.09,NW,315,16.0,16.0,67,0.00,,---,0.00,VWS V14.00,2013-05-23 21:30:00,
2013-05-23 16:31:00,69.0,58.0,30.09,NNW,338,10.0,10.0,68,0.00,,---,0.00,VWS V14.00,2013-05-23 21:31:00,
2013-05-23 16:32:00,69.0,58.0,30.09,NNW,338,21.0,24.0,68,0.00,,---,0.00,VWS V14.00,2013-05-23 21:32:00,
2013-05-23 16:33:00,69.0,58.0,30.09,WNW,292,10.0,10.0,68,0.00,,---,0.00,VWS V14.00,2013-05-23 21:33:00,
2013-05-23 16:34:00,69.0,58.0,30.09,WNW,292,11.0,19.0,68,0.00,,---,0.00,VWS V14.00,2013-05-23 21:34:00,
2013-05-23 16:35:00,69.0,58.0,30.09,NNW,338,11.0,24.0,68,0.00,,---,0.00,VWS V14.00,2013-05-23 21:35:00,
2013-05-23 16:36:00,69.0,58.0,30.09,NW,315,16.0,21.0,68,0.00,,---,0.00,VWS V14.00,2013-05-23 21:36:00,
2013-05-23 16:37:00,69.0,58.0,30.08,NNW,338,14.0,21.0,68,0.00,,---,0.00,VWS V14.00,2013-05-23 21:37:00,
2013-05-23 16:38:00,69.0,58.4,30.08,NNW,338,13.0,18.0,69,0.00,,---,0.00,VWS V14.00,2013-05-23 21:38:00,
2013-05-23 16:39:00,69.0,58.0,30.08,NNW,338,17.0,21.0,68,0.00,,---,0.00,VWS V14.00,2013-05-23 21:39:00,
2013-05-23 16:40:00,69.0,58.0,30.09,WNW,292,13.0,16.0,68,0.00,,---,0.00,VWS V14.00,2013-05-23 21:40:00,
2013-05-23 16:41:00,70.0,59.0,30.08,NNW,338,17.0,23.0,68,0.00,,---,0.00,VWS V14.00,2013-05-23 21:41:00,
2013-05-23 16:42:00,69.0,58.0,30.09,NW,315,17.0,18.0,68,0.00,,---,0.00,VWS V14.00,2013-05-23 21:42:00,
2013-05-23 16:43:00,69.0,58.0,30.08,NW,315,11.0,19.0,68,0.00,,---,0.00,VWS V14.00,2013-05-23 21:43:00,
2013-05-23 16:44:00,69.0,58.0,30.08,NNW,338,17.0,17.0,68,0.00,,---,0.00,VWS V14.00,2013-05-23 21:44:00,
2013-05-23 16:45:00,69.0,58.4,30.08,NW,315,13.0,16.0,69,0.00,,---,0.00,VWS V14.00,2013-05-23 21:45:00,
2013-05-23 16:46:00,69.0,58.8,30.09,NW,315,14.0,17.0,70,0.00,,---,0.00,VWS V14.00,2013-05-23 21:46:00,
2013-05-23 16:47:00,70.0,59.8,30.08,NNW,338,10.0,15.0,70,0.00,,---,0.00,VWS V14.00,2013-05-23 21:47:00,
2013-05-23 16:48:00,70.0,59.0,30.08,NNW,338,11.0,11.0,68,0.00,,---,0.00,VWS V14.00,2013-05-23 21:48:00,
2013-05-23 16:49:00,69.0,58.0,30.08,NNW,338,10.0,16.0,68,0.00,,---,0.00,VWS V14.00,2013-05-23 21:49:00,
2013-05-23 16:50:00,70.0,59.4,30.09,NW,315,6.0,14.0,69,0.00,,---,0.00,VWS V14.00,2013-05-23 21:50:00,
2013-05-23 16:51:00,70.0,59.4,30.09,NW,315,8.0,10.0,69,0.00,,---,0.00,VWS V14.00,2013-05-23 21:51:00,
2013-05-23 16:52:00,69.0,58.4,30.09,NW,315,16.0,18.0,69,0.00,,---,0.00,VWS V14.00,2013-05-23 21:52:00,
2013-05-23 16:53:00,69.0,58.0,30.09,NNW,338,7.0,7.0,68,0.00,,---,0.00,VWS V14.00,2013-05-23 21:53:00,
2013-05-23 16:54:00,69.0,58.0,30.09,North,0,17.0,21.0,68,0.00,,---,0.00,VWS V14.00,2013-05-23 21:54:00,
2013-05-23 16:55:00,69.0,58.0,30.09,NNW,338,13.0,23.0,68,0.00,,---,0.00,VWS V14.00,2013-05-23 21:55:00,
2013-05-23 16:56:00,69.0,58.4,30.09,NNW,338,11.0,13.0,69,0.00,,---,0.00,VWS V14.00,2013-05-23 21:56:00,
2013-05-23 16:57:00,69.0,58.8,30.09,NW,315,7.0,13.0,70,0.00,,---,0.00,VWS V14.00,2013-05-23 21:57:00,
2013-05-23 16:58:00,69.0,58.4,30.09,NW,315,6.0,6.0,69,0.00,,---,0.00,VWS V14.00,2013-05-23 21:58:00,
2013-05-23 16:59:00,69.0,58.4,30.09,NNW,338,11.0,16.0,69,0.00,,---,0.00,VWS V14.00,2013-05-23 21:59:00,
2013-05-23 17:00:00,69.0,58.4,30.09,NNW,338,16.0,16.0,69,0.00,,---,0.00,VWS V14.00,2013-05-23 22:00:00,
2013-05-23 17:01:00,69.0,58.4,30.09,NW,315,18.0,21.0,69,0.00,,---,0.00,VWS V14.00,2013-05-23 22:01:00,
2013-05-23 17:02:00,69.0,58.4,30.09,NNW,338,14.0,17.0,69,0.00,,---,0.00,VWS V14.00,2013-05-23 22:02:00,
2013-05-23 17:03:00,69.0,58.4,30.09,NW,315,18.0,19.0,69,0.00,,---,0.00,VWS V14.00,2013-05-23 22:03:00,
2013-05-23 17:04:00,69.0,58.0,30.09,NNW,338,19.0,21.0,68,0.00,,---,0.00,VWS V14.00,2013-05-23 22:04:00,
2013-05-23 17:05:00,69.0,58.0,30.09,NNW,338,19.0,23.0,68,0.00,,---,0.00,VWS V14.00,2013-05-23 22:05:00,
2013-05-23 17:06:00,69.0,58.4,30.09,NW,315,12.0,20.0,69,0.00,,---,0.00,VWS V14.00,2013-05-23 22:06:00,
2013-05-23 17:07:00,69.0,58.4,30.09,WNW,292,8.0,16.0,69,0.00,,---,0.00,VWS V14.00,2013-05-23 22:07:00,
2013-05-23 17:08:00,68.0,57.5,30.09,NW,315,10.0,10.0,69,0.00,,---,0.00,VWS V14.00,2013-05-23 22:08:00,
2013-05-23 17:09:00,68.0,57.5,30.09,NW,315,7.0,15.0,69,0.00,,---,0.00,VWS V14.00,2013-05-23 22:09:00,
2013-05-23 17:10:00,68.0,57.5,30.09,NW,315,19.0,19.0,69,0.00,,---,0.00,VWS V14.00,2013-05-23 22:10:00,
2013-05-23 17:11:00,68.0,57.9,30.09,NNW,338,7.0,9.0,70,0.00,,---,0.00,VWS V14.00,2013-05-23 22:11:00,
2013-05-23 17:12:00,68.0,57.9,30.09,WNW,292,8.0,14.0,70,0.00,,---,0.00,VWS V14.00,2013-05-23 22:12:00,
2013-05-23 17:13:00,68.0,57.9,30.09,NW,315,6.0,6.0,70,0.00,,---,0.00,VWS V14.00,2013-05-23 22:13:00,
2013-05-23 17:14:00,68.0,57.9,30.09,NNW,338,16.0,18.0,70,0.00,,---,0.00,VWS V14.00,2013-05-23 22:14:00,
2013-05-23 17:15:00,68.0,57.9,30.09,West,270,8.0,18.0,70,0.00,,---,0.00,VWS V14.00,2013-05-23 22:15:00,
2013-05-23 17:16:00,68.0,58.7,30.09,WNW,292,7.0,14.0,72,0.00,,---,0.00,VWS V14.00,2013-05-23 22:16:00,
2013-05-23 17:17:00,68.0,58.7,30.09,WNW,292,10.0,10.0,72,0.00,,---,0.00,VWS V14.00,2013-05-23 22:17:00,
2013-05-23 17:18:00,68.0,58.3,30.09,NW,315,5.0,14.0,71,0.00,,---,0.00,VWS V14.00,2013-05-23 22:18:00,
2013-05-23 17:19:00,68.0,57.9,30.09,NW,315,10.0,10.0,70,0.00,,---,0.00,VWS V14.00,2013-05-23 22:19:00,
2013-05-23 17:20:00,69.0,59.2,30.09,North,0,11.0,11.0,71,0.00,,---,0.00,VWS V14.00,2013-05-23 22:20:00,
2013-05-23 17:21:00,68.0,58.7,30.09,NW,315,11.0,13.0,72,0.00,,---,0.00,VWS V14.00,2013-05-23 22:21:00,
2013-05-23 17:22:00,68.0,58.3,30.09,NNW,338,8.0,8.0,71,0.00,,---,0.00,VWS V14.00,2013-05-23 22:22:00,
2013-05-23 17:23:00,68.0,58.3,30.09,WNW,292,7.0,18.0,71,0.00,,---,0.00,VWS V14.00,2013-05-23 22:23:00,
2013-05-23 17:24:00,68.0,58.3,30.09,NNW,338,19.0,19.0,71,0.00,,---,0.00,VWS V14.00,2013-05-23 22:24:00,
2013-05-23 17:25:00,68.0,58.3,30.09,NW,315,6.0,19.0,71,0.00,,---,0.00,VWS V14.00,2013-05-23 22:25:00,
2013-05-23 17:26:00,68.0,58.3,30.09,NNW,338,8.0,12.0,71,0.00,,---,0.00,VWS V14.00,2013-05-23 22:26:00,
2013-05-23 17:27:00,68.0,58.3,30.09,NW,315,11.0,12.0,71,0.00,,---,0.00,VWS V14.00,2013-05-23 22:27:00,
2013-05-23 17:28:00,68.0,58.3,30.09,NW,315,19.0,21.0,71,0.00,,---,0.00,VWS V14.00,2013-05-23 22:28:00,
2013-05-23 17:29:00,68.0,58.3,30.09,NNW,338,14.0,16.0,71,0.00,,---,0.00,VWS V14.00,2013-05-23 22:29:00,
2013-05-23 17:30:00,68.0,58.3,30.09,NNW,338,17.0,19.0,71,0.00,,---,0.00,VWS V14.00,2013-05-23 22:30:00,
2013-05-23 17:31:00,68.0,58.7,30.09,NNW,338,12.0,14.0,72,0.00,,---,0.00,VWS V14.00,2013-05-23 22:31:00,
2013-05-23 17:32:00,68.0,58.7,30.09,NW,315,11.0,19.0,72,0.00,,---,0.00,VWS V14.00,2013-05-23 22:32:00,
2013-05-23 17:33:00,68.0,58.7,30.09,NW,315,13.0,18.0,72,0.00,,---,0.00,VWS V14.00,2013-05-23 22:33:00,
2013-05-23 17:34:00,68.0,58.7,30.09,NNW,338,11.0,11.0,72,0.00,,---,0.00,VWS V14.00,2013-05-23 22:34:00,
2013-05-23 17:35:00,68.0,58.7,30.09,NNW,338,18.0,19.0,72,0.00,,---,0.00,VWS V14.00,2013-05-23 22:35:00,
2013-05-23 17:36:00,68.0,58.7,30.09,WNW,292,5.0,18.0,72,0.00,,---,0.00,VWS V14.00,2013-05-23 22:36:00,
2013-05-23 17:37:00,68.0,58.7,30.09,NW,315,10.0,10.0,72,0.00,,---,0.00,VWS V14.00,2013-05-23 22:37:00,
2013-05-23 17:38:00,67.0,57.7,30.09,WNW,292,10.0,15.0,72,0.00,,---,0.00,VWS V14.00,2013-05-23 22:38:00,
2013-05-23 17:39:00,67.0,57.7,30.10,NW,315,16.0,21.0,72,0.00,,---,0.00,VWS V14.00,2013-05-23 22:39:00,
2013-05-23 17:40:00,67.0,58.1,30.10,NW,315,12.0,18.0,73,0.00,,---,0.00,VWS V14.00,2013-05-23 22:40:00,
2013-05-23 17:41:00,67.0,58.1,30.10,WNW,292,7.0,14.0,73,0.00,,---,0.00,VWS V14.00,2013-05-23 22:41:00,
2013-05-23 17:42:00,67.0,58.1,30.10,NW,315,6.0,13.0,73,0.00,,---,0.00,VWS V14.00,2013-05-23 22:42:00,
2013-05-23 17:43:00,67.0,58.5,30.10,WNW,292,10.0,13.0,74,0.00,,---,0.00,VWS V14.00,2013-05-23 22:43:00,
2013-05-23 17:44:00,67.0,58.5,30.10,NW,315,13.0,17.0,74,0.00,,---,0.00,VWS V14.00,2013-05-23 22:44:00,
2013-05-23 17:45:00,67.0,58.5,30.10,NW,315,7.0,7.0,74,0.00,,---,0.00,VWS V14.00,2013-05-23 22:45:00,
2013-05-23 17:46:00,67.0,58.8,30.10,WNW,292,10.0,11.0,75,0.00,,---,0.00,VWS V14.00,2013-05-23 22:46:00,
2013-05-23 17:47:00,67.0,58.5,30.10,NW,315,13.0,14.0,74,0.00,,---,0.00,VWS V14.00,2013-05-23 22:47:00,
2013-05-23 17:48:00,67.0,58.5,30.10,WNW,292,7.0,12.0,74,0.00,,---,0.00,VWS V14.00,2013-05-23 22:48:00,
2013-05-23 17:49:00,67.0,58.5,30.10,NNW,338,13.0,13.0,74,0.00,,---,0.00,VWS V14.00,2013-05-23 22:49:00,
2013-05-23 17:50:00,67.0,58.5,30.10,NW,315,10.0,13.0,74,0.00,,---,0.00,VWS V14.00,2013-05-23 22:50:00,
2013-05-23 17:51:00,67.0,58.5,30.10,North,0,19.0,19.0,74,0.00,,---,0.00,VWS V14.00,2013-05-23 22:51:00,
2013-05-23 17:52:00,67.0,58.1,30.10,NNW,338,15.0,19.0,73,0.00,,---,0.00,VWS V14.00,2013-05-23 22:52:00,
2013-05-23 17:53:00,67.0,58.5,30.10,NW,315,16.0,16.0,74,0.00,,---,0.00,VWS V14.00,2013-05-23 22:53:00,
2013-05-23 17:54:00,67.0,58.5,30.10,NW,315,6.0,17.0,74,0.00,,---,0.00,VWS V14.00,2013-05-23 22:54:00,
2013-05-23 17:55:00,67.0,58.5,30.10,WNW,292,8.0,8.0,74,0.00,,---,0.00,VWS V14.00,2013-05-23 22:55:00,
2013-05-23 17:56:00,67.0,58.5,30.10,NNW,338,15.0,15.0,74,0.00,,---,0.00,VWS V14.00,2013-05-23 22:56:00,
2013-05-23 17:57:00,67.0,58.5,30.10,NNW,338,14.0,19.0,74,0.00,,---,0.00,VWS V14.00,2013-05-23 22:57:00,
2013-05-23 17:58:00,67.0,58.5,30.10,NNW,338,14.0,16.0,74,0.00,,---,0.00,VWS V14.00,2013-05-23 22:58:00,
2013-05-23 17:59:00,67.0,58.5,30.10,NNW,338,18.0,18.0,74,0.00,,---,0.00,VWS V14.00,2013-05-23 22:59:00,
2013-05-23 18:00:00,67.0,58.5,30.10,NW,315,8.0,9.0,74,0.00,,---,0.00,VWS V14.00,2013-05-23 23:00:00,
2013-05-23 18:01:00,67.0,58.5,30.10,NNW,338,11.0,11.0,74,0.00,,---,0.00,VWS V14.00,2013-05-23 23:01:00,
2013-05-23 18:02:00,67.0,58.5,30.10,NNW,338,11.0,13.0,74,0.00,,---,0.00,VWS V14.00,2013-05-23 23:02:00,
2013-05-23 18:03:00,67.0,58.5,30.10,WSW,248,6.0,7.0,74,0.00,,---,0.00,VWS V14.00,2013-05-23 23:03:00,
2013-05-23 18:04:00,67.0,58.5,30.10,NNW,338,11.0,13.0,74,0.00,,---,0.00,VWS V14.00,2013-05-23 23:04:00,
2013-05-23 18:05:00,67.0,58.5,30.10,NNW,338,11.0,11.0,74,0.00,,---,0.00,VWS V14.00,2013-05-23 23:05:00,
2013-05-23 18:06:00,67.0,58.5,30.10,NNW,338,5.0,11.0,74,0.00,,---,0.00,VWS V14.00,2013-05-23 23:06:00,
2013-05-23 18:07:00,67.0,58.8,30.10,NNW,338,12.0,12.0,75,0.00,,---,0.00,VWS V14.00,2013-05-23 23:07:00,
2013-05-23 18:08:00,67.0,58.8,30.10,NW,315,5.0,13.0,75,0.00,,---,0.00,VWS V14.00,2013-05-23 23:08:00,
2013-05-23 18:09:00,67.0,58.8,30.10,NNW,338,10.0,11.0,75,0.00,,---,0.00,VWS V14.00,2013-05-23 23:09:00,
2013-05-23 18:10:00,67.0,58.8,30.10,NNW,338,8.0,11.0,75,0.00,,---,0.00,VWS V14.00,2013-05-23 23:10:00,
2013-05-23 18:11:00,67.0,58.8,30.10,NW,315,8.0,8.0,75,0.00,,---,0.00,VWS V14.00,2013-05-23 23:11:00,
2013-05-23 18:12:00,67.0,58.8,30.10,WNW,292,5.0,12.0,75,0.00,,---,0.00,VWS V14.00,2013-05-23 23:12:00,
2013-05-23 18:13:00,67.0,58.8,30.10,NW,315,6.0,9.0,75,0.00,,---,0.00,VWS V14.00,2013-05-23 23:13:00,
2013-05-23 18:14:00,67.0,59.2,30.10,NW,315,5.0,5.0,76,0.00,,---,0.00,VWS V14.00,2013-05-23 23:14:00,
2013-05-23 18:15:00,67.0,59.2,30.10,NNW,338,9.0,12.0,76,0.00,,---,0.00,VWS V14.00,2013-05-23 23:15:00,
2013-05-23 18:16:00,67.0,59.2,30.10,NW,315,5.0,5.0,76,0.00,,---,0.00,VWS V14.00,2013-05-23 23:16:00,
2013-05-23 18:17:00,67.0,59.6,30.10,NNW,338,8.0,8.0,77,0.00,,---,0.00,VWS V14.00,2013-05-23 23:17:00,
2013-05-23 18:18:00,67.0,59.6,30.10,NW,315,9.0,10.0,77,0.00,,---,0.00,VWS V14.00,2013-05-23 23:18:00,
2013-05-23 18:19:00,67.0,59.6,30.11,NW,315,6.0,12.0,77,0.00,,---,0.00,VWS V14.00,2013-05-23 23:19:00,
2013-05-23 18:20:00,67.0,59.2,30.11,WNW,292,8.0,13.0,76,0.00,,---,0.00,VWS V14.00,2013-05-23 23:20:00,
2013-05-23 18:21:00,67.0,59.6,30.11,NNW,338,14.0,14.0,77,0.00,,---,0.00,VWS V14.00,2013-05-23 23:21:00,
2013-05-23 18:22:00,66.0,58.2,30.11,WNW,292,10.0,10.0,76,0.00,,---,0.00,VWS V14.00,2013-05-23 23:22:00,
2013-05-23 18:23:00,66.0,58.2,30.10,NNW,338,15.0,21.0,76,0.00,,---,0.00,VWS V14.00,2013-05-23 23:23:00,
2013-05-23 18:24:00,66.0,58.2,30.10,NNW,338,15.0,23.0,76,0.00,,---,0.00,VWS V14.00,2013-05-23 23:24:00,
2013-05-23 18:25:00,66.0,58.2,30.11,NNW,338,11.0,13.0,76,0.00,,---,0.00,VWS V14.00,2013-05-23 23:25:00,
2013-05-23 18:26:00,66.0,58.2,30.10,NW,315,12.0,19.0,76,0.00,,---,0.00,VWS V14.00,2013-05-23 23:26:00,
2013-05-23 18:27:00,66.0,58.2,30.10,NW,315,10.0,19.0,76,0.00,,---,0.00,VWS V14.00,2013-05-23 23:27:00,
2013-05-23 18:28:00,66.0,58.2,30.11,NW,315,7.0,14.0,76,0.00,,---,0.00,VWS V14.00,2013-05-23 23:28:00,
2013-05-23 18:29:00,66.0,58.6,30.11,NW,315,8.0,9.0,77,0.00,,---,0.00,VWS V14.00,2013-05-23 23:29:00,
2013-05-23 18:30:00,66.0,58.6,30.11,WNW,292,14.0,16.0,77,0.00,,---,0.00,VWS V14.00,2013-05-23 23:30:00,
2013-05-23 18:31:00,66.0,58.6,30.11,NNW,338,25.0,25.0,77,0.00,,---,0.00,VWS V14.00,2013-05-23 23:31:00,
2013-05-23 18:32:00,66.0,58.6,30.11,North,0,25.0,26.0,77,0.00,,---,0.00,VWS V14.00,2013-05-23 23:32:00,
2013-05-23 18:33:00,66.0,58.6,30.11,NW,315,21.0,26.0,77,0.00,,---,0.00,VWS V14.00,2013-05-23 23:33:00,
2013-05-23 18:34:00,66.0,59.0,30.11,NNW,338,24.0,24.0,78,0.00,,---,0.00,VWS V14.00,2013-05-23 23:34:00,
2013-05-23 18:35:00,65.0,58.0,30.12,NNW,338,22.0,27.0,78,0.00,,---,0.00,VWS V14.00,2013-05-23 23:35:00,
2013-05-23 18:36:00,65.0,58.3,30.12,NW,315,22.0,22.0,79,0.00,,---,0.00,VWS V14.00,2013-05-23 23:36:00,
2013-05-23 18:37:00,65.0,58.3,30.11,North,0,21.0,26.0,79,0.00,,---,0.00,VWS V14.00,2013-05-23 23:37:00,
2013-05-23 18:38:00,65.0,58.0,30.11,NNW,338,27.0,27.0,78,0.00,,---,0.00,VWS V14.00,2013-05-23 23:38:00,
2013-05-23 18:39:00,65.0,58.0,30.12,NNW,338,17.0,29.0,78,0.00,,---,0.00,VWS V14.00,2013-05-23 23:39:00,
2013-05-23 18:40:00,65.0,58.3,30.12,NW,315,17.0,22.0,79,0.00,,---,0.00,VWS V14.00,2013-05-23 23:40:00,
2013-05-23 18:41:00,65.0,58.3,30.12,NNW,338,22.0,22.0,79,0.00,,---,0.00,VWS V14.00,2013-05-23 23:41:00,
2013-05-23 18:42:00,65.0,58.3,30.12,North,0,17.0,26.0,79,0.00,,---,0.00,VWS V14.00,2013-05-23 23:42:00,
2013-05-23 18:43:00,65.0,58.3,30.11,NNW,338,16.0,23.0,79,0.00,,---,0.00,VWS V14.00,2013-05-23 23:43:00,
2013-05-23 18:44:00,65.0,58.3,30.12,NNW,338,23.0,23.0,79,0.00,,---,0.00,VWS V14.00,2013-05-23 23:44:00,
2013-05-23 18:45:00,64.0,57.4,30.12,NNW,338,19.0,23.0,79,0.00,,---,0.00,VWS V14.00,2013-05-23 23:45:00,
2013-05-23 18:46:00,64.0,57.4,30.12,NNW,338,20.0,26.0,79,0.00,,---,0.00,VWS V14.00,2013-05-23 23:46:00,
2013-05-23 18:47:00,64.0,57.4,30.13,NNW,338,23.0,25.0,79,0.00,,---,0.00,VWS V14.00,2013-05-23 23:47:00,
2013-05-23 18:48:00,64.0,57.4,30.12,NNW,338,19.0,25.0,79,0.00,,---,0.00,VWS V14.00,2013-05-23 23:48:00,
2013-05-23 18:49:00,64.0,57.7,30.12,North,0,6.0,9.0,80,0.00,,---,0.00,VWS V14.00,2013-05-23 23:49:00,
2013-05-23 18:50:00,64.0,57.7,30.12,NNW,338,15.0,20.0,80,0.00,,---,0.00,VWS V14.00,2013-05-23 23:50:00,
2013-05-23 18:51:00,64.0,57.7,30.12,WNW,292,6.0,7.0,80,0.00,,---,0.00,VWS V14.00,2013-05-23 23:51:00,
2013-05-23 18:52:00,64.0,57.7,30.12,NW,315,11.0,17.0,80,0.00,,---,0.00,VWS V14.00,2013-05-23 23:52:00,
2013-05-23 18:53:00,64.0,57.7,30.12,NW,315,14.0,19.0,80,0.00,,---,0.00,VWS V14.00,2013-05-23 23:53:00,
2013-05-23 18:54:00,64.0,58.1,30.12,NNW,338,14.0,14.0,81,0.00,,---,0.00,VWS V14.00,2013-05-23 23:54:00,
2013-05-23 18:55:00,64.0,58.1,30.12,NNW,338,14.0,19.0,81,0.00,,---,0.00,VWS V14.00,2013-05-23 23:55:00,
2013-05-23 18:56:00,64.0,58.1,30.12,NW,315,14.0,19.0,81,0.00,,---,0.00,VWS V14.00,2013-05-23 23:56:00,
2013-05-23 18:57:00,64.0,58.1,30.12,NNW,338,13.0,19.0,81,0.00,,---,0.00,VWS V14.00,2013-05-23 23:57:00,
2013-05-23 18:58:00,64.0,58.1,30.12,NW,315,18.0,18.0,81,0.00,,---,0.00,VWS V14.00,2013-05-23 23:58:00,
2013-05-23 18:59:00,64.0,58.1,30.12,NNW,338,20.0,24.0,81,0.00,,---,0.00,VWS V14.00,2013-05-23 23:59:00,
2013-05-23 19:00:00,64.0,58.1,30.12,NNW,338,16.0,22.0,81,0.00,,---,0.00,VWS V14.00,2013-05-24 00:00:00,
2013-05-23 19:01:00,64.0,58.1,30.12,NW,315,16.0,16.0,81,0.00,,---,0.00,VWS V14.00,2013-05-24 00:01:00,
2013-05-23 19:02:00,64.0,58.1,30.12,NE,45,11.0,21.0,81,0.00,,---,0.00,VWS V14.00,2013-05-24 00:02:00,
2013-05-23 19:03:00,64.0,57.7,30.12,NW,315,13.0,13.0,80,0.00,,---,0.00,VWS V14.00,2013-05-24 00:03:00,
2013-05-23 19:04:00,64.0,58.1,30.12,NNW,338,15.0,18.0,81,0.00,,---,0.00,VWS V14.00,2013-05-24 00:04:00,
2013-05-23 19:05:00,64.0,58.1,30.12,NW,315,13.0,13.0,81,0.00,,---,0.00,VWS V14.00,2013-05-24 00:05:00,
2013-05-23 19:06:00,64.0,58.1,30.12,NNW,338,12.0,19.0,81,0.00,,---,0.00,VWS V14.00,2013-05-24 00:06:00,
2013-05-23 19:07:00,64.0,58.1,30.12,NNW,338,13.0,17.0,81,0.00,,---,0.00,VWS V14.00,2013-05-24 00:07:00,
2013-05-23 19:08:00,64.0,58.1,30.12,NNE,22,6.0,18.0,81,0.00,,---,0.00,VWS V14.00,2013-05-24 00:08:00,
2013-05-23 19:09:00,64.0,58.1,30.12,NW,315,17.0,19.0,81,0.00,,---,0.00,VWS V14.00,2013-05-24 00:09:00,
2013-05-23 19:10:00,64.0,58.1,30.12,North,0,12.0,20.0,81,0.00,,---,0.00,VWS V14.00,2013-05-24 00:10:00,
2013-05-23 19:11:00,64.0,58.1,30.12,SSW,202,7.0,18.0,81,0.00,,---,0.00,VWS V14.00,2013-05-24 00:11:00,
2013-05-23 19:12:00,64.0,58.1,30.13,WNW,292,10.0,13.0,81,0.00,,---,0.00,VWS V14.00,2013-05-24 00:12:00,
2013-05-23 19:13:00,64.0,58.1,30.13,NNW,338,14.0,18.0,81,0.00,,---,0.00,VWS V14.00,2013-05-24 00:13:00,
2013-05-23 19:14:00,63.0,57.1,30.13,NNW,338,13.0,17.0,81,0.00,,---,0.00,VWS V14.00,2013-05-24 00:14:00,
2013-05-23 19:15:00,63.0,57.1,30.12,NW,315,6.0,7.0,81,0.00,,---,0.00,VWS V14.00,2013-05-24 00:15:00,
2013-05-23 19:16:00,63.0,57.1,30.13,NNW,338,13.0,21.0,81,0.00,,---,0.00,VWS V14.00,2013-05-24 00:16:00,
2013-05-23 19:17:00,63.0,57.1,30.13,South,180,5.0,17.0,81,0.00,,---,0.00,VWS V14.00,2013-05-24 00:17:00,
2013-05-23 19:18:00,63.0,57.1,30.13,NW,315,14.0,14.0,81,0.00,,---,0.00,VWS V14.00,2013-05-24 00:18:00,
2013-05-23 19:19:00,63.0,57.4,30.13,East,90,5.0,14.0,82,0.00,,---,0.00,VWS V14.00,2013-05-24 00:19:00,
2013-05-23 19:20:00,63.0,57.4,30.13,ENE,68,4.0,15.0,82,0.00,,---,0.00,VWS V14.00,2013-05-24 00:20:00,
2013-05-23 19:21:00,63.0,57.4,30.13,NW,315,13.0,16.0,82,0.00,,---,0.00,VWS V14.00,2013-05-24 00:21:00,
2013-05-23 19:22:00,63.0,57.4,30.13,NW,315,10.0,13.0,82,0.00,,---,0.00,VWS V14.00,2013-05-24 00:22:00,
2013-05-23 19:23:00,63.0,57.4,30.13,NW,315,4.0,11.0,82,0.00,,---,0.00,VWS V14.00,2013-05-24 00:23:00,
2013-05-23 19:24:00,63.0,57.4,30.13,WNW,292,9.0,10.0,82,0.00,,---,0.00,VWS V14.00,2013-05-24 00:24:00,
2013-05-23 19:25:00,63.0,57.4,30.13,ENE,68,6.0,14.0,82,0.00,,---,0.00,VWS V14.00,2013-05-24 00:25:00,
2013-05-23 19:26:00,63.0,57.4,30.13,NNW,338,14.0,16.0,82,0.00,,---,0.00,VWS V14.00,2013-05-24 00:26:00,
2013-05-23 19:27:00,63.0,57.4,30.13,ESE,112,5.0,16.0,82,0.00,,---,0.00,VWS V14.00,2013-05-24 00:27:00,
2013-05-23 19:28:00,63.0,57.4,30.13,SSE,158,5.0,14.0,82,0.00,,---,0.00,VWS V14.00,2013-05-24 00:28:00,
2013-05-23 19:29:00,63.0,57.4,30.13,NNW,338,14.0,16.0,82,0.00,,---,0.00,VWS V14.00,2013-05-24 00:29:00,
2013-05-23 19:30:00,63.0,57.4,30.13,NW,315,6.0,14.0,82,0.00,,---,0.00,VWS V14.00,2013-05-24 00:30:00,
2013-05-23 19:31:00,63.0,57.8,30.13,NNW,338,17.0,17.0,83,0.00,,---,0.00,VWS V14.00,2013-05-24 00:31:00,
2013-05-23 19:32:00,63.0,57.8,30.13,NNW,338,14.0,21.0,83,0.00,,---,0.00,VWS V14.00,2013-05-24 00:32:00,
2013-05-23 19:33:00,63.0,57.8,30.14,North,0,16.0,19.0,83,0.00,,---,0.00,VWS V14.00,2013-05-24 00:33:00,
2013-05-23 19:34:00,63.0,57.8,30.13,NNW,338,21.0,21.0,83,0.00,,---,0.00,VWS V14.00,2013-05-24 00:34:00,
2013-05-23 19:35:00,63.0,57.8,30.14,North,0,16.0,22.0,83,0.00,,---,0.00,VWS V14.00,2013-05-24 00:35:00,
2013-05-23 19:36:00,63.0,57.8,30.14,NE,45,14.0,18.0,83,0.00,,---,0.00,VWS V14.00,2013-05-24 00:36:00,
2013-05-23 19:37:00,63.0,57.8,30.14,NNW,338,13.0,15.0,83,0.00,,---,0.00,VWS V14.00,2013-05-24 00:37:00,
2013-05-23 19:38:00,63.0,57.8,30.14,NNW,338,10.0,18.0,83,0.00,,---,0.00,VWS V14.00,2013-05-24 00:38:00,
2013-05-23 19:39:00,63.0,57.8,30.14,SSE,158,8.0,13.0,83,0.00,,---,0.00,VWS V14.00,2013-05-24 00:39:00,
2013-05-23 19:40:00,63.0,57.8,30.14,SW,225,6.0,20.0,83,0.00,,---,0.00,VWS V14.00,2013-05-24 00:40:00,
2013-05-23 19:41:00,62.0,56.5,30.13,NNW,338,16.0,22.0,82,0.00,,---,0.00,VWS V14.00,2013-05-24 00:41:00,
2013-05-23 19:42:00,63.0,57.4,30.14,SW,225,5.0,22.0,82,0.00,,---,0.00,VWS V14.00,2013-05-24 00:42:00,
2013-05-23 19:43:00,62.0,56.5,30.14,North,0,11.0,18.0,82,0.00,,---,0.00,VWS V14.00,2013-05-24 00:43:00,
2013-05-23 19:44:00,62.0,56.5,30.14,WNW,292,14.0,21.0,82,0.00,,---,0.00,VWS V14.00,2013-05-24 00:44:00,
2013-05-23 19:45:00,62.0,56.1,30.14,NE,45,6.0,9.0,81,0.00,,---,0.00,VWS V14.00,2013-05-24 00:45:00,
2013-05-23 19:46:00,62.0,56.1,30.14,ESE,112,6.0,24.0,81,0.00,,---,0.00,VWS V14.00,2013-05-24 00:46:00,
2013-05-23 19:47:00,62.0,56.1,30.14,East,90,3.0,3.0,81,0.00,,---,0.00,VWS V14.00,2013-05-24 00:47:00,
2013-05-23 19:48:00,62.0,56.1,30.14,NW,315,14.0,18.0,81,0.00,,---,0.00,VWS V14.00,2013-05-24 00:48:00,
2013-05-23 19:49:00,62.0,55.8,30.13,NW,315,13.0,13.0,80,0.00,,---,0.00,VWS V14.00,2013-05-24 00:49:00,
2013-05-23 19:50:00,62.0,55.8,30.14,WNW,292,10.0,19.0,80,0.00,,---,0.00,VWS V14.00,2013-05-24 00:50:00,
2013-05-23 19:51:00,62.0,55.8,30.14,SSW,202,10.0,19.0,80,0.00,,---,0.00,VWS V14.00,2013-05-24 00:51:00,
2013-05-23 19:52:00,62.0,55.8,30.14,NW,315,11.0,22.0,80,0.00,,---,0.00,VWS V14.00,2013-05-24 00:52:00,
2013-05-23 19:53:00,62.0,56.1,30.14,ENE,68,8.0,12.0,81,0.00,,---,0.00,VWS V14.00,2013-05-24 00:53:00,
2013-05-23 19:54:00,62.0,56.1,30.14,North,0,8.0,18.0,81,0.00,,---,0.00,VWS V14.00,2013-05-24 00:54:00,
2013-05-23 19:55:00,62.0,56.1,30.14,ENE,68,6.0,16.0,81,0.00,,---,0.00,VWS V14.00,2013-05-24 00:55:00,
2013-05-23 19:56:00,62.0,56.1,30.15,NE,45,7.0,9.0,81,0.00,,---,0.00,VWS V14.00,2013-05-24 00:56:00,
2013-05-23 19:57:00,62.0,56.1,30.15,NNW,338,6.0,16.0,81,0.00,,---,0.00,VWS V14.00,2013-05-24 00:57:00,
2013-05-23 19:58:00,62.0,56.1,30.15,ESE,112,6.0,14.0,81,0.00,,---,0.00,VWS V14.00,2013-05-24 00:58:00,
2013-05-23 19:59:00,62.0,56.5,30.15,East,90,6.0,6.0,82,0.00,,---,0.00,VWS V14.00,2013-05-24 00:59:00,
2013-05-23 20:00:00,62.0,56.5,30.15,NNW,338,6.0,9.0,82,0.00,,---,0.00,VWS V14.00,2013-05-24 01:00:00,
2013-05-23 20:01:00,62.0,56.5,30.15,West,270,6.0,6.0,82,0.00,,---,0.00,VWS V14.00,2013-05-24 01:01:00,
2013-05-23 20:02:00,61.0,55.1,30.15,ESE,112,13.0,16.0,81,0.00,,---,0.00,VWS V14.00,2013-05-24 01:02:00,
2013-05-23 20:03:00,61.0,55.1,30.15,SW,225,6.0,16.0,81,0.00,,---,0.00,VWS V14.00,2013-05-24 01:03:00,
2013-05-23 20:04:00,61.0,55.1,30.15,NNW,338,10.0,13.0,81,0.00,,---,0.00,VWS V14.00,2013-05-24 01:04:00,
2013-05-23 20:05:00,61.0,55.1,30.15,NW,315,7.0,19.0,81,0.00,,---,0.00,VWS V14.00,2013-05-24 01:05:00,
2013-05-23 20:06:00,61.0,54.8,30.15,WNW,292,5.0,5.0,80,0.00,,---,0.00,VWS V14.00,2013-05-24 01:06:00,
2013-05-23 20:07:00,61.0,54.8,30.15,ESE,112,11.0,19.0,80,0.00,,---,0.00,VWS V14.00,2013-05-24 01:07:00,
2013-05-23 20:08:00,61.0,54.8,30.15,West,270,10.0,16.0,80,0.00,,---,0.00,VWS V14.00,2013-05-24 01:08:00,
2013-05-23 20:09:00,61.0,54.8,30.15,SSW,202,5.0,16.0,80,0.00,,---,0.00,VWS V14.00,2013-05-24 01:09:00,
2013-05-23 20:10:00,61.0,54.8,30.15,SSE,158,11.0,13.0,80,0.00,,---,0.00,VWS V14.00,2013-05-24 01:10:00,
2013-05-23 20:11:00,61.0,54.8,30.15,NNW,338,18.0,18.0,80,0.00,,---,0.00,VWS V14.00,2013-05-24 01:11:00,
2013-05-23 20:12:00,61.0,54.8,30.16,NNW,338,17.0,20.0,80,0.00,,---,0.00,VWS V14.00,2013-05-24 01:12:00,
2013-05-23 20:13:00,61.0,54.8,30.15,NNW,338,14.0,17.0,80,0.00,,---,0.00,VWS V14.00,2013-05-24 01:13:00,
2013-05-23 20:14:00,61.0,54.8,30.16,East,90,7.0,16.0,80,0.00,,---,0.00,VWS V14.00,2013-05-24 01:14:00,
2013-05-23 20:15:00,61.0,54.8,30.15,WNW,292,6.0,19.0,80,0.00,,---,0.00,VWS V14.00,2013-05-24 01:15:00,
2013-05-23 20:16:00,61.0,54.8,30.16,NE,45,6.0,7.0,80,0.00,,---,0.00,VWS V14.00,2013-05-24 01:16:00,
2013-05-23 20:17:00,61.0,55.1,30.16,NW,315,9.0,13.0,81,0.00,,---,0.00,VWS V14.00,2013-05-24 01:17:00,
2013-05-23 20:18:00,61.0,55.1,30.16,West,270,4.0,11.0,81,0.00,,---,0.00,VWS V14.00,2013-05-24 01:18:00,
2013-05-23 20:19:00,61.0,55.1,30.16,South,180,6.0,8.0,81,0.00,,---,0.00,VWS V14.00,2013-05-24 01:19:00,
2013-05-23 20:20:00,61.0,55.1,30.16,SE,135,4.0,5.0,81,0.00,,---,0.00,VWS V14.00,2013-05-24 01:20:00,
2013-05-23 20:21:00,61.0,55.1,30.16,SSE,158,5.0,14.0,81,0.00,,---,0.00,VWS V14.00,2013-05-24 01:21:00,
2013-05-23 20:22:00,61.0,55.1,30.16,SE,135,5.0,9.0,81,0.00,,---,0.00,VWS V14.00,2013-05-24 01:22:00,
2013-05-23 20:23:00,61.0,55.1,30.16,SSW,202,4.0,10.0,81,0.00,,---,0.00,VWS V14.00,2013-05-24 01:23:00,
2013-05-23 20:24:00,61.0,55.1,30.16,WNW,292,10.0,11.0,81,0.00,,---,0.00,VWS V14.00,2013-05-24 01:24:00,
2013-05-23 20:25:00,61.0,55.1,30.16,West,270,4.0,4.0,81,0.00,,---,0.00,VWS V14.00,2013-05-24 01:25:00,
2013-05-23 20:26:00,61.0,55.1,30.16,ENE,68,8.0,10.0,81,0.00,,---,0.00,VWS V14.00,2013-05-24 01:26:00,
2013-05-23 20:27:00,61.0,55.1,30.16,WNW,292,10.0,13.0,81,0.00,,---,0.00,VWS V14.00,2013-05-24 01:27:00,
2013-05-23 20:28:00,61.0,55.1,30.16,NW,315,5.0,9.0,81,0.00,,---,0.00,VWS V14.00,2013-05-24 01:28:00,
2013-05-23 20:29:00,61.0,55.5,30.16,ENE,68,4.0,4.0,82,0.00,,---,0.00,VWS V14.00,2013-05-24 01:29:00,
2013-05-23 20:30:00,61.0,55.1,30.16,SSW,202,5.0,11.0,81,0.00,,---,0.00,VWS V14.00,2013-05-24 01:30:00,
2013-05-23 20:31:00,61.0,55.1,30.17,East,90,8.0,9.0,81,0.00,,---,0.00,VWS V14.00,2013-05-24 01:31:00,
2013-05-23 20:32:00,61.0,55.1,30.16,WNW,292,5.0,16.0,81,0.00,,---,0.00,VWS V14.00,2013-05-24 01:32:00,
2013-05-23 20:33:00,61.0,54.8,30.16,NNW,338,24.0,24.0,80,0.00,,---,0.00,VWS V14.00,2013-05-24 01:33:00,
2013-05-23 20:34:00,60.0,53.8,30.16,NNW,338,13.0,23.0,80,0.00,,---,0.00,VWS V14.00,2013-05-24 01:34:00,
2013-05-23 20:35:00,60.0,53.8,30.16,NW,315,11.0,18.0,80,0.00,,---,0.00,VWS V14.00,2013-05-24 01:35:00,
2013-05-23 20:36:00,60.0,53.8,30.17,South,180,5.0,13.0,80,0.00,,---,0.00,VWS V14.00,2013-05-24 01:36:00,
2013-05-23 20:37:00,60.0,53.8,30.17,SW,225,5.0,19.0,80,0.00,,---,0.00,VWS V14.00,2013-05-24 01:37:00,
2013-05-23 20:38:00,60.0,53.8,30.17,WNW,292,8.0,8.0,80,0.00,,---,0.00,VWS V14.00,2013-05-24 01:38:00,
2013-05-23 20:39:00,60.0,53.8,30.17,ESE,112,4.0,8.0,80,0.00,,---,0.00,VWS V14.00,2013-05-24 01:39:00,
2013-05-23 20:40:00,60.0,53.8,30.17,NNW,338,8.0,10.0,80,0.00,,---,0.00,VWS V14.00,2013-05-24 01:40:00,
2013-05-23 20:41:00,60.0,53.8,30.17,East,90,5.0,17.0,80,0.00,,---,0.00,VWS V14.00,2013-05-24 01:41:00,
2013-05-23 20:42:00,60.0,54.2,30.17,NW,315,6.0,9.0,81,0.00,,---,0.00,VWS V14.00,2013-05-24 01:42:00,
2013-05-23 20:43:00,60.0,54.2,30.17,WNW,292,4.0,11.0,81,0.00,,---,0.00,VWS V14.00,2013-05-24 01:43:00,
2013-05-23 20:44:00,60.0,54.2,30.17,SSE,158,3.0,3.0,81,0.00,,---,0.00,VWS V14.00,2013-05-24 01:44:00,
2013-05-23 20:45:00,60.0,54.2,30.17,NNW,338,3.0,6.0,81,0.00,,---,0.00,VWS V14.00,2013-05-24 01:45:00,
2013-05-23 20:46:00,60.0,54.2,30.17,South,180,5.0,5.0,81,0.00,,---,0.00,VWS V14.00,2013-05-24 01:46:00,
2013-05-23 20:47:00,60.0,54.5,30.17,SSW,202,3.0,6.0,82,0.00,,---,0.00,VWS V14.00,2013-05-24 01:47:00,
2013-05-23 20:48:00,60.0,54.5,30.17,WNW,292,8.0,10.0,82,0.00,,---,0.00,VWS V14.00,2013-05-24 01:48:00,
2013-05-23 20:49:00,60.0,54.5,30.17,NNW,338,8.0,11.0,82,0.00,,---,0.00,VWS V14.00,2013-05-24 01:49:00,
2013-05-23 20:50:00,60.0,54.2,30.17,South,180,5.0,5.0,81,0.00,,---,0.00,VWS V14.00,2013-05-24 01:50:00,
2013-05-23 20:51:00,60.0,54.2,30.18,NNE,22,6.0,8.0,81,0.00,,---,0.00,VWS V14.00,2013-05-24 01:51:00,
2013-05-23 20:52:00,60.0,54.5,30.18,North,0,3.0,8.0,82,0.00,,---,0.00,VWS V14.00,2013-05-24 01:52:00,
2013-05-23 20:53:00,60.0,54.2,30.17,North,0,4.0,13.0,81,0.00,,---,0.00,VWS V14.00,2013-05-24 01:53:00,
2013-05-23 20:54:00,60.0,54.2,30.17,North,0,5.0,8.0,81,0.00,,---,0.00,VWS V14.00,2013-05-24 01:54:00,
2013-05-23 20:55:00,60.0,54.2,30.18,SSW,202,5.0,13.0,81,0.00,,---,0.00,VWS V14.00,2013-05-24 01:55:00,
2013-05-23 20:56:00,60.0,54.2,30.17,SSE,158,6.0,10.0,81,0.00,,---,0.00,VWS V14.00,2013-05-24 01:56:00,
2013-05-23 20:57:00,59.0,53.2,30.17,SSW,202,6.0,6.0,81,0.00,,---,0.00,VWS V14.00,2013-05-24 01:57:00,
2013-05-23 20:58:00,59.0,53.2,30.17,SSE,158,3.0,8.0,81,0.00,,---,0.00,VWS V14.00,2013-05-24 01:58:00,
2013-05-23 20:59:00,59.0,53.2,30.17,SW,225,2.0,2.0,81,0.00,,---,0.00,VWS V14.00,2013-05-24 01:59:00,
2013-05-23 21:00:00,59.0,53.5,30.17,SSE,158,4.0,9.0,82,0.00,,---,0.00,VWS V14.00,2013-05-24 02:00:00,
2013-05-23 21:01:00,59.0,53.5,30.17,ESE,112,5.0,5.0,82,0.00,,---,0.00,VWS V14.00,2013-05-24 02:01:00,
2013-05-23 21:02:00,59.0,53.5,30.17,SW,225,3.0,6.0,82,0.00,,---,0.00,VWS V14.00,2013-05-24 02:02:00,
2013-05-23 21:03:00,59.0,53.5,30.18,NNE,22,3.0,9.0,82,0.00,,---,0.00,VWS V14.00,2013-05-24 02:03:00,
2013-05-23 21:04:00,59.0,53.5,30.18,ESE,112,4.0,4.0,82,0.00,,---,0.00,VWS V14.00,2013-05-24 02:04:00,
2013-05-23 21:05:00,59.0,53.5,30.18,North,0,5.0,5.0,82,0.00,,---,0.00,VWS V14.00,2013-05-24 02:05:00,
2013-05-23 21:06:00,59.0,53.5,30.18,NNE,22,5.0,5.0,82,0.00,,---,0.00,VWS V14.00,2013-05-24 02:06:00,
2013-05-23 21:07:00,59.0,53.8,30.18,WSW,248,5.0,6.0,83,0.00,,---,0.00,VWS V14.00,2013-05-24 02:07:00,
2013-05-23 21:08:00,59.0,53.8,30.17,WNW,292,8.0,15.0,83,0.00,,---,0.00,VWS V14.00,2013-05-24 02:08:00,
2013-05-23 21:09:00,59.0,53.8,30.17,WSW,248,5.0,11.0,83,0.00,,---,0.00,VWS V14.00,2013-05-24 02:09:00,
2013-05-23 21:10:00,59.0,53.8,30.17,SE,135,5.0,10.0,83,0.00,,---,0.00,VWS V14.00,2013-05-24 02:10:00,
2013-05-23 21:11:00,59.0,53.8,30.17,WSW,248,7.0,9.0,83,0.00,,---,0.00,VWS V14.00,2013-05-24 02:11:00,
2013-05-23 21:12:00,59.0,53.8,30.17,NNW,338,3.0,8.0,83,0.00,,---,0.00,VWS V14.00,2013-05-24 02:12:00,
2013-05-23 21:13:00,59.0,53.8,30.17,ENE,68,8.0,10.0,83,0.00,,---,0.00,VWS V14.00,2013-05-24 02:13:00,
2013-05-23 21:14:00,59.0,53.8,30.17,SW,225,3.0,8.0,83,0.00,,---,0.00,VWS V14.00,2013-05-24 02:14:00,
2013-05-23 21:15:00,59.0,53.8,30.17,SE,135,5.0,5.0,83,0.00,,---,0.00,VWS V14.00,2013-05-24 02:15:00,
2013-05-23 21:16:00,59.0,53.8,30.17,East,90,4.0,4.0,83,0.00,,---,0.00,VWS V14.00,2013-05-24 02:16:00,
2013-05-23 21:17:00,59.0,53.8,30.17,South,180,3.0,14.0,83,0.00,,---,0.00,VWS V14.00,2013-05-24 02:17:00,
2013-05-23 21:18:00,59.0,53.8,30.17,SE,135,3.0,11.0,83,0.00,,---,0.00,VWS V14.00,2013-05-24 02:18:00,
2013-05-23 21:19:00,59.0,53.8,30.18,SW,225,6.0,11.0,83,0.00,,---,0.00,VWS V14.00,2013-05-24 02:19:00,
2013-05-23 21:20:00,59.0,53.8,30.17,WSW,248,3.0,9.0,83,0.00,,---,0.00,VWS V14.00,2013-05-24 02:20:00,
2013-05-23 21:21:00,59.0,53.8,30.17,WNW,292,7.0,7.0,83,0.00,,---,0.00,VWS V14.00,2013-05-24 02:21:00,
2013-05-23 21:22:00,59.0,53.8,30.18,NNW,338,5.0,7.0,83,0.00,,---,0.00,VWS V14.00,2013-05-24 02:22:00,
2013-05-23 21:23:00,59.0,53.8,30.17,SW,225,6.0,6.0,83,0.00,,---,0.00,VWS V14.00,2013-05-24 02:23:00,
2013-05-23 21:24:00,59.0,53.8,30.18,NE,45,3.0,8.0,83,0.00,,---,0.00,VWS V14.00,2013-05-24 02:24:00,
2013-05-23 21:25:00,58.0,52.9,30.17,North,0,10.0,10.0,83,0.00,,---,0.00,VWS V14.00,2013-05-24 02:25:00,
2013-05-23 21:26:00,58.0,52.9,30.17,NW,315,9.0,12.0,83,0.00,,---,0.00,VWS V14.00,2013-05-24 02:26:00,
2013-05-23 21:27:00,58.0,52.9,30.17,NNW,338,9.0,10.0,83,0.00,,---,0.00,VWS V14.00,2013-05-24 02:27:00,
2013-05-23 21:28:00,58.0,52.9,30.18,West,270,3.0,4.0,83,0.00,,---,0.00,VWS V14.00,2013-05-24 02:28:00,
2013-05-23 21:29:00,58.0,52.9,30.18,NE,45,5.0,9.0,83,0.00,,---,0.00,VWS V14.00,2013-05-24 02:29:00,
2013-05-23 21:30:00,58.0,52.9,30.18,WSW,248,4.0,5.0,83,0.00,,---,0.00,VWS V14.00,2013-05-24 02:30:00,
2013-05-23 21:31:00,58.0,52.9,30.18,WNW,292,6.0,12.0,83,0.00,,---,0.00,VWS V14.00,2013-05-24 02:31:00,
2013-05-23 21:32:00,58.0,52.5,30.18,West,270,4.0,10.0,82,0.00,,---,0.00,VWS V14.00,2013-05-24 02:32:00,
2013-05-23 21:33:00,58.0,52.5,30.18,SSE,158,4.0,8.0,82,0.00,,---,0.00,VWS V14.00,2013-05-24 02:33:00,
2013-05-23 21:34:00,58.0,52.5,30.18,NE,45,4.0,10.0,82,0.00,,---,0.00,VWS V14.00,2013-05-24 02:34:00,
2013-05-23 21:35:00,58.0,52.5,30.18,West,270,6.0,6.0,82,0.00,,---,0.00,VWS V14.00,2013-05-24 02:35:00,
2013-05-23 21:36:00,58.0,52.9,30.18,NE,45,5.0,10.0,83,0.00,,---,0.00,VWS V14.00,2013-05-24 02:36:00,
2013-05-23 21:37:00,58.0,52.9,30.18,WNW,292,2.0,10.0,83,0.00,,---,0.00,VWS V14.00,2013-05-24 02:37:00,
2013-05-23 21:38:00,58.0,52.9,30.18,SW,225,6.0,6.0,83,0.00,,---,0.00,VWS V14.00,2013-05-24 02:38:00,
2013-05-23 21:39:00,58.0,52.9,30.18,North,0,5.0,10.0,83,0.00,,---,0.00,VWS V14.00,2013-05-24 02:39:00,
2013-05-23 21:40:00,58.0,52.9,30.18,SSW,202,5.0,10.0,83,0.00,,---,0.00,VWS V14.00,2013-05-24 02:40:00,
2013-05-23 21:41:00,58.0,52.9,30.18,SE,135,1.0,6.0,83,0.00,,---,0.00,VWS V14.00,2013-05-24 02:41:00,
2013-05-23 21:42:00,58.0,52.9,30.18,West,270,4.0,7.0,83,0.00,,---,0.00,VWS V14.00,2013-05-24 02:42:00,
2013-05-23 21:43:00,58.0,52.9,30.18,SE,135,6.0,11.0,83,0.00,,---,0.00,VWS V14.00,2013-05-24 02:43:00,
2013-05-23 21:44:00,58.0,52.9,30.18,East,90,5.0,8.0,83,0.00,,---,0.00,VWS V14.00,2013-05-24 02:44:00,
2013-05-23 21:45:00,58.0,52.9,30.19,NNE,22,6.0,6.0,83,0.00,,---,0.00,VWS V14.00,2013-05-24 02:45:00,
2013-05-23 21:46:00,58.0,52.9,30.18,SE,135,3.0,10.0,83,0.00,,---,0.00,VWS V14.00,2013-05-24 02:46:00,
2013-05-23 21:47:00,58.0,52.9,30.19,NE,45,5.0,10.0,83,0.00,,---,0.00,VWS V14.00,2013-05-24 02:47:00,
2013-05-23 21:48:00,58.0,53.2,30.19,SSW,202,3.0,8.0,84,0.00,,---,0.00,VWS V14.00,2013-05-24 02:48:00,
2013-05-23 21:49:00,58.0,53.2,30.19,East,90,4.0,4.0,84,0.00,,---,0.00,VWS V14.00,2013-05-24 02:49:00,
2013-05-23 21:50:00,58.0,53.2,30.19,WSW,248,3.0,6.0,84,0.00,,---,0.00,VWS V14.00,2013-05-24 02:50:00,
2013-05-23 21:51:00,58.0,53.2,30.19,SE,135,3.0,6.0,84,0.00,,---,0.00,VWS V14.00,2013-05-24 02:51:00,
2013-05-23 21:52:00,58.0,53.2,30.19,East,90,3.0,6.0,84,0.00,,---,0.00,VWS V14.00,2013-05-24 02:52:00,
2013-05-23 21:53:00,58.0,53.2,30.19,WNW,292,4.0,7.0,84,0.00,,---,0.00,VWS V14.00,2013-05-24 02:53:00,
2013-05-23 21:54:00,58.0,53.2,30.19,NNW,338,3.0,8.0,84,0.00,,---,0.00,VWS V14.00,2013-05-24 02:54:00,
2013-05-23 21:55:00,58.0,53.2,30.19,WNW,292,5.0,6.0,84,0.00,,---,0.00,VWS V14.00,2013-05-24 02:55:00,
2013-05-23 21:56:00,58.0,53.2,30.19,ENE,68,2.0,6.0,84,0.00,,---,0.00,VWS V14.00,2013-05-24 02:56:00,
2013-05-23 21:57:00,58.0,53.2,30.19,NE,45,4.0,6.0,84,0.00,,---,0.00,VWS V14.00,2013-05-24 02:57:00,
2013-05-23 21:58:00,58.0,53.2,30.19,WNW,292,1.0,5.0,84,0.00,,---,0.00,VWS V14.00,2013-05-24 02:58:00,
2013-05-23 21:59:00,58.0,53.5,30.19,East,90,5.0,5.0,85,0.00,,---,0.00,VWS V14.00,2013-05-24 02:59:00,
2013-05-23 22:00:00,57.0,52.5,30.19,North,0,5.0,6.0,85,0.00,,---,0.00,VWS V14.00,2013-05-24 03:00:00,
2013-05-23 22:01:00,57.0,52.5,30.20,WNW,292,3.0,8.0,85,0.00,,---,0.00,VWS V14.00,2013-05-24 03:01:00,
2013-05-23 22:02:00,57.0,52.5,30.20,NNW,338,3.0,3.0,85,0.00,,---,0.00,VWS V14.00,2013-05-24 03:02:00,
2013-05-23 22:03:00,57.0,52.5,30.20,South,180,1.0,6.0,85,0.00,,---,0.00,VWS V14.00,2013-05-24 03:03:00,
2013-05-23 22:04:00,57.0,52.5,30.20,North,0,1.0,1.0,85,0.00,,---,0.00,VWS V14.00,2013-05-24 03:04:00,
2013-05-23 22:05:00,57.0,52.5,30.20,East,90,4.0,4.0,85,0.00,,---,0.00,VWS V14.00,2013-05-24 03:05:00,
2013-05-23 22:06:00,57.0,52.5,30.20,ENE,68,3.0,6.0,85,0.00,,---,0.00,VWS V14.00,2013-05-24 03:06:00,
2013-05-23 22:07:00,57.0,52.5,30.20,South,180,1.0,1.0,85,0.00,,---,0.00,VWS V14.00,2013-05-24 03:07:00,
2013-05-23 22:08:00,57.0,52.5,30.19,NE,45,5.0,6.0,85,0.00,,---,0.00,VWS V14.00,2013-05-24 03:08:00,
2013-05-23 22:09:00,57.0,52.5,30.20,East,90,3.0,7.0,85,0.00,,---,0.00,VWS V14.00,2013-05-24 03:09:00,
2013-05-23 22:10:00,57.0,52.5,30.19,NE,45,4.0,10.0,85,0.00,,---,0.00,VWS V14.00,2013-05-24 03:10:00,
2013-05-23 22:11:00,57.0,52.9,30.19,NE,45,9.0,9.0,86,0.00,,---,0.00,VWS V14.00,2013-05-24 03:11:00,
2013-05-23 22:12:00,57.0,52.9,30.19,ESE,112,3.0,9.0,86,0.00,,---,0.00,VWS V14.00,2013-05-24 03:12:00,
2013-05-23 22:13:00,57.0,52.9,30.19,ESE,112,5.0,9.0,86,0.00,,---,0.00,VWS V14.00,2013-05-24 03:13:00,
2013-05-23 22:14:00,57.0,52.9,30.19,ENE,68,11.0,11.0,86,0.00,,---,0.00,VWS V14.00,2013-05-24 03:14:00,
2013-05-23 22:15:00,57.0,52.9,30.19,East,90,8.0,11.0,86,0.00,,---,0.00,VWS V14.00,2013-05-24 03:15:00,
2013-05-23 22:16:00,57.0,52.9,30.19,East,90,4.0,11.0,86,0.00,,---,0.00,VWS V14.00,2013-05-24 03:16:00,
2013-05-23 22:17:00,57.0,52.9,30.19,WNW,292,4.0,12.0,86,0.00,,---,0.00,VWS V14.00,2013-05-24 03:17:00,
2013-05-23 22:18:00,57.0,52.9,30.20,NE,45,11.0,11.0,86,0.00,,---,0.00,VWS V14.00,2013-05-24 03:18:00,
2013-05-23 22:19:00,57.0,52.9,30.19,East,90,8.0,16.0,86,0.00,,---,0.00,VWS V14.00,2013-05-24 03:19:00,
2013-05-23 22:20:00,57.0,52.5,30.19,SW,225,5.0,14.0,85,0.00,,---,0.00,VWS V14.00,2013-05-24 03:20:00,
2013-05-23 22:21:00,57.0,52.5,30.19,SE,135,2.0,7.0,85,0.00,,---,0.00,VWS V14.00,2013-05-24 03:21:00,
2013-05-23 22:22:00,57.0,52.5,30.19,East,90,4.0,4.0,85,0.00,,---,0.00,VWS V14.00,2013-05-24 03:22:00,
2013-05-23 22:23:00,57.0,52.5,30.19,NE,45,7.0,7.0,85,0.00,,---,0.00,VWS V14.00,2013-05-24 03:23:00,
2013-05-23 22:24:00,57.0,52.5,30.20,NE,45,6.0,6.0,85,0.00,,---,0.00,VWS V14.00,2013-05-24 03:24:00,
2013-05-23 22:25:00,57.0,52.5,30.20,NNE,22,8.0,15.0,85,0.00,,---,0.00,VWS V14.00,2013-05-24 03:25:00,
2013-05-23 22:26:00,57.0,52.5,30.19,ENE,68,5.0,12.0,85,0.00,,---,0.00,VWS V14.00,2013-05-24 03:26:00,
2013-05-23 22:27:00,57.0,52.5,30.20,SW,225,3.0,11.0,85,0.00,,---,0.00,VWS V14.00,2013-05-24 03:27:00,
2013-05-23 22:28:00,57.0,52.5,30.20,NNW,338,2.0,12.0,85,0.00,,---,0.00,VWS V14.00,2013-05-24 03:28:00,
2013-05-23 22:29:00,57.0,52.5,30.20,East,90,3.0,3.0,85,0.00,,---,0.00,VWS V14.00,2013-05-24 03:29:00,
2013-05-23 22:30:00,57.0,52.5,30.20,SSE,158,3.0,6.0,85,0.00,,---,0.00,VWS V14.00,2013-05-24 03:30:00,
2013-05-23 22:31:00,57.0,52.5,30.20,NNW,338,4.0,7.0,85,0.00,,---,0.00,VWS V14.00,2013-05-24 03:31:00,
2013-05-23 22:32:00,57.0,52.9,30.20,NNW,338,5.0,7.0,86,0.00,,---,0.00,VWS V14.00,2013-05-24 03:32:00,
2013-05-23 22:33:00,57.0,52.9,30.19,North,0,6.0,7.0,86,0.00,,---,0.00,VWS V14.00,2013-05-24 03:33:00,
2013-05-23 22:34:00,57.0,52.9,30.20,WNW,292,5.0,9.0,86,0.00,,---,0.00,VWS V14.00,2013-05-24 03:34:00,
2013-05-23 22:35:00,57.0,52.9,30.20,ESE,112,6.0,9.0,86,0.00,,---,0.00,VWS V14.00,2013-05-24 03:35:00,
2013-05-23 22:36:00,57.0,52.9,30.20,North,0,5.0,11.0,86,0.00,,---,0.00,VWS V14.00,2013-05-24 03:36:00,
2013-05-23 22:37:00,57.0,52.9,30.20,SW,225,5.0,5.0,86,0.00,,---,0.00,VWS V14.00,2013-05-24 03:37:00,
2013-05-23 22:38:00,56.0,51.9,30.19,North,0,11.0,14.0,86,0.00,,---,0.00,VWS V14.00,2013-05-24 03:38:00,
2013-05-23 22:39:00,57.0,52.5,30.19,WNW,292,10.0,10.0,85,0.00,,---,0.00,VWS V14.00,2013-05-24 03:39:00,
2013-05-23 22:40:00,56.0,51.6,30.19,NNE,22,10.0,16.0,85,0.00,,---,0.00,VWS V14.00,2013-05-24 03:40:00,
2013-05-23 22:41:00,57.0,52.5,30.19,ENE,68,7.0,10.0,85,0.00,,---,0.00,VWS V14.00,2013-05-24 03:41:00,
2013-05-23 22:42:00,56.0,51.6,30.19,NNE,22,13.0,23.0,85,0.00,,---,0.00,VWS V14.00,2013-05-24 03:42:00,
2013-05-23 22:43:00,56.0,51.6,30.19,WNW,292,10.0,19.0,85,0.00,,---,0.00,VWS V14.00,2013-05-24 03:43:00,
2013-05-23 22:44:00,56.0,51.2,30.20,NNW,338,7.0,18.0,84,0.00,,---,0.00,VWS V14.00,2013-05-24 03:44:00,
2013-05-23 22:45:00,56.0,51.2,30.20,NW,315,5.0,14.0,84,0.00,,---,0.00,VWS V14.00,2013-05-24 03:45:00,
2013-05-23 22:46:00,56.0,51.2,30.20,West,270,7.0,13.0,84,0.00,,---,0.00,VWS V14.00,2013-05-24 03:46:00,
2013-05-23 22:47:00,56.0,51.2,30.20,East,90,6.0,10.0,84,0.00,,---,0.00,VWS V14.00,2013-05-24 03:47:00,
2013-05-23 22:48:00,56.0,51.2,30.20,North,0,6.0,13.0,84,0.00,,---,0.00,VWS V14.00,2013-05-24 03:48:00,
2013-05-23 22:49:00,56.0,51.2,30.20,East,90,4.0,14.0,84,0.00,,---,0.00,VWS V14.00,2013-05-24 03:49:00,
2013-05-23 22:50:00,56.0,51.2,30.20,NE,45,11.0,11.0,84,0.00,,---,0.00,VWS V14.00,2013-05-24 03:50:00,
2013-05-23 22:51:00,56.0,51.2,30.20,ENE,68,5.0,13.0,84,0.00,,---,0.00,VWS V14.00,2013-05-24 03:51:00,
2013-05-23 22:52:00,56.0,51.2,30.20,NW,315,6.0,13.0,84,0.00,,---,0.00,VWS V14.00,2013-05-24 03:52:00,
2013-05-23 22:53:00,56.0,51.2,30.20,NE,45,8.0,8.0,84,0.00,,---,0.00,VWS V14.00,2013-05-24 03:53:00,
2013-05-23 22:54:00,56.0,51.2,30.20,SSE,158,6.0,13.0,84,0.00,,---,0.00,VWS V14.00,2013-05-24 03:54:00,
2013-05-23 22:55:00,56.0,51.2,30.20,North,0,5.0,5.0,84,0.00,,---,0.00,VWS V14.00,2013-05-24 03:55:00,
2013-05-23 22:56:00,56.0,51.2,30.20,SE,135,6.0,16.0,84,0.00,,---,0.00,VWS V14.00,2013-05-24 03:56:00,
2013-05-23 22:57:00,56.0,51.2,30.20,NNE,22,10.0,14.0,84,0.00,,---,0.00,VWS V14.00,2013-05-24 03:57:00,
2013-05-23 22:58:00,56.0,51.2,30.20,NNE,22,7.0,7.0,84,0.00,,---,0.00,VWS V14.00,2013-05-24 03:58:00,
2013-05-23 22:59:00,56.0,51.2,30.20,SSE,158,5.0,15.0,84,0.00,,---,0.00,VWS V14.00,2013-05-24 03:59:00,
2013-05-23 23:00:00,56.0,51.2,30.20,NW,315,8.0,14.0,84,0.00,,---,0.00,VWS V14.00,2013-05-24 04:00:00,
2013-05-23 23:01:00,56.0,51.2,30.20,NNE,22,12.0,14.0,84,0.00,,---,0.00,VWS V14.00,2013-05-24 04:01:00,
2013-05-23 23:02:00,56.0,51.2,30.20,NE,45,7.0,14.0,84,0.00,,---,0.00,VWS V14.00,2013-05-24 04:02:00,
2013-05-23 23:03:00,56.0,51.2,30.20,ENE,68,5.0,12.0,84,0.00,,---,0.00,VWS V14.00,2013-05-24 04:03:00,
2013-05-23 23:04:00,56.0,51.2,30.20,ESE,112,10.0,11.0,84,0.00,,---,0.00,VWS V14.00,2013-05-24 04:04:00,
2013-05-23 23:05:00,56.0,51.2,30.20,East,90,4.0,12.0,84,0.00,,---,0.00,VWS V14.00,2013-05-24 04:05:00,
2013-05-23 23:06:00,56.0,51.2,30.20,SSW,202,5.0,10.0,84,0.00,,---,0.00,VWS V14.00,2013-05-24 04:06:00,
2013-05-23 23:07:00,56.0,51.2,30.20,SSW,202,8.0,13.0,84,0.00,,---,0.00,VWS V14.00,2013-05-24 04:07:00,
2013-05-23 23:08:00,56.0,51.2,30.20,ENE,68,14.0,14.0,84,0.00,,---,0.00,VWS V14.00,2013-05-24 04:08:00,
2013-05-23 23:09:00,56.0,51.2,30.20,WSW,248,5.0,14.0,84,0.00,,---,0.00,VWS V14.00,2013-05-24 04:09:00,
2013-05-23 23:10:00,56.0,51.2,30.21,NE,45,3.0,5.0,84,0.00,,---,0.00,VWS V14.00,2013-05-24 04:10:00,
2013-05-23 23:11:00,56.0,51.2,30.21,WNW,292,3.0,11.0,84,0.00,,---,0.00,VWS V14.00,2013-05-24 04:11:00,
2013-05-23 23:12:00,56.0,51.2,30.21,NNE,22,5.0,11.0,84,0.00,,---,0.00,VWS V14.00,2013-05-24 04:12:00,
2013-05-23 23:13:00,56.0,51.2,30.21,NNW,338,5.0,6.0,84,0.00,,---,0.00,VWS V14.00,2013-05-24 04:13:00,
2013-05-23 23:14:00,56.0,51.2,30.21,East,90,4.0,13.0,84,0.00,,---,0.00,VWS V14.00,2013-05-24 04:14:00,
2013-05-23 23:15:00,55.0,50.3,30.21,NE,45,9.0,14.0,84,0.00,,---,0.00,VWS V14.00,2013-05-24 04:15:00,
2013-05-23 23:16:00,55.0,50.3,30.21,WNW,292,11.0,11.0,84,0.00,,---,0.00,VWS V14.00,2013-05-24 04:16:00,
2013-05-23 23:17:00,55.0,50.3,30.21,NE,45,11.0,14.0,84,0.00,,---,0.00,VWS V14.00,2013-05-24 04:17:00,
2013-05-23 23:18:00,55.0,50.3,30.21,WSW,248,4.0,5.0,84,0.00,,---,0.00,VWS V14.00,2013-05-24 04:18:00,
2013-05-23 23:19:00,55.0,50.3,30.21,NNE,22,5.0,11.0,84,0.00,,---,0.00,VWS V14.00,2013-05-24 04:19:00,
2013-05-23 23:20:00,55.0,50.3,30.22,SE,135,2.0,8.0,84,0.00,,---,0.00,VWS V14.00,2013-05-24 04:20:00,
2013-05-23 23:21:00,55.0,50.3,30.22,SSW,202,4.0,9.0,84,0.00,,---,0.00,VWS V14.00,2013-05-24 04:21:00,
2013-05-23 23:22:00,55.0,50.3,30.22,North,0,10.0,18.0,84,0.00,,---,0.00,VWS V14.00,2013-05-24 04:22:00,
2013-05-23 23:23:00,55.0,50.3,30.22,NE,45,10.0,14.0,84,0.00,,---,0.00,VWS V14.00,2013-05-24 04:23:00,
2013-05-23 23:24:00,55.0,50.3,30.22,NNE,22,13.0,15.0,84,0.00,,---,0.00,VWS V14.00,2013-05-24 04:24:00,
2013-05-23 23:25:00,55.0,50.3,30.21,West,270,8.0,15.0,84,0.00,,---,0.00,VWS V14.00,2013-05-24 04:25:00,
2013-05-23 23:26:00,55.0,50.3,30.22,NNW,338,5.0,14.0,84,0.00,,---,0.00,VWS V14.00,2013-05-24 04:26:00,
2013-05-23 23:27:00,55.0,50.3,30.22,NNE,22,4.0,7.0,84,0.00,,---,0.00,VWS V14.00,2013-05-24 04:27:00,
2013-05-23 23:28:00,55.0,50.3,30.22,NE,45,4.0,7.0,84,0.00,,---,0.00,VWS V14.00,2013-05-24 04:28:00,
2013-05-23 23:29:00,55.0,50.3,30.21,NNE,22,16.0,17.0,84,0.00,,---,0.00,VWS V14.00,2013-05-24 04:29:00,
2013-05-23 23:30:00,55.0,50.3,30.21,SSW,202,5.0,18.0,84,0.00,,---,0.00,VWS V14.00,2013-05-24 04:30:00,
2013-05-23 23:31:00,55.0,50.3,30.21,WNW,292,9.0,18.0,84,0.00,,---,0.00,VWS V14.00,2013-05-24 04:31:00,
2013-05-23 23:32:00,55.0,50.3,30.21,SSW,202,6.0,13.0,84,0.00,,---,0.00,VWS V14.00,2013-05-24 04:32:00,
2013-05-23 23:33:00,55.0,50.3,30.21,SSE,158,3.0,12.0,84,0.00,,---,0.00,VWS V14.00,2013-05-24 04:33:00,
2013-05-23 23:34:00,55.0,50.3,30.21,NW,315,5.0,11.0,84,0.00,,---,0.00,VWS V14.00,2013-05-24 04:34:00,
2013-05-23 23:35:00,55.0,50.3,30.21,ENE,68,10.0,10.0,84,0.00,,---,0.00,VWS V14.00,2013-05-24 04:35:00,
2013-05-23 23:36:00,55.0,50.3,30.22,SSE,158,5.0,13.0,84,0.00,,---,0.00,VWS V14.00,2013-05-24 04:36:00,
2013-05-23 23:37:00,55.0,50.3,30.21,SSE,158,4.0,10.0,84,0.00,,---,0.00,VWS V14.00,2013-05-24 04:37:00,
2013-05-23 23:38:00,55.0,50.3,30.21,North,0,13.0,16.0,84,0.00,,---,0.00,VWS V14.00,2013-05-24 04:38:00,
2013-05-23 23:39:00,55.0,49.9,30.21,NNW,338,6.0,13.0,83,0.00,,---,0.00,VWS V14.00,2013-05-24 04:39:00,
2013-05-23 23:40:00,55.0,49.9,30.21,ESE,112,5.0,5.0,83,0.00,,---,0.00,VWS V14.00,2013-05-24 04:40:00,
2013-05-23 23:41:00,55.0,49.9,30.21,WSW,248,5.0,12.0,83,0.00,,---,0.00,VWS V14.00,2013-05-24 04:41:00,
2013-05-23 23:42:00,55.0,49.9,30.21,ENE,68,8.0,16.0,83,0.00,,---,0.00,VWS V14.00,2013-05-24 04:42:00,
2013-05-23 23:43:00,55.0,49.9,30.21,East,90,8.0,12.0,83,0.00,,---,0.00,VWS V14.00,2013-05-24 04:43:00,
2013-05-23 23:44:00,55.0,49.9,30.21,NE,45,12.0,16.0,83,0.00,,---,0.00,VWS V14.00,2013-05-24 04:44:00,
2013-05-23 23:45:00,55.0,49.9,30.21,NE,45,12.0,17.0,83,0.00,,---,0.00,VWS V14.00,2013-05-24 04:45:00,
2013-05-23 23:46:00,55.0,49.9,30.22,NE,45,10.0,13.0,83,0.00,,---,0.00,VWS V14.00,2013-05-24 04:46:00,
2013-05-23 23:47:00,54.0,49.3,30.21,NNE,22,8.0,10.0,84,0.00,,---,0.00,VWS V14.00,2013-05-24 04:47:00,
2013-05-23 23:48:00,54.0,49.3,30.22,NE,45,9.0,10.0,84,0.00,,---,0.00,VWS V14.00,2013-05-24 04:48:00,
2013-05-23 23:49:00,54.0,49.3,30.22,NNE,22,8.0,11.0,84,0.00,,---,0.00,VWS V14.00,2013-05-24 04:49:00,
2013-05-23 23:50:00,54.0,49.3,30.22,East,90,3.0,11.0,84,0.00,,---,0.00,VWS V14.00,2013-05-24 04:50:00,
2013-05-23 23:51:00,54.0,49.3,30.22,North,0,6.0,19.0,84,0.00,,---,0.00,VWS V14.00,2013-05-24 04:51:00,
2013-05-23 23:52:00,54.0,49.3,30.22,WSW,248,8.0,16.0,84,0.00,,---,0.00,VWS V14.00,2013-05-24 04:52:00,
2013-05-23 23:53:00,54.0,49.3,30.22,NNE,22,8.0,13.0,84,0.00,,---,0.00,VWS V14.00,2013-05-24 04:53:00,
2013-05-23 23:54:00,54.0,49.0,30.22,SW,225,4.0,19.0,83,0.00,,---,0.00,VWS V14.00,2013-05-24 04:54:00,
2013-05-23 23:55:00,54.0,49.0,30.22,NE,45,7.0,16.0,83,0.00,,---,0.00,VWS V14.00,2013-05-24 04:55:00,
2013-05-23 23:56:00,54.0,49.0,30.22,NE,45,8.0,13.0,83,0.00,,---,0.00,VWS V14.00,2013-05-24 04:56:00,
2013-05-23 23:57:00,54.0,49.3,30.22,NNW,338,6.0,13.0,84,0.00,,---,0.00,VWS V14.00,2013-05-24 04:57:00,
2013-05-23 23:58:00,54.0,49.3,30.22,NNE,22,8.0,11.0,84,0.00,,---,0.00,VWS V14.00,2013-05-24 04:58:00,
2013-05-23 23:59:00,54.0,49.3,30.22,WNW,292,8.0,13.0,84,0.00,,---,0.00,VWS V14.00,2013-05-24 04:59:00,